[[{"header":{"parameterUnit":"m.s-1","parameterCategory":1,"la1":31.0,"la2":29.5877,"lo1":-88.7671,"lo2":-86.6584,"dy":0.0162,"dx":0.0185,"nx":115,"ny":88,"refTime":"2025-12-02T12:00:00:Z","depth":0,"parameterNumber":2,"parameterNumberName":"U-component_of_WINDS"},"data":[0.0,0.0,0.0,0.0,0.0,0.0,0.0,0.0,0.0,0.0,0.0,0.0,0.0,0.0,0.0,0.0,0.0,0.0,0.0,0.0,0.0,0.0,0.0,0.0,0.0,0.0,0.0,0.0,0.0,0.0,0.0,0.0,0.0,0.0,0.0,0.0,0.0,0.0,0.0,0.0,0.0,0.0,0.0,0.0,0.0,0.0,0.0,0.0,0.0,0.0,0.0,0.0,0.0,0.0,0.0,0.0,0.0,0.0,0.0,0.0,0.0,0.0,0.0,0.0,0.0,0.0,0.0,0.0,0.0,0.0,0.0,0.0,0.0,0.0,0.0,0.0,0.0,0.0,0.0,0.0,0.0,0.0,0.0,0.0,0.0,0.0,0.0,0.0,0.0,0.0,0.0,0.0,0.0,0.0,0.0,0.0,0.0,0.0,0.0,0.0,0.0,0.0,0.0,0.0,0.0,0.0,0.0,0.0,0.0,0.0,0.0,0.0,0.0,0.0,0.0,0.0,0.0,0.0,0.0,0.0,0.0,0.0,0.0,0.0,0.0,0.0,0.0,0.0,0.0,0.0,0.0,0.0,0.0,0.0,0.0,0.0,0.0,0.0,0.0,0.0,0.0,0.0,0.0,0.0,0.0,0.0,0.0,0.0,0.0,0.0,0.0,0.0,0.0,0.0,0.0,0.0,0.0,0.0,0.0,0.0,0.0,0.0,0.0,0.0,0.0,0.0,0.0,0.0,0.0,0.0,0.0,0.0,0.0,0.0,0.0,0.0,0.0,0.0,0.0,0.0,0.0,0.0,0.0,0.0,0.0,0.0,0.0,0.0,0.0,0.0,0.0,0.0,0.0,0.0,0.0,0.0,0.0,0.0,0.0,0.0,0.0,0.0,0.0,0.0,0.0,0.0,0.0,0.0,0.0,0.0,0.0,0.0,0.0,0.0,0.0,0.0,0.0,0.0,0.0,0.0,0.0,0.0,0.0,0.0,0.0,0.0,0.0,0.0,0.0,0.0,0.0,0.0,0.0,0.0,0.0,0.0,0.0,0.0,0.0,0.0,0.0,0.0,0.0,0.0,0.0,0.0,0.0,0.0,0.0,0.0,0.0,0.0,0.0,0.0,0.0,0.0,0.0,0.0,0.0,0.0,0.0,0.0,0.0,0.0,0.0,0.0,0.0,0.0,0.0,0.0,0.0,0.0,0.0,0.0,0.0,0.0,0.0,0.0,0.0,0.0,0.0,0.0,0.0,0.0,0.0,0.0,0.0,0.0,0.0,0.0,0.0,0.0,0.0,0.0,0.0,0.0,0.0,0.0,0.0,0.0,0.0,0.0,0.0,0.0,0.0,0.0,0.0,0.0,0.0,0.0,0.0,0.0,0.0,0.0,0.0,0.0,0.0,0.0,0.0,0.0,0.0,0.0,0.0,0.0,0.0,0.0,0.0,0.0,0.0,0.0,0.0,0.0,0.0,0.0,0.0,0.0,0.0,0.0,0.0,0.0,0.0,0.0,0.0,0.0,0.0,0.0,0.0,0.0,0.0,0.0,0.0,0.0,0.0,0.0,0.0,0.0,0.0,0.0,0.0,0.0,0.0,0.0,0.0,0.0,0.0,0.0,0.0,0.0,0.0,0.0,0.0,0.0,0.0,0.0,0.0,0.0,0.0,0.0,0.0,0.0,0.0,0.0,0.0,0.0,0.0,0.0,0.0,0.0,0.0,0.0,0.0,0.0,0.0,0.0,0.0,0.0,0.0,0.0,0.0,0.0,0.0,0.0,0.0,0.0,0.0,0.0,0.0,0.0,0.0,0.0,0.0,0.0,0.0,0.0,0.0,0.0,0.0,0.0,0.0,0.0,0.0,0.0,0.0,0.0,0.0,0.0,0.0,0.0,0.0,0.0,0.0,0.0,0.0,0.0,0.0,0.0,0.0,0.0,0.0,0.0,0.0,0.0,0.0,0.0,0.0,0.0,0.0,0.0,0.0,0.0,0.0,0.0,0.0,0.0,0.0,0.0,0.0,0.0,0.0,0.0,0.0,0.0,0.0,0.0,0.0,0.0,0.0,0.0,0.0,0.0,0.0,0.0,0.0,0.0,0.0,0.0,0.0,0.0,0.0,0.0,0.0,0.0,0.0,0.0,0.0,0.0,0.0,0.0,0.0,0.0,0.0,0.0,0.0,0.0,0.0,0.0,0.0,0.0,0.0,0.0,0.0,0.0,0.0,0.0,0.0,0.0,0.0,0.0,0.0,0.0,0.0,0.0,0.0,0.0,0.0,0.0,0.0,0.0,0.0,0.0,0.0,0.0,0.0,0.0,0.0,0.0,0.0,0.0,0.0,0.0,0.0,0.0,0.0,0.0,0.0,0.0,0.0,0.0,0.0,0.0,0.0,0.0,0.0,0.0,0.0,0.0,0.0,0.0,0.0,0.0,0.0,0.0,0.0,0.0,0.0,0.0,0.0,0.0,0.0,0.0,0.0,0.0,0.0,0.0,0.0,0.0,0.0,0.0,0.0,0.0,0.0,0.0,0.0,0.0,0.0,0.0,0.0,0.0,0.0,0.0,0.0,0.0,0.0,0.0,0.0,0.0,0.0,0.0,0.0,0.0,0.0,0.0,0.0,0.0,0.0,0.0,0.0,0.0,0.0,0.0,0.0,0.0,0.0,0.0,0.0,0.0,0.0,0.0,0.0,0.0,0.0,0.0,0.0,0.0,0.0,0.0,0.0,0.0,0.0,0.0,0.0,0.0,0.0,0.0,0.0,0.0,0.0,0.0,0.0,0.0,0.0,0.0,0.0,0.0,0.0,0.0,0.0,0.0,0.0,0.0,0.0,0.0,0.0,0.0,0.0,0.0,0.0,0.0,0.0,0.0,0.0,0.0,0.0,0.0,0.0,0.0,0.0,0.0,0.0,0.0,0.0,0.0,0.0,0.0,0.0,0.0,0.0,0.0,0.0,0.0,0.0,0.0,0.0,0.0,0.0,0.0,0.0,0.0,0.0,0.0,0.0,0.0,0.0,0.0,0.0,0.0,0.0,0.0,0.0,0.0,0.0,0.0,0.0,0.0,0.0,0.0,0.0,0.0,0.0,0.0,0.0,0.0,0.0,0.0,0.0,0.0,0.0,0.0,0.0,0.0,0.0,0.0,0.0,0.0,0.0,0.0,0.0,0.0,0.0,0.0,0.0,0.0,0.0,0.0,0.0,0.0,0.0,0.0,0.0,0.0,0.0,0.0,0.0,0.0,0.0,0.0,0.0,0.0,0.0,0.0,0.0,0.0,0.0,0.0,0.0,0.0,0.0,0.0,0.0,0.0,0.0,0.0,0.0,0.0,0.0,0.0,0.0,0.0,0.0,0.0,0.0,0.0,0.0,0.0,0.0,0.0,0.0,0.0,0.0,0.0,0.0,0.0,0.0,0.0,0.0,0.0,0.0,0.0,0.0,0.0,0.0,0.0,0.0,0.0,0.0,0.0,0.0,0.0,0.0,0.0,0.0,0.0,0.0,0.0,0.0,0.0,0.0,0.0,0.0,0.0,0.0,0.0,0.0,0.0,0.0,0.0,0.0,0.0,0.0,0.0,0.0,0.0,0.0,0.0,0.0,0.0,0.0,0.0,0.0,0.0,0.0,0.0,0.0,0.0,0.0,0.0,0.0,0.0,0.0,0.0,0.0,0.0,0.0,0.0,0.0,0.0,0.0,0.0,0.0,0.0,0.0,0.0,0.0,0.0,0.0,0.0,0.0,0.0,0.0,0.0,0.0,0.0,0.0,0.0,0.0,0.0,0.0,0.0,0.0,0.0,0.0,0.0,0.0,0.0,0.0,0.0,0.0,0.0,0.0,0.0,0.0,0.0,0.0,0.0,0.0,0.0,0.0,0.0,0.0,0.0,0.0,0.0,0.0,0.0,0.0,0.0,0.0,0.0,0.0,0.0,0.0,0.0,0.0,0.0,0.0,0.0,0.0,0.0,0.0,0.0,0.0,0.0,0.0,0.0,0.0,0.0,0.0,0.0,0.0,0.0,0.0,0.0,0.0,0.0,0.0,0.0,0.0,0.0,0.0,0.0,0.0,0.0,0.0,0.0,0.0,0.0,0.0,0.0,0.0,0.0,0.0,0.0,0.0,0.0,0.0,0.0,0.0,0.0,0.0,0.0,0.0,0.0,0.0,0.0,0.0,0.0,0.0,0.0,0.0,0.0,0.0,0.0,0.0,0.0,0.0,0.0,0.0,0.0,0.0,0.0,0.0,0.0,0.0,0.0,0.0,0.0,1.2376,0.0,0.0,0.0,0.0,0.0,0.0,0.0,0.0,0.0,0.0,0.0,0.0,0.0,0.0,0.0,0.0,0.0,0.0,0.0,0.0,0.0,0.0,0.0,0.0,0.0,0.0,0.0,0.0,0.0,0.0,0.0,0.0,0.0,0.0,0.0,0.0,0.0,0.0,0.0,0.0,0.0,0.0,0.0,0.0,0.0,0.0,0.0,0.0,0.0,0.0,0.0,0.0,0.0,0.0,0.0,0.0,0.0,0.0,0.0,0.0,0.0,0.0,0.0,0.0,0.0,0.0,0.0,0.0,0.0,0.0,0.0,0.0,0.0,0.0,0.0,0.0,0.0,0.0,0.0,0.0,0.0,0.0,0.0,0.0,0.0,0.0,0.0,0.0,0.0,0.0,0.0,0.0,0.0,0.0,0.0,0.0,0.0,0.0,0.0,0.0,0.0,0.0,0.0,0.0,0.0,0.0,0.0,0.0,0.0,0.0,1.4488,1.449,1.4627,1.3952,1.2359,0.0,0.0,0.0,0.0,0.0,0.0,0.0,0.0,0.0,0.0,0.0,0.0,0.0,0.0,0.0,0.0,0.0,0.0,0.0,0.0,0.0,0.0,0.0,0.0,0.0,0.0,0.0,0.0,0.0,0.0,0.0,0.0,0.0,0.0,0.0,0.0,0.0,0.0,0.0,0.0,0.0,0.0,0.0,0.0,0.0,0.0,0.0,0.0,0.0,0.0,0.0,0.0,0.0,0.0,0.0,0.0,0.0,0.0,0.0,0.0,0.0,0.0,0.0,0.0,0.0,0.0,0.0,0.0,0.0,0.0,0.0,0.0,0.0,0.0,0.0,0.0,0.0,0.0,0.0,0.0,0.0,0.0,0.0,0.0,0.0,0.0,0.0,0.0,0.0,0.0,0.0,0.0,0.0,0.0,0.0,0.0,0.0,0.0,0.0,0.0,0.0,0.0,0.0,0.0,0.0,0.0,0.0,0.0,0.0,0.0,0.0,0.0,1.4661,1.4009,1.2435,0.0,0.0,0.0,0.0,0.0,0.0,0.0,0.0,0.0,0.0,0.0,0.0,0.0,0.0,0.0,0.0,0.0,0.0,0.0,0.0,0.0,0.0,0.0,0.0,0.0,0.0,0.0,0.0,0.0,0.0,0.0,0.0,0.0,0.0,0.0,0.0,0.0,0.0,0.0,0.0,0.0,0.0,0.0,0.0,0.0,0.0,0.0,0.0,0.0,0.0,0.0,0.0,0.0,0.0,0.0,0.0,0.0,0.0,0.0,0.0,0.0,0.0,0.0,0.0,0.0,0.0,0.0,0.0,0.0,0.0,0.0,0.0,0.0,0.0,0.0,0.0,0.0,0.0,0.0,0.0,0.0,0.0,0.0,0.0,0.0,0.0,0.0,0.0,0.0,0.0,0.0,0.0,0.0,0.0,0.0,0.0,0.0,0.0,0.0,0.0,0.0,0.0,0.0,0.0,0.0,0.0,0.0,0.0,0.0,0.0,1.4488,1.4496,1.4744,0.0,1.2721,0.0,0.0,0.0,0.0,0.0,0.0,0.0,0.0,0.0,0.0,0.0,0.0,0.0,0.0,0.0,0.0,0.0,0.0,0.0,0.0,0.0,0.0,0.0,0.0,0.0,0.0,0.0,0.0,0.0,0.0,0.0,0.0,0.0,0.0,0.0,0.0,0.0,0.0,0.0,0.0,0.0,0.0,0.0,0.0,0.0,0.0,0.0,0.0,0.0,0.0,0.0,0.0,0.0,0.0,0.0,0.0,0.0,0.0,0.0,0.0,0.0,0.0,0.0,0.0,0.0,0.0,0.0,0.0,0.0,0.0,0.0,0.0,0.0,0.0,0.0,0.0,0.0,0.0,0.0,0.0,0.0,0.0,0.0,0.0,0.0,0.0,0.0,0.0,0.0,0.0,0.0,0.0,0.0,0.0,0.0,0.0,0.0,0.0,0.0,0.0,0.0,0.0,0.0,0.0,0.0,0.0,0.0,0.0,0.0,0.0,0.0,1.4632,1.3898,1.3243,0.0,0.0,0.0,0.0,0.0,0.0,0.0,0.0,0.0,0.0,0.0,0.0,0.0,0.0,0.0,0.0,0.0,0.0,0.0,0.0,0.0,0.0,0.0,0.0,0.0,0.0,0.0,0.0,0.0,0.0,0.0,0.0,0.0,0.0,0.0,0.0,0.0,0.0,0.0,0.0,0.0,0.0,0.0,0.0,0.0,0.0,0.0,0.0,0.0,0.0,0.0,0.0,0.0,0.0,0.0,0.0,0.0,0.0,0.0,0.0,0.0,0.0,0.0,0.0,0.0,0.0,0.0,0.0,0.0,0.0,0.0,0.0,0.0,0.0,0.0,0.0,0.0,0.0,0.0,0.0,0.0,0.0,0.0,0.0,0.0,0.0,0.0,0.0,0.0,0.0,0.0,0.0,0.0,0.0,0.0,0.0,0.0,0.0,0.0,0.0,0.0,0.0,0.0,0.0,0.0,0.0,0.0,0.0,0.0,0.0,1.4488,0.0,1.47,1.3738,1.3031,1.2719,0.0,0.0,0.0,0.0,0.0,0.0,0.0,0.0,0.0,0.0,0.0,0.0,0.0,0.0,0.0,0.0,0.0,0.0,0.0,0.0,0.0,0.0,0.0,0.0,0.0,0.0,0.0,0.0,0.0,0.0,0.0,0.0,0.0,0.0,0.0,0.0,0.0,0.0,0.0,0.0,0.0,0.0,0.0,0.0,0.0,0.0,0.0,0.0,0.0,0.0,0.0,0.0,0.0,0.0,0.0,0.0,0.0,0.0,0.0,0.0,0.0,0.0,0.0,0.0,0.0,0.0,0.0,0.0,0.0,0.0,0.0,0.0,0.0,0.0,0.0,0.0,0.0,0.0,0.0,0.0,0.0,0.0,0.0,0.0,0.0,0.0,0.0,0.0,0.0,0.0,0.0,0.0,0.0,0.0,0.0,0.0,0.0,0.0,0.0,0.0,0.0,0.0,0.0,0.0,0.0,0.0,0.0,0.0,0.0,1.4499,1.4638,1.4891,1.4897,1.4188,0.0,0.0,0.0,0.0,0.0,0.0,0.0,0.0,0.0,0.0,0.0,0.0,0.0,0.0,0.0,0.0,0.0,0.0,0.0,0.0,0.0,0.0,0.0,0.0,0.0,0.0,0.0,0.0,0.0,0.0,0.0,0.0,0.0,0.0,0.0,0.0,0.0,0.0,0.0,0.0,0.0,0.0,0.0,0.0,0.0,0.0,0.0,0.0,0.0,0.0,0.0,0.0,0.0,0.0,0.0,0.0,0.0,0.0,0.0,0.0,0.0,0.0,0.0,0.0,0.0,0.0,0.0,0.0,0.0,0.0,0.0,0.0,0.0,0.0,0.0,0.0,0.0,0.0,0.0,0.0,0.0,0.0,0.0,0.0,0.0,0.0,0.0,0.0,0.0,0.0,0.0,0.0,0.0,0.0,0.0,0.0,0.0,0.0,0.0,0.0,0.0,0.0,0.0,0.0,0.0,0.0,0.0,0.0,0.0,1.4636,1.4754,1.4886,1.4989,1.4064,1.3256,0.0,0.0,0.0,0.0,0.0,0.0,0.0,0.0,0.0,0.0,0.0,0.0,0.0,0.0,0.0,0.0,0.0,0.0,0.0,0.0,0.0,0.0,0.0,0.0,0.0,0.0,0.0,0.0,0.0,0.0,0.0,0.0,0.0,0.0,0.0,0.0,0.0,0.0,0.0,0.0,0.0,0.0,0.0,0.0,0.0,0.0,0.0,0.0,0.0,0.0,0.0,0.0,0.0,0.0,0.0,0.0,0.0,0.0,0.0,0.0,0.0,0.0,0.0,0.0,0.0,0.0,0.0,0.0,0.0,0.0,0.0,0.0,0.0,0.0,0.0,0.0,0.0,0.0,0.0,0.0,0.0,0.0,0.0,0.0,0.0,0.0,0.0,0.0,0.0,0.0,0.0,0.0,0.0,0.0,0.0,0.0,0.0,0.0,0.0,0.0,0.0,0.0,0.0,0.0,0.0,0.0,0.0,0.0,0.0,1.5076,0.0,1.5684,0.0,1.4218,1.3226,0.0,0.0,0.0,0.0,0.0,0.0,0.0,0.0,0.0,0.0,0.0,0.0,0.0,0.0,0.0,0.0,0.0,0.0,0.0,0.0,0.0,0.0,0.0,0.0,0.0,0.0,0.0,0.0,0.0,0.0,0.0,0.0,0.0,0.0,0.0,0.0,0.0,0.0,0.0,0.0,0.0,0.0,0.0,0.0,0.0,0.0,0.0,0.0,0.0,0.0,0.0,0.0,0.0,0.0,0.0,0.0,0.0,0.0,0.0,0.0,0.0,0.0,0.0,0.0,0.0,0.0,0.0,0.0,0.0,0.0,0.0,0.0,0.0,0.0,0.0,0.0,0.0,0.0,0.0,0.0,0.0,0.0,0.0,0.0,0.0,0.0,0.0,0.0,0.0,0.0,0.0,0.0,0.0,0.0,0.0,0.0,0.0,0.0,0.0,0.0,0.0,0.0,0.0,0.0,0.0,0.0,0.0,0.0,0.0,1.5852,1.6727,1.6853,1.6402,1.549,1.4339,0.0,0.0,0.0,0.0,0.0,0.0,0.0,0.0,0.0,0.0,0.0,0.0,0.0,0.0,0.0,0.0,0.0,0.0,0.0,0.0,0.0,0.0,0.0,0.0,0.0,0.0,0.0,0.0,0.0,0.0,0.0,0.0,0.0,0.0,0.0,0.0,0.0,0.0,0.0,0.0,0.0,0.0,0.0,0.0,0.0,0.0,0.0,0.0,0.0,0.0,0.0,0.0,0.0,0.0,0.0,0.0,0.0,0.0,0.0,0.0,0.0,0.0,0.0,0.0,0.0,0.0,0.0,0.0,0.0,0.0,0.0,0.0,0.0,0.0,0.0,0.0,0.0,0.0,0.0,0.0,0.0,0.0,0.0,0.0,0.0,0.0,0.0,0.0,0.0,0.0,0.0,0.0,0.0,0.0,0.0,0.0,0.0,0.0,0.0,0.0,0.0,0.0,0.0,0.0,0.0,0.0,0.0,0.0,0.0,1.6033,1.5864,1.603,1.6448,1.4586,1.3278,0.0,0.0,0.0,0.0,0.0,0.0,0.0,0.0,0.0,0.0,0.0,0.0,0.0,0.0,0.0,0.0,0.0,0.0,0.0,0.0,0.0,0.0,0.0,0.0,0.0,0.0,0.0,0.0,0.0,0.0,0.0,0.0,0.0,0.0,0.0,0.0,0.0,0.0,0.0,0.0,0.0,0.0,0.0,0.0,0.0,0.0,0.0,0.0,0.0,0.0,0.0,0.0,0.0,0.0,0.0,0.0,0.0,0.0,0.0,0.0,0.0,0.0,0.0,0.0,0.0,0.0,0.0,0.0,0.0,0.0,0.0,0.0,0.0,0.0,0.0,0.0,0.0,0.0,0.0,0.0,0.0,0.0,0.0,0.0,0.0,0.0,0.0,0.0,0.0,0.0,0.0,0.0,0.0,0.0,0.0,0.0,0.0,0.0,0.0,0.0,0.0,0.0,0.0,0.0,0.0,0.0,0.0,0.0,0.0,1.6406,1.6397,1.6443,1.6606,1.4736,1.3408,1.2747,0.0,0.0,0.0,0.0,0.0,0.0,0.0,0.0,0.0,0.0,0.0,0.0,0.0,0.0,0.0,0.0,0.0,0.0,0.0,0.0,0.0,0.0,0.0,0.0,0.0,0.0,0.0,0.0,0.0,0.0,0.0,0.0,0.0,0.0,0.0,0.0,0.0,0.0,0.0,0.0,0.0,0.0,0.0,0.0,0.0,0.0,0.0,0.0,0.0,0.0,0.0,0.0,0.0,0.0,0.0,0.0,0.0,0.0,0.0,0.0,0.0,0.0,0.0,0.0,0.0,0.0,0.0,0.0,0.0,0.0,0.0,0.0,0.0,0.0,0.0,0.0,0.0,0.0,0.0,0.0,0.0,0.0,0.0,0.0,0.0,0.0,0.0,0.0,0.0,0.0,0.0,0.0,0.0,0.0,0.0,0.0,0.0,0.0,0.0,0.0,0.0,0.0,0.0,0.0,0.0,0.0,0.0,0.0,1.682,1.7829,1.7769,1.662,1.5693,1.449,0.0,0.0,0.0,0.0,0.0,0.0,0.0,0.0,0.0,0.0,0.0,0.0,0.0,0.0,0.0,0.0,0.0,0.0,0.0,0.0,0.0,0.0,0.0,0.0,0.0,0.0,0.0,0.0,0.0,0.0,0.0,0.0,0.0,0.0,0.0,0.0,0.0,0.0,0.0,0.0,0.0,0.0,0.0,0.0,0.0,0.0,0.0,0.0,0.0,0.0,0.0,0.0,0.0,0.0,0.0,0.0,0.0,0.0,0.0,0.0,0.0,0.0,0.0,0.0,0.0,0.0,0.0,0.0,0.0,0.0,0.0,0.0,0.0,0.0,0.0,0.0,0.0,0.0,0.0,0.0,0.0,0.0,0.0,0.0,0.0,0.0,0.0,0.0,0.0,0.0,0.0,0.0,0.0,0.0,0.0,0.0,0.0,0.0,0.0,0.0,0.0,0.0,0.0,0.0,0.0,0.0,0.0,0.0,0.0,1.5983,1.6461,1.6698,1.6566,1.5187,1.4208,0.0,0.0,0.0,0.0,0.0,0.0,0.0,0.0,0.0,0.0,0.0,0.0,0.0,0.0,0.0,0.0,0.0,0.0,0.0,0.0,0.0,0.0,0.0,0.0,0.0,0.0,0.0,0.0,0.0,0.0,0.0,0.0,0.0,0.0,0.0,0.0,0.0,0.0,0.0,0.0,0.0,0.0,0.0,0.0,0.0,0.0,0.0,0.0,0.0,0.0,0.0,0.0,0.0,0.0,0.0,0.0,0.0,0.0,0.0,0.0,0.0,0.0,0.0,0.0,0.0,0.0,0.0,0.0,0.0,0.0,0.0,0.0,0.0,0.0,0.0,0.0,0.0,0.0,0.0,0.0,0.0,0.0,0.0,0.0,0.0,0.0,0.0,0.0,0.0,0.0,0.0,0.0,0.0,0.0,0.0,0.0,0.0,0.0,0.0,0.0,0.0,0.0,0.0,0.0,0.0,0.0,0.0,0.0,1.5969,1.5107,1.5064,1.5185,1.5506,1.4917,1.4429,0.0,0.0,0.0,0.0,0.0,0.0,0.0,0.0,0.0,0.0,0.0,0.0,0.0,0.0,0.0,0.0,0.0,0.0,0.0,0.0,0.0,0.0,0.0,0.0,0.0,0.0,0.0,0.0,0.0,0.0,0.0,0.0,0.0,0.0,0.0,0.0,0.0,0.0,0.0,0.0,0.0,0.0,0.0,0.0,0.0,0.0,0.0,0.0,0.0,0.0,0.0,0.0,0.0,0.0,0.0,0.0,0.0,0.0,0.0,0.0,0.0,0.0,0.0,0.0,0.0,0.0,0.0,0.0,0.0,0.0,0.0,0.0,0.0,0.0,0.0,0.0,0.0,0.0,0.0,0.0,0.0,0.0,0.0,0.0,0.0,0.0,0.0,0.0,0.0,0.0,0.0,0.0,0.0,0.0,0.0,0.0,0.0,0.0,0.0,0.0,0.0,0.0,0.0,0.0,0.0,0.0,0.0,0.0,1.4895,1.4404,1.3974,1.3821,1.401,1.4854,1.4967,0.0,0.0,0.0,0.0,0.0,0.0,0.0,0.0,0.0,0.0,0.0,0.0,0.0,0.0,0.0,0.0,0.0,0.0,0.0,0.0,0.0,0.0,0.0,0.0,0.0,0.0,0.0,0.0,0.0,0.0,0.0,0.0,0.0,0.0,0.0,0.0,0.0,0.0,0.0,0.0,0.0,0.0,0.0,0.0,0.0,0.0,0.0,0.0,0.0,0.0,0.0,0.0,0.0,0.0,0.0,0.0,0.0,0.0,0.0,0.0,0.0,0.0,0.0,0.0,0.0,0.0,0.0,0.0,0.0,0.0,0.0,0.0,0.0,0.0,0.0,0.0,0.0,0.0,0.0,0.0,0.0,0.0,0.0,0.0,0.0,0.0,0.0,0.0,0.0,0.0,0.0,0.0,0.0,0.0,0.0,0.0,0.0,0.0,0.0,0.0,0.0,0.0,0.0,0.0,0.0,0.0,0.0,0.0,1.5439,1.4425,1.4558,1.4435,1.4025,1.485,1.5251,0.0,0.0,0.0,0.0,0.0,0.0,0.0,0.0,0.0,0.0,0.0,0.0,0.0,0.0,0.0,0.0,0.0,0.0,0.0,0.0,0.0,0.0,0.0,0.0,0.0,0.0,0.0,0.0,0.0,0.0,0.0,0.0,0.0,0.0,0.0,0.0,0.0,0.0,0.0,0.0,0.0,0.0,0.0,0.0,0.0,0.0,0.0,0.0,1.2312,0.0,0.0,0.0,0.0,0.0,0.0,0.0,0.0,0.0,0.0,0.0,0.0,0.0,0.0,0.0,0.0,0.0,0.0,0.0,0.0,0.0,0.0,0.0,0.0,0.0,0.0,0.0,0.0,0.0,0.0,0.0,0.0,0.0,0.0,0.0,0.0,0.0,0.0,0.0,0.0,0.0,0.0,0.0,0.0,0.0,0.0,0.0,0.0,0.0,0.0,0.0,0.0,0.0,0.0,0.0,0.0,0.0,0.0,0.0,1.5113,1.4068,1.4213,1.4191,1.4026,1.4832,1.5298,0.0,0.0,0.0,0.0,0.0,0.0,0.0,0.0,0.0,0.0,0.0,0.0,0.0,0.0,0.0,0.0,0.0,0.0,0.0,0.0,0.0,0.0,0.0,0.0,0.0,0.0,0.0,0.0,0.0,0.0,0.0,0.0,0.0,0.0,0.0,0.0,0.0,0.0,0.0,0.0,0.0,0.0,0.0,0.0,0.0,0.0,0.0,0.0,0.0,0.0,0.0,0.0,0.0,0.0,0.0,0.0,0.0,0.0,0.0,0.0,0.0,0.0,0.0,0.0,0.0,0.0,0.0,0.0,0.0,0.0,0.0,0.0,0.0,0.0,0.0,0.0,0.0,0.0,0.0,0.0,0.0,0.0,0.0,0.0,0.0,0.0,0.0,0.0,0.0,0.0,0.0,0.0,0.0,0.0,0.0,0.0,0.0,0.0,0.0,0.0,0.0,0.0,0.0,0.0,0.0,0.0,0.0,1.5558,1.4768,1.3843,1.3797,1.391,1.4218,1.4928,1.5253,1.5184,0.0,0.0,0.0,0.0,0.0,0.0,0.0,0.0,0.0,0.0,0.0,0.0,0.0,0.0,0.0,0.0,0.0,0.0,0.0,0.0,0.0,0.0,0.0,0.0,0.0,0.0,0.0,0.0,0.0,0.0,0.0,0.0,0.0,0.0,0.0,0.0,0.0,0.0,1.3905,1.4536,0.0,0.0,0.0,0.0,0.0,0.0,0.0,0.0,1.3961,0.0,0.0,0.0,0.0,0.0,0.0,0.0,0.0,0.0,0.0,0.0,0.0,0.0,0.0,0.0,0.0,0.0,0.0,0.0,0.0,0.0,0.0,0.0,0.0,0.0,0.0,0.0,0.0,0.0,0.0,0.0,0.0,0.0,0.0,0.0,0.0,0.0,0.0,0.0,0.0,0.0,0.0,0.0,0.0,0.0,0.0,0.0,0.0,0.0,0.0,0.0,0.0,0.0,0.0,0.0,0.0,1.622,1.6227,1.5751,1.4715,1.468,1.4804,1.5075,1.5232,1.5245,1.5127,0.0,0.0,0.0,0.0,0.0,0.0,0.0,0.0,0.0,0.0,0.0,0.0,0.0,0.0,0.0,0.0,0.0,0.0,0.0,0.0,0.0,0.0,0.0,0.0,0.0,0.0,0.0,0.0,0.0,0.0,0.0,0.0,0.0,0.0,0.0,0.0,0.0,0.0,0.0,1.4033,1.3769,0.0,0.0,0.0,0.0,0.0,0.0,0.0,0.0,1.4869,0.0,0.0,0.0,0.0,0.0,0.0,0.0,0.0,0.0,0.0,0.0,0.0,0.0,0.0,0.0,0.0,0.0,0.0,0.0,0.0,0.0,0.0,0.0,0.0,0.0,0.0,0.0,0.0,0.0,0.0,0.0,0.0,0.0,0.0,0.0,0.0,0.0,0.0,0.0,0.0,0.0,0.0,0.0,0.0,0.0,0.0,0.0,0.0,0.0,0.0,0.0,0.0,0.0,0.0,0.0,1.6255,1.6306,1.5884,1.4938,1.4902,1.5009,1.5225,1.5234,1.5168,0.0,0.0,0.0,0.0,0.0,0.0,0.0,0.0,0.0,0.0,0.0,0.0,0.0,0.0,0.0,0.0,0.0,0.0,0.0,0.0,0.0,0.0,0.0,0.0,0.0,0.0,0.0,0.0,0.0,0.0,0.0,0.0,0.0,0.0,0.0,0.0,0.0,0.0,0.0,0.0,1.426,1.4117,1.2873,0.0,0.0,0.0,0.0,0.0,0.0,1.533,1.5982,0.0,0.0,0.0,0.0,0.0,0.0,0.0,0.0,0.0,0.0,0.0,0.0,0.0,0.0,0.0,0.0,0.0,0.0,0.0,0.0,0.0,0.0,0.0,0.0,0.0,0.0,0.0,0.0,0.0,0.0,0.0,0.0,0.0,0.0,0.0,0.0,0.0,0.0,0.0,0.0,0.0,0.0,0.0,0.0,0.0,0.0,0.0,0.0,0.0,0.0,0.0,0.0,0.0,0.0,0.0,1.6242,1.6235,1.5807,1.4898,1.4893,1.4976,1.5164,1.5203,1.5122,0.0,0.0,0.0,0.0,0.0,0.0,0.0,0.0,0.0,0.0,0.0,0.0,0.0,0.0,0.0,0.0,0.0,0.0,0.0,0.0,0.0,0.0,0.0,0.0,0.0,0.0,0.0,0.0,0.0,0.0,0.0,0.0,0.0,0.0,0.0,0.0,0.0,0.0,0.0,0.0,0.0,1.496,1.3617,1.3783,0.0,0.0,0.0,0.0,1.5008,1.6345,0.0,0.0,0.0,0.0,0.0,0.0,0.0,0.0,0.0,0.0,0.0,0.0,0.0,0.0,0.0,0.0,0.0,0.0,0.0,0.0,0.0,0.0,0.0,0.0,0.0,0.0,0.0,0.0,0.0,0.0,0.0,0.0,0.0,0.0,0.0,0.0,0.0,0.0,0.0,0.0,0.0,0.0,0.0,0.0,0.0,0.0,0.0,0.0,0.0,0.0,0.0,0.0,0.0,0.0,0.0,0.0,1.6263,1.6385,1.5886,1.4803,1.4832,1.4929,1.5025,1.5137,1.5132,0.0,0.0,0.0,0.0,0.0,0.0,0.0,0.0,0.0,0.0,0.0,0.0,0.0,0.0,0.0,0.0,0.0,0.0,0.0,0.0,0.0,0.0,0.0,0.0,0.0,0.0,0.0,0.0,0.0,0.0,0.0,0.0,0.0,0.0,0.0,0.0,0.0,0.0,0.0,0.0,0.0,1.6247,1.5914,1.5295,1.4785,0.0,0.0,1.5967,1.6109,1.6939,0.0,0.0,0.0,0.0,0.0,0.0,0.0,0.0,0.0,0.0,0.0,0.0,0.0,0.0,0.0,0.0,0.0,0.0,0.0,0.0,0.0,0.0,0.0,0.0,0.0,0.0,0.0,0.0,0.0,0.0,0.0,0.0,0.0,0.0,0.0,0.0,0.0,0.0,0.0,0.0,0.0,0.0,0.0,0.0,0.0,0.0,0.0,0.0,0.0,0.0,0.0,0.0,0.0,0.0,0.0,1.7392,1.6901,1.6614,1.6129,1.5405,1.5062,1.4921,1.4988,1.5114,1.5114,0.0,0.0,0.0,0.0,0.0,0.0,0.0,0.0,0.0,0.0,0.0,0.0,0.0,0.0,0.0,0.0,0.0,0.0,0.0,0.0,0.0,0.0,0.0,0.0,0.0,0.0,0.0,0.0,0.0,0.0,0.0,0.0,0.0,0.0,0.0,0.0,0.0,0.0,0.0,0.0,0.0,0.0,1.6241,1.5495,0.0,0.0,0.0,1.6319,1.6952,0.0,0.0,0.0,0.0,0.0,0.0,0.0,0.0,0.0,0.0,0.0,0.0,0.0,0.0,0.0,0.0,0.0,0.0,0.0,0.0,0.0,0.0,0.0,0.0,0.0,0.0,0.0,0.0,0.0,0.0,0.0,0.0,0.0,0.0,0.0,0.0,0.0,0.0,0.0,0.0,0.0,0.0,0.0,0.0,0.0,0.0,0.0,0.0,0.0,0.0,0.0,0.0,0.0,0.0,0.0,0.0,0.0,1.7655,1.6846,1.624,1.5839,1.5199,1.4866,1.4914,1.5049,0.0,0.0,0.0,0.0,0.0,0.0,0.0,0.0,0.0,0.0,0.0,0.0,0.0,0.0,0.0,0.0,0.0,0.0,0.0,0.0,0.0,0.0,0.0,0.0,0.0,0.0,0.0,0.9905,0.0,0.0,0.0,0.0,0.0,0.0,0.0,0.0,0.0,0.0,0.0,0.0,0.0,0.0,1.6399,1.6446,1.5538,1.4944,0.0,0.0,1.678,1.7777,1.8603,1.909,0.0,0.0,0.0,0.0,0.0,0.0,0.0,0.0,0.0,0.0,0.0,0.0,0.0,0.0,0.0,0.0,0.0,0.0,0.0,0.0,0.0,0.0,0.0,0.0,0.0,0.0,0.0,0.0,0.0,0.0,0.0,0.0,0.0,0.0,0.0,0.0,0.0,0.0,0.0,0.0,0.0,0.0,0.0,0.0,0.0,0.0,0.0,0.0,0.0,0.0,0.0,0.0,0.0,0.0,0.0,1.8339,1.6963,1.6075,1.5714,1.5067,1.4719,1.4713,1.4866,1.4762,0.0,0.0,0.0,0.0,0.0,0.0,0.0,0.0,0.0,0.0,0.0,0.0,0.0,0.0,0.0,0.0,0.0,0.0,0.0,0.0,0.0,0.0,0.0,0.0,0.0,0.0,0.0,0.0,0.0,0.0,0.0,0.0,0.0,0.0,0.0,0.0,0.0,0.0,0.0,0.0,0.0,1.7189,1.714,1.5755,1.5023,0.0,0.0,1.7683,1.8734,1.9452,1.9931,1.9912,0.0,0.0,0.0,0.0,0.0,0.0,0.0,0.0,0.0,0.0,0.0,0.0,0.0,0.0,0.0,0.0,0.0,0.0,0.0,0.0,0.0,0.0,0.0,0.0,0.0,0.0,0.0,0.0,0.0,0.0,0.0,0.0,0.0,0.0,0.0,0.0,0.0,0.0,0.0,0.0,0.0,0.0,0.0,0.0,0.0,0.0,0.0,0.0,0.0,0.0,0.0,0.0,0.0,1.7907,1.9198,1.7839,1.691,1.6443,1.5796,1.5197,1.4723,1.4827,1.4752,0.0,0.0,0.0,0.0,0.0,0.0,0.0,0.0,0.0,0.0,0.0,0.0,0.0,0.0,0.0,0.0,0.0,0.0,0.0,0.0,0.0,0.0,0.0,0.0,0.0,0.0,0.0,0.0,1.2061,1.2532,1.3078,0.0,0.0,0.0,0.0,0.0,0.0,0.0,0.0,0.0,0.0,1.7628,1.72,1.6164,0.0,0.0,1.6401,1.7085,1.8486,1.891,1.9241,1.9785,1.98,0.0,0.0,0.0,0.0,0.0,0.0,0.0,0.0,0.0,0.0,0.0,0.0,0.0,0.0,0.0,0.0,0.0,0.0,0.0,0.0,0.0,0.0,0.0,0.0,0.0,0.0,0.0,0.0,0.0,0.0,0.0,0.0,0.0,0.0,0.0,0.0,0.0,0.0,0.0,0.0,0.0,0.0,0.0,0.0,0.0,0.0,0.0,0.0,0.0,0.0,0.0,0.0,1.8217,1.988,1.8312,1.7379,1.714,1.6448,1.5728,1.5025,1.5248,1.5033,0.0,0.0,0.0,0.0,0.0,0.0,0.0,0.0,0.0,0.0,0.0,0.0,0.0,0.0,0.0,0.0,0.0,0.0,0.0,0.0,0.0,0.0,0.0,0.0,0.0,0.0,0.0,0.0,1.304,1.3626,1.4417,0.0,0.0,0.0,0.0,0.0,0.0,0.0,0.0,0.0,0.0,1.784,1.7459,1.6713,1.6329,1.6729,1.6782,1.7301,1.872,1.9065,1.9418,2.0111,0.0,0.0,0.0,0.0,0.0,0.0,0.0,0.0,0.0,0.0,0.0,0.0,0.0,0.0,0.0,0.0,0.0,0.0,0.0,0.0,0.0,0.0,0.0,0.0,0.0,0.0,0.0,0.0,0.0,0.0,1.3219,0.0,0.0,0.0,0.0,0.0,0.0,0.0,0.0,0.0,0.0,0.0,0.0,0.0,0.0,0.0,0.0,0.0,0.0,0.0,0.0,0.0,0.0,0.0,2.0326,1.8177,1.7242,1.7629,1.6905,1.6229,1.5719,1.6186,1.5666,1.398,0.0,0.0,0.0,0.0,0.0,0.0,0.0,0.0,0.0,0.0,0.0,0.0,0.0,0.0,0.0,0.0,0.0,0.0,0.0,0.0,0.0,0.0,0.0,0.0,0.0,0.0,1.1907,1.2722,1.3639,0.0,0.0,0.0,0.0,0.0,0.0,0.0,0.0,0.0,0.0,1.8244,1.7805,1.8031,1.7392,1.7232,1.8161,1.8317,1.8706,1.978,2.0375,2.0858,0.0,0.0,0.0,0.0,0.0,0.0,0.0,0.0,0.0,0.0,0.0,0.0,0.0,0.0,0.0,0.0,0.0,0.0,0.0,0.0,0.0,0.0,0.0,0.0,0.0,0.0,0.0,1.438,1.3968,0.0,0.0,0.0,0.0,0.0,0.0,0.0,0.0,0.0,0.0,0.0,1.7756,1.7704,0.0,0.0,0.0,0.0,0.0,0.0,0.0,0.0,0.0,0.0,0.0,0.0,1.8661,2.0233,1.868,1.7682,1.751,1.7226,1.6741,1.6052,1.6195,1.5737,1.4543,0.0,0.0,0.0,0.0,0.0,0.0,0.0,0.0,0.0,0.0,0.0,0.0,0.0,0.0,0.0,0.0,0.0,0.0,0.0,0.0,0.0,0.0,0.0,0.0,0.0,1.3242,0.0,0.0,0.0,0.0,0.0,0.0,0.0,0.0,0.0,0.0,0.0,1.8701,1.8962,1.8754,1.8382,1.7911,1.7764,1.7758,0.0,0.0,0.0,0.0,0.0,0.0,0.0,0.0,0.0,0.0,0.0,0.0,0.0,0.0,2.2688,2.1514,2.1309,2.1241,2.1003,0.0,0.0,0.0,0.0,0.0,0.0,0.0,0.0,0.0,0.0,0.0,0.0,0.0,0.0,1.4629,0.0,1.4989,0.0,0.0,0.0,0.0,0.0,0.0,0.0,0.0,1.7313,1.7529,1.7674,1.7534,1.7626,0.0,1.7167,1.7278,0.0,0.0,0.0,0.0,0.0,0.0,0.0,0.0,1.885,2.0153,1.8807,1.7935,1.7684,1.7676,1.734,1.6637,1.6269,1.5793,1.5083,1.4488,1.3934,0.0,0.0,0.0,0.0,0.0,0.0,0.0,0.0,0.0,0.0,0.0,0.0,0.0,0.0,0.0,0.0,0.0,0.0,0.0,0.0,0.0,0.0,0.0,1.3987,0.0,0.0,0.0,0.0,0.0,0.0,0.0,0.0,0.0,1.8538,1.8603,1.8743,1.8843,1.8852,1.8707,1.8306,0.0,0.0,0.0,0.0,0.0,0.0,0.0,2.1164,2.1773,2.0976,2.0272,2.0367,2.1019,2.1693,2.2272,0.0,0.0,2.1954,2.1793,2.1717,2.151,2.1802,2.1969,2.1552,2.2206,2.269,0.0,0.0,0.0,0.0,0.0,0.0,0.0,0.0,1.4087,1.4083,0.0,1.4984,0.0,0.0,0.0,0.0,0.0,1.7113,0.0,0.0,1.7753,1.775,1.7347,1.7753,1.8029,1.8072,1.8019,1.7995,1.7997,1.7397,0.0,0.0,0.0,0.0,0.0,0.0,1.9186,1.9913,1.8544,1.7927,1.8154,1.8187,1.7942,1.7403,1.6436,1.5833,1.562,1.5566,1.4906,1.3481,1.409,0.0,0.0,0.0,0.0,0.0,0.0,0.0,0.0,0.0,0.0,0.0,0.0,0.0,0.0,0.0,0.0,0.0,0.0,0.0,0.0,1.3564,0.0,0.0,0.0,0.0,0.0,0.0,0.0,0.0,0.0,0.0,1.835,1.8625,1.8842,1.8726,0.0,0.0,0.0,0.0,1.9326,1.9274,1.9975,2.0547,2.0765,2.1307,2.178,2.1947,0.0,0.0,2.026,2.0642,2.1216,2.1927,2.2073,2.2198,2.2533,2.2594,2.2638,2.2606,2.2418,2.2398,2.2589,2.2432,2.2335,1.173,0.0,0.0,0.0,0.0,1.3701,1.4355,1.4598,1.4984,1.4712,1.4009,1.4261,0.0,0.0,0.0,0.0,0.0,0.0,1.7266,1.7275,1.6657,1.6714,1.7265,1.6691,1.6775,1.7504,1.7146,1.6951,1.6938,1.6764,1.732,1.8606,0.0,0.0,0.0,0.0,1.9061,1.9452,1.8413,1.7839,1.7922,1.7916,1.7841,1.7683,1.6891,1.62,1.5617,1.5595,1.4923,1.3481,1.4107,0.0,0.0,0.0,0.0,0.0,0.0,0.0,0.0,0.0,0.0,0.0,0.0,0.0,0.0,0.0,0.0,0.0,0.0,0.0,1.4539,1.4391,1.4704,0.0,0.0,0.0,0.0,0.0,0.0,0.0,0.0,0.0,1.8875,1.8817,1.9241,0.0,0.0,1.9586,1.9892,2.0068,1.9904,1.9206,0.0,0.0,0.0,2.0748,2.1086,2.1756,2.1099,2.0545,2.0671,2.0545,2.0553,2.091,2.1387,2.1742,2.1675,2.2231,2.2608,2.2457,2.2339,2.2314,2.2388,2.2332,2.2313,1.2067,1.1839,1.2286,1.2435,1.2519,1.3794,1.4384,1.4501,1.5264,1.5114,1.4351,1.475,1.4475,1.3727,1.4693,0.0,0.0,0.0,1.6982,1.6959,1.6086,1.6041,1.6599,1.5995,1.6041,1.6636,1.6557,1.6513,1.6513,1.6513,1.7084,1.8253,0.0,0.0,1.9961,1.9217,1.8993,1.9328,1.8351,1.7794,1.7794,1.7794,1.7794,1.7783,1.7366,1.6801,1.6079,1.6328,1.5798,1.4353,1.4979,1.4919,0.0,0.0,0.0,0.0,0.0,0.0,0.0,0.0,0.0,0.0,0.0,1.2355,0.0,0.0,0.0,0.0,1.3328,1.4397,1.5739,1.556,0.0,0.0,0.0,0.0,0.0,0.0,0.0,1.9815,2.0232,2.0203,1.9427,1.9086,1.9184,1.9883,1.9704,1.9574,1.9823,0.0,1.9721,1.9182,1.974,2.0298,2.0466,2.0342,2.0318,2.0486,2.0034,1.9644,1.9777,1.9514,1.9416,1.9786,2.0224,2.0659,2.1117,2.1718,2.2182,2.2284,2.2313,2.2313,2.2313,2.2313,2.2313,1.2498,1.1898,1.1888,1.1851,1.1938,1.3295,1.3885,1.3982,1.5109,1.5303,1.4889,1.5908,1.5766,1.4812,1.5354,0.0,1.6513,1.6513,1.6497,1.6412,1.5881,1.564,1.564,1.563,1.5666,1.5716,1.6235,1.6513,1.6513,1.6513,1.6774,1.7302,1.7847,1.8584,1.9465,1.9076,1.8998,1.9348,1.8361,1.7817,1.7794,1.7777,1.7749,1.7766,1.7766,1.7406,1.6676,1.7383,1.7113,1.5667,1.6289,1.6062,1.468,0.0,0.0,0.0,0.0,0.0,0.0,0.0,0.0,0.0,0.0,0.0,0.0,0.0,0.0,0.0,1.4049,0.0,1.6957,1.6918,0.0,0.0,0.0,1.829,1.8134,1.8568,1.8915,1.8941,0.0,0.0,1.9879,0.0,1.8842,1.8582,1.8833,1.9117,1.9311,1.9225,1.912,1.919,1.9498,1.9855,2.0144,1.993,1.9484,1.8917,1.8391,1.8337,1.831,1.8114,1.8167,1.8706,1.8867,1.9359,2.0833,2.1157,2.1437,2.2168,2.2313,2.2313,2.232,2.2338,2.237,1.2798,1.2632,1.2642,1.232,1.195,1.3736,1.426,1.4004,1.5109,1.5303,1.4823,1.5044,1.5208,1.5399,1.5543,1.5919,1.6513,1.6513,1.6274,1.5856,1.5326,1.5095,1.5085,1.5085,1.5311,1.5706,1.6258,1.6513,1.6513,1.6513,1.6774,1.7302,1.7837,1.8424,1.9032,1.9103,1.9045,1.8952,1.8427,1.8061,1.78,1.7549,1.7432,1.7409,1.7432,1.6944,1.6005,1.7126,1.6992,1.5359,1.6174,1.6299,1.5392,1.4558,0.0,0.0,0.0,0.0,0.0,0.0,0.0,0.0,0.0,1.4003,1.3482,0.0,1.4531,0.0,1.5561,1.6644,1.7793,1.7687,0.0,0.0,1.8904,1.862,1.8307,1.9134,1.9591,1.9327,1.9629,1.9683,1.9214,1.9189,1.8969,1.8396,1.8888,1.9402,1.9628,1.9654,1.9394,1.8909,1.8844,1.8922,1.9049,1.8963,1.8825,1.8635,1.8528,1.8435,1.8216,1.8163,1.8103,1.8121,1.854,1.9232,2.0145,2.0768,2.1437,2.2117,2.2313,2.2313,2.232,2.245,2.2619,1.2915,1.2915,1.2915,1.2666,1.2408,1.4028,1.4384,1.4015,1.5395,1.5694,1.5191,1.5132,1.5432,1.5975,1.572,1.593,1.6489,1.6513,1.621,1.5668,1.5148,1.4884,1.4884,1.4884,1.5185,1.5716,1.6247,1.6513,1.6513,1.6513,1.6763,1.7302,1.7847,1.837,1.8892,1.9101,1.9227,1.9282,1.8817,1.8247,1.7606,1.7408,1.7242,1.7099,1.736,1.7169,1.6453,1.7454,1.7422,1.6182,1.6797,1.6771,1.5923,1.5243,1.4701,0.0,0.0,0.0,0.0,0.0,0.0,0.0,0.0,0.0,0.0,0.0,1.4767,1.5364,1.6203,1.7203,1.8408,1.8387,1.8653,1.952,1.9335,1.8978,1.8609,1.8956,1.911,1.8734,1.8885,1.8865,1.846,1.8552,1.8487,1.8059,1.84,1.8837,1.9172,1.9172,1.8969,1.8641,1.84,1.8253,1.824,1.8338,1.8393,1.8252,1.8239,1.8182,1.8057,1.8016,1.7979,1.7884,1.841,1.9129,1.9858,2.0636,2.1427,2.2066,2.2313,2.2313,2.231,2.2436,2.254,1.2915,1.2915,1.299,1.3017,1.3101,1.4294,1.4496,1.4115,1.577,1.6235,1.5811,1.5747,1.6019,1.6468,1.5953,1.6008,1.65,1.6513,1.6222,1.568,1.5223,1.4959,1.4884,1.4969,1.5238,1.5706,1.6235,1.6513,1.6511,1.6573,1.6856,1.7415,1.7923,1.8477,1.8977,1.9189,1.9401,1.9672,1.9159,1.8376,1.7383,1.7394,1.7273,1.7018,1.7557,1.7722,1.7483,1.8036,1.8136,1.7621,1.7809,1.7476,1.6554,1.6098,1.5575,0.0,1.4516,0.0,0.0,0.0,0.0,0.0,0.0,0.0,0.0,1.4555,1.4693,1.5945,1.6625,1.7523,1.8798,1.8899,1.9147,1.9765,1.9461,1.9077,1.8801,1.8448,1.8128,1.7839,1.7794,1.7794,1.7828,1.7794,1.7794,1.7811,1.7839,1.8061,1.8378,1.8325,1.8263,1.8474,1.8103,1.7856,1.7856,1.8015,1.8089,1.785,1.7839,1.7794,1.7817,1.7929,1.7963,1.8036,1.8604,1.9304,2.002,2.0728,2.1421,2.2151,2.2313,2.2313,2.2317,2.2415,2.2484,1.2915,1.2932,1.3421,1.3647,1.3732,1.4915,1.5106,1.4631,1.594,1.6448,1.635,1.6343,1.6391,1.6489,1.638,1.6391,1.6513,1.6513,1.621,1.5683,1.559,1.5324,1.4934,1.5339,1.5603,1.5731,1.6235,1.6513,1.6523,1.693,1.7412,1.7933,1.8487,1.9015,1.9515,0.0,0.0,0.0,1.8725,1.8467,1.7758,1.793,1.8,1.7942,1.8058,0.0,1.8211,1.8526,1.8822,1.9065,1.878,0.0,0.0,0.0,0.0,0.0,0.0,0.0,0.0,0.0,0.0,0.0,1.4959,1.4621,1.4869,1.5713,1.6569,1.7349,1.8064,1.8601,1.8872,1.8899,1.8944,1.9063,1.8507,1.808,1.7997,1.7956,1.7866,1.7811,1.7794,1.7794,1.7794,1.7794,1.7794,1.7794,1.7794,1.7845,1.7938,1.7922,1.7905,1.7944,1.7855,1.7794,1.7794,1.785,1.79,1.78,1.7794,1.7828,1.7912,1.8345,1.8676,1.871,1.9311,2.0036,2.0796,2.111,2.1454,2.2144,2.2313,2.2313,2.231,2.2693,2.3033,1.2915,0.0,1.3226,1.3539,0.0,1.4778,1.5152,1.5197,1.6107,1.6513,1.6513,1.6513,1.6513,1.6513,1.6513,1.6513,1.6513,1.6513,1.621,1.5695,1.5683,1.5552,1.5321,1.5565,1.5831,1.6097,1.6385,1.6513,1.6522,1.6774,1.7322,1.8082,1.8394,1.8912,1.969,1.9723,1.9366,1.8701,1.8789,1.8439,1.759,1.7373,1.7192,1.7029,0.0,0.0,0.0,0.0,0.0,0.0,0.0,0.0,0.0,0.0,0.0,1.6316,1.5664,1.5432,1.5769,1.5477,1.5447,1.5769,1.5492,1.5281,1.5306,1.6222,1.6943,1.7282,1.7958,1.8288,1.8136,1.8254,1.8294,1.8102,1.7772,1.7601,1.7749,1.7653,1.7631,1.7772,1.7794,1.7794,1.7794,1.7794,1.7794,1.7794,1.7794,1.7794,1.7794,1.7794,1.7794,1.7794,1.7794,1.7794,1.7794,1.7794,1.7952,1.8228,1.8346,1.8499,1.8825,1.9182,1.9438,1.9493,2.0058,2.0759,2.1096,2.1493,2.1847,2.2185,2.2313,2.2313,2.2303,2.2555,2.2794,1.3049,1.3133,1.3369,1.3776,1.4272,1.4862,1.5418,1.5894,0.0,0.0,0.0,1.6513,1.6513,1.6513,1.6513,1.6513,1.6513,1.6513,1.626,1.5854,1.5844,1.5831,1.5844,1.5844,1.6072,1.6488,1.6513,1.6513,1.6511,1.6607,1.7136,1.8023,1.8204,1.8727,1.9645,1.9723,1.9556,1.9301,1.9116,1.848,1.7414,1.6961,1.654,1.6151,1.66,1.6811,1.669,1.7591,1.7953,1.7642,1.8238,1.8216,1.7392,1.7244,1.6946,1.6415,1.6115,1.5964,1.5964,1.5949,1.5926,1.5814,1.5896,1.594,1.5892,1.6387,1.6763,1.6879,1.743,1.7682,1.7414,1.763,1.767,1.7337,1.7248,1.7338,1.7636,1.7479,1.7451,1.7727,1.7794,1.7794,1.7794,1.7794,1.7794,1.7794,1.7794,1.7794,1.7794,1.7794,1.7794,1.7794,1.7794,1.7794,1.7811,1.7969,1.8228,1.8735,1.8978,1.931,1.9818,2.0125,2.0201,2.0215,2.0868,2.1319,2.1439,2.186,2.2289,2.2313,2.2313,2.2313,2.2313,2.2422,2.2593,1.362,1.4034,1.5243,1.5799,1.5913,1.6518,1.6798,1.686,1.6612,1.6513,1.6513,1.6513,1.6513,1.6513,1.6513,1.6513,1.6513,1.6513,1.645,1.6375,1.6387,1.6398,1.6385,1.6398,1.6425,1.65,1.6513,1.6513,1.6554,1.6964,1.7504,1.81,1.8564,1.9104,1.9663,1.9723,1.9675,1.9629,1.9603,1.8961,1.7689,1.8103,1.8063,1.7482,1.7504,1.7734,1.8082,1.7897,1.8084,1.8706,1.8175,1.7695,1.7391,1.7015,1.675,1.6646,1.6585,1.657,1.657,1.6577,1.6353,1.5903,1.6271,1.6465,1.626,1.6315,1.6604,1.7167,1.7607,1.7788,1.7745,1.7789,1.7695,1.7359,1.7059,1.7018,1.7409,1.7404,1.7496,1.7822,1.7794,1.7862,1.7929,1.7896,1.7935,1.7845,1.8031,1.7862,1.7929,1.7794,1.7794,1.7794,1.7794,1.7794,1.8003,1.8386,1.8798,1.8866,1.9496,1.9906,2.0154,2.0655,2.101,2.1029,2.1586,2.2035,2.2112,2.22,2.2364,2.2398,2.2422,2.2431,2.2489,2.2861,2.315,1.3938,1.4161,1.4799,1.5502,1.6265,1.7278,1.7677,1.7689,1.7502,1.7427,1.7427,1.7427,1.7438,1.7427,1.7427,1.7403,1.7427,1.7426,1.7287,1.7024,1.7276,1.7251,1.7036,1.7276,1.7427,1.7403,1.7438,1.7427,1.7426,1.7672,1.8216,1.9083,1.9959,2.0364,2.0249,2.0234,2.0077,1.9699,1.9337,1.8853,1.8243,1.8177,1.8012,1.7713,1.7699,1.7772,1.8011,1.8173,1.8429,1.8818,1.8812,1.842,1.7616,1.7363,1.6939,1.6278,1.6211,1.6211,1.6219,1.6525,1.6734,1.6832,1.7078,1.7208,1.7068,1.7216,1.7563,1.8088,1.8281,1.8359,1.8388,1.8354,1.8196,1.7825,1.7639,1.7718,1.8045,1.8128,1.8296,1.8622,1.8874,1.8989,1.8982,1.8988,1.9,1.8994,1.8994,1.8977,1.8972,1.8984,1.8825,1.8505,1.8729,1.8977,1.8994,1.9247,1.9648,2.0044,2.0422,2.0798,2.113,2.161,2.1756,2.1803,2.2097,2.2269,2.233,2.2641,2.2827,2.2929,2.3265,2.3434,2.3545,2.3789,2.3872,1.4305,1.4397,1.4757,1.5511,1.6641,1.7983,1.8386,1.8105,1.8398,1.8543,1.8531,1.8311,1.8186,1.8192,1.8192,1.818,1.8192,1.8192,1.7965,1.765,1.8003,1.7978,1.765,1.8016,1.8192,1.8192,1.8192,1.8192,1.8192,1.8192,1.8783,1.9926,2.1097,2.143,2.0937,2.094,2.0591,1.9947,1.9403,1.8995,1.8685,1.8192,1.7855,1.7705,1.7699,1.7699,1.772,1.8192,1.8476,1.8499,1.8963,1.8762,1.7811,1.77,1.7249,1.6353,1.6226,1.6218,1.6256,1.6667,1.716,1.7652,1.784,1.7931,1.7947,1.8305,1.8563,1.8732,1.8728,1.8783,1.8806,1.8781,1.8616,1.8246,1.8115,1.8237,1.8725,1.8866,1.9079,1.9461,1.983,1.9958,1.9987,1.9985,1.9934,1.99,1.9985,1.9985,2.0012,2.0127,1.9986,1.9685,1.9765,1.9885,2.0004,2.0177,2.0494,2.1156,2.1343,2.1624,2.205,2.2262,2.2416,2.2464,2.2551,2.2733,2.2827,2.3248,2.3603,2.3688,2.4009,2.4449,2.4635,2.4703,2.4743,1.4932,1.5465,1.6601,1.7337,1.756,1.8979,1.8876,1.794,1.9056,1.966,1.9509,1.864,1.824,1.8182,1.823,1.8242,1.8242,1.8192,1.8191,1.8141,1.8167,1.8179,1.8141,1.8216,1.8192,1.823,1.8242,1.8292,1.828,1.8279,1.8796,1.9912,2.1111,2.1695,2.1619,2.16,2.1282,2.0623,2.0538,1.9918,1.8783,1.8642,1.8326,1.7713,1.7705,1.7699,1.7788,1.7765,1.781,1.7795,1.7915,1.787,1.7735,1.7715,1.7647,1.7512,1.7489,1.7519,1.7526,1.7571,1.7652,1.772,1.8296,1.8634,1.8664,1.9195,1.9165,1.8668,1.8613,1.8858,1.8812,1.8824,1.8701,1.8384,1.8086,1.8036,1.8801,1.8881,1.9167,1.988,2.0123,2.0002,2.0168,2.0194,2.0126,2.0244,2.0295,2.0272,2.0297,2.0732,2.1066,2.0852,2.0508,2.013,2.0215,2.067,2.1082,2.1309,2.1769,2.2151,2.2347,2.2446,2.2474,2.3197,2.3294,2.3502,2.3938,2.4397,2.438,2.444,2.4592,2.4762,2.5287,2.549,2.5501,1.5239,1.5464,1.6044,1.6557,1.7121,1.8528,1.8808,1.838,1.9346,1.9811,1.9747,1.9341,1.9144,1.9133,1.9158,1.9145,1.9158,1.9133,1.897,1.8732,1.9007,1.8982,1.8707,1.902,1.9158,1.9145,1.9158,1.9158,1.922,1.9529,2.0153,2.0978,2.1862,2.2287,2.2283,2.2294,2.1954,2.1306,2.0893,2.0619,2.0408,1.969,1.916,1.8927,1.8873,1.8897,1.8882,1.8873,1.889,1.8882,1.8882,1.8702,1.8296,1.8286,1.8098,1.7749,1.7699,1.787,1.8252,1.829,1.8454,1.8852,1.9136,1.945,1.9836,2.0144,2.0251,2.0276,2.0041,1.9985,2.0193,2.0021,1.9669,1.921,1.916,1.937,1.9663,2.0208,2.0641,2.0936,2.1182,2.1356,2.1353,2.1366,2.1366,2.1366,2.135,2.1275,2.138,2.1661,2.1803,2.182,2.1542,2.1387,2.1373,2.16,2.1827,2.1904,2.2083,2.2364,2.2835,2.2953,2.3192,2.3924,2.402,2.4128,2.4345,2.4914,2.5135,2.5211,2.5625,2.5929,2.6209,2.6251,2.6242,1.5601,1.5606,1.5673,1.6007,1.6609,1.7866,1.8407,1.8476,1.9176,1.9705,2.0037,2.0037,2.0138,2.0213,1.9962,1.9811,1.9811,1.9811,1.9597,1.9296,1.9622,1.9673,1.9522,1.9849,2.0138,2.025,2.0275,2.0263,2.0317,2.0745,2.1317,2.1945,2.2468,2.279,2.295,2.2957,2.2618,2.1989,2.147,2.1395,2.1525,2.0747,2.0163,1.9992,1.9789,1.9723,1.9723,1.9723,1.9723,1.9708,1.9723,1.9474,1.9023,1.8966,1.8747,1.8316,1.826,1.8454,1.8942,1.8972,1.9265,1.9878,1.9959,2.0258,2.0802,2.0967,2.1291,2.1779,2.153,2.1335,2.1313,2.1156,2.0756,2.034,2.062,2.0898,2.1106,2.1771,2.2276,2.2397,2.2699,2.2801,2.2632,2.2388,2.2195,2.2195,2.2245,2.2438,2.2561,2.2599,2.2645,2.2852,2.2912,2.2803,2.2641,2.232,2.2388,2.2598,2.2658,2.2852,2.3349,2.3468,2.3941,2.4601,2.4734,2.5008,2.5345,2.5738,2.5922,2.6015,2.6344,2.6818,2.6962,2.697,2.7123,1.6065,1.6102,1.6335,1.6445,1.6588,1.7371,1.7694,1.7885,1.8533,1.9491,2.0576,2.0654,2.0943,2.1267,2.0351,1.9836,1.9836,1.9899,1.9886,1.9823,1.9861,2.0125,2.0616,2.0654,2.0905,2.1242,2.1252,2.1291,2.136,2.1497,2.1908,2.2531,2.271,2.3005,2.3489,2.358,2.3261,2.2703,2.2528,2.2303,2.1799,2.1645,2.1231,2.0722,2.0064,1.9789,1.9753,1.9738,1.9738,1.9723,1.9747,1.9702,1.9645,1.9639,1.9621,1.9609,1.9609,1.9624,1.9684,1.9723,1.9983,2.0533,2.0643,2.0946,2.157,2.165,2.1949,2.2598,2.2583,2.2319,2.1869,2.1739,2.1619,2.1558,2.1957,2.2349,2.2837,2.3167,2.3899,2.4118,2.4133,2.3925,2.3393,2.2726,2.254,2.2489,2.2405,2.2624,2.3219,2.3361,2.3597,2.4037,2.4195,2.4135,2.3468,2.3054,2.2895,2.3105,2.3366,2.3451,2.3637,2.3972,2.4706,2.5279,2.5459,2.5811,2.637,2.6649,2.67,2.6776,2.6869,2.719,2.7689,2.7739,2.7885,1.6469,1.6484,1.6595,1.6622,1.6713,1.742,1.8035,1.8617,1.9321,2.0225,2.1098,2.1206,2.1319,2.1469,2.1066,2.0878,2.0891,2.0878,2.0892,2.0891,2.0878,2.1005,2.1182,2.1217,2.129,2.1455,2.1476,2.1478,2.1509,2.1529,2.2141,2.3064,2.3263,2.3612,2.4126,2.4246,2.3928,2.3306,2.2902,2.2763,2.2827,2.2113,2.1764,2.1934,2.1321,2.0776,2.0363,2.0737,2.0597,1.9753,2.0086,2.0142,1.9792,2.0103,2.0548,2.0923,2.0971,2.0986,2.0996,2.0971,2.1066,2.1291,2.1335,2.1645,2.2183,2.2348,2.2598,2.3137,2.3276,2.3112,2.2921,2.2588,2.228,2.2204,2.2284,2.2605,2.3032,2.3493,2.3844,2.3998,2.4247,2.4372,2.4169,2.3857,2.3722,2.3722,2.3705,2.3814,2.4006,2.4112,2.4242,2.442,2.4522,2.4592,2.4907,2.4212,2.3857,2.3958,2.4152,2.4432,2.4669,2.4872,2.5493,2.5951,2.6158,2.6302,2.6776,2.7275,2.7385,2.7884,2.796,2.7935,2.851,2.8535,2.8673,1.684,1.6707,1.6697,1.6697,1.6744,1.7233,1.7898,1.8738,1.95,2.0408,2.1254,2.1631,2.1859,2.1995,2.2006,2.202,2.197,2.1683,2.1481,2.1481,2.1481,2.1608,2.1735,2.1763,2.1863,2.1995,2.2012,2.2014,2.1979,2.1845,2.2375,2.3418,2.357,2.3913,2.4496,2.4789,2.4676,2.4212,2.3845,2.386,2.4073,2.3195,2.2836,2.3146,2.2662,2.1904,2.1086,2.1263,2.1124,2.0494,2.058,2.0587,2.0438,2.0777,2.1223,2.163,2.169,2.1704,2.1704,2.1704,2.1794,2.2004,2.2034,2.2348,2.3161,2.3295,2.3625,2.4073,2.4253,2.4238,2.4163,2.389,2.3405,2.2958,2.289,2.3204,2.372,2.421,2.4545,2.4763,2.4858,2.489,2.4821,2.4609,2.4481,2.4515,2.4515,2.4549,2.4803,2.486,2.4976,2.515,2.5307,2.5527,2.5736,2.5423,2.4889,2.4923,2.4855,2.5227,2.5473,2.5727,2.6073,2.653,2.6784,2.6852,2.719,2.7757,2.8315,2.8925,2.884,2.8679,2.9051,2.9339,2.9521,1.7148,1.6794,1.6716,1.6794,1.684,1.6989,1.7262,1.8106,1.8961,2.0155,2.1221,2.1947,2.2546,2.2932,2.2907,2.302,2.2794,2.2056,2.1669,2.1683,2.1631,2.1882,2.227,2.2308,2.2522,2.2935,2.3045,2.303,2.2932,2.2535,2.2701,2.3275,2.3594,2.3947,2.4507,2.5072,2.544,2.5242,2.5138,2.5327,2.549,2.4723,2.4421,2.4414,2.3851,2.3003,2.1854,2.1213,2.1114,2.1396,2.0981,2.103,2.1377,2.1626,2.1724,2.1794,2.1764,2.1779,2.1809,2.1899,2.2308,2.2707,2.2793,2.3377,2.4286,2.4522,2.4754,2.5236,2.5382,2.548,2.5435,2.5345,2.4867,2.3936,2.403,2.4493,2.5,2.5614,2.6133,2.6312,2.5973,2.5642,2.5473,2.516,2.4863,2.4829,2.4795,2.4974,2.5498,2.5609,2.5912,2.6343,2.6336,2.626,2.6497,2.6623,2.6167,2.5812,2.5693,2.5761,2.5896,2.6116,2.6496,2.6928,2.7351,2.7486,2.8155,2.8688,2.9018,2.9441,2.9322,2.9491,2.9813,3.0142,3.0395,1.7718,1.7617,1.7607,1.7591,1.7674,1.8232,1.8652,1.8987,2.0366,2.1243,2.1738,2.2488,2.2942,2.307,2.3095,2.3095,2.307,2.2719,2.2594,2.2569,2.2583,2.2659,2.2809,2.2836,2.2924,2.307,2.3095,2.3095,2.307,2.2935,2.3231,2.3862,2.4029,2.4191,2.4419,2.4651,2.4599,2.4173,2.4593,2.4605,2.4243,2.4907,2.5067,2.4582,2.4316,2.4022,2.3657,2.2648,2.1751,2.1123,2.0864,2.0884,2.1195,2.1923,2.2374,2.244,2.2795,2.2996,2.3071,2.3404,2.3723,2.4033,2.4388,2.483,2.5209,2.5283,2.5392,2.5607,2.5607,2.56,2.56,2.56,2.5379,2.4889,2.5006,2.5108,2.5342,2.5752,2.6183,2.6581,2.6496,2.637,2.6336,2.604,2.5955,2.5921,2.5938,2.6124,2.6268,2.641,2.6368,2.6683,2.6708,2.6809,2.6869,2.6826,2.6488,2.6251,2.6201,2.6133,2.626,2.6573,2.6945,2.7436,2.7842,2.8359,2.9045,2.9536,2.9839,3.0219,3.0422,3.0598,3.0784,3.0903,3.097,1.8008,1.8008,1.8008,1.8008,1.8059,1.8603,1.9027,1.9464,2.0798,2.1596,2.2002,2.2747,2.3095,2.3095,2.3095,2.3095,2.3095,2.3095,2.3095,2.3095,2.3095,2.3095,2.3095,2.3095,2.3095,2.3095,2.3095,2.3095,2.3095,2.311,2.3365,2.3783,2.4134,2.4309,2.4394,2.4641,2.4515,2.4292,2.4892,2.4891,2.4485,2.5068,2.5228,2.4557,2.4233,2.4122,2.4098,2.3398,2.2545,2.1663,2.1459,2.157,2.1882,2.283,2.3395,2.3519,2.3959,2.4332,2.4391,2.4706,2.4963,2.5038,2.5364,2.5718,2.5883,2.5955,2.6034,2.6298,2.6377,2.6345,2.6363,2.6348,2.6196,2.5849,2.5604,2.5665,2.5898,2.6437,2.7005,2.7466,2.7588,2.7427,2.7199,2.7105,2.6979,2.6835,2.6945,2.7105,2.7173,2.7394,2.7445,2.7402,2.7343,2.7343,2.7165,2.6962,2.6733,2.664,2.659,2.6539,2.6573,2.6987,2.7402,2.8199,2.8723,2.911,2.9736,3.0236,3.0615,3.1021,3.119,3.1123,3.1038,3.1072,3.1166,1.8008,1.8008,1.8008,1.8008,1.8025,1.8168,1.8654,1.9365,2.0381,2.1239,2.197,2.2747,2.3095,2.3108,2.3195,2.3246,2.3183,2.3333,2.3371,2.3346,2.3321,2.3296,2.3133,2.3195,2.3208,2.3108,2.3246,2.3258,2.3258,2.3246,2.3145,2.3374,2.3876,2.4205,2.4215,2.4909,2.4996,2.4942,2.5724,2.5697,2.5066,2.5379,2.5147,2.4433,2.3887,2.3624,2.3668,2.3566,2.329,2.2797,2.2694,2.2935,2.353,2.4197,2.4542,2.4501,2.5201,2.542,2.5528,2.5573,2.5659,2.5659,2.5839,2.5964,2.6546,2.6663,2.6826,2.7305,2.7393,2.7465,2.745,2.7435,2.7185,2.6759,2.6247,2.6319,2.7169,2.7745,2.8173,2.8666,2.8918,2.8713,2.7951,2.7883,2.7579,2.7317,2.7545,2.779,2.7961,2.8271,2.8793,2.8622,2.8117,2.8015,2.7877,2.7351,2.7131,2.7055,2.697,2.6877,2.714,2.7656,2.8174,2.8938,2.9553,2.9929,3.0292,3.0741,3.0987,3.1123,3.119,3.119,3.119,3.119,3.1533,1.8008,1.8008,1.8008,1.8008,1.811,1.8654,1.9061,1.9497,2.0878,2.1553,2.2056,2.2747,2.311,2.3158,2.3572,2.3778,2.3838,2.4152,2.4349,2.4352,2.4336,2.3822,2.3358,2.3549,2.3534,2.329,2.3857,2.4152,2.3803,2.3712,2.3738,2.3753,2.3523,2.3454,2.3471,2.3706,2.3695,2.3813,2.4509,2.4553,2.4079,2.49,2.5053,2.437,2.4111,2.4053,2.4092,2.3784,2.3583,2.3502,2.3916,2.3942,2.3852,2.4713,2.5155,2.4949,2.531,2.5644,2.5734,2.6078,2.633,2.6393,2.6692,2.7151,2.7308,2.7328,2.7408,2.7585,2.7585,2.7585,2.7585,2.7585,2.7652,2.7897,2.729,2.715,2.7853,2.8388,2.8839,2.8963,2.9057,2.8939,2.8772,2.8662,2.8561,2.8391,2.8476,2.867,2.8766,2.8946,2.9372,2.9102,2.8764,2.8722,2.851,2.7935,2.7579,2.7469,2.7342,2.7182,2.7775,2.8591,2.9189,2.9857,3.0242,3.0639,3.0809,3.1089,3.1173,3.119,3.119,3.119,3.1207,3.1261,3.1883,1.8008,1.8008,1.8008,1.8008,1.8059,1.8546,1.8944,1.9473,2.0494,2.1282,2.1761,2.275,2.3182,2.3263,2.3991,2.4327,2.439,2.4666,2.4791,2.4804,2.4766,2.4422,2.3941,2.3821,2.3661,2.3875,2.4266,2.439,2.4293,2.4117,2.4117,2.4142,2.3496,2.3233,2.352,2.3211,2.3095,2.326,2.384,2.3914,2.329,2.428,2.4409,2.3958,2.3811,2.3937,2.4242,2.434,2.4285,2.4185,2.439,2.4556,2.4613,2.5409,2.5808,2.5543,2.6086,2.6479,2.6482,2.6839,2.7001,2.7063,2.7435,2.754,2.757,2.7585,2.7585,2.7585,2.7585,2.7585,2.7585,2.7585,2.7882,2.8295,2.8293,2.8399,2.893,2.9365,2.9667,2.9836,2.9924,2.9771,2.9533,2.9474,2.9288,2.9119,2.923,2.9373,2.9484,2.9677,2.983,2.9724,2.952,2.9456,2.9251,2.8743,2.8281,2.812,2.8154,2.7892,2.8342,2.9271,2.9792,3.0328,3.0852,3.119,3.119,3.119,3.119,3.119,3.119,3.119,3.1207,3.1278,3.1954,1.8008,1.8008,1.8008,1.8008,1.8001,1.8057,1.8657,1.935,1.995,2.0607,2.1464,2.2593,2.3096,2.334,2.3944,2.4619,2.4847,2.4855,2.4969,2.5031,2.5053,2.4881,2.4918,2.4125,2.411,2.4549,2.4325,2.4609,2.472,2.4381,2.4365,2.4377,2.3634,2.3421,2.3549,2.3321,2.3133,2.3213,2.3679,2.3723,2.3303,2.3782,2.3811,2.3395,2.3245,2.3634,2.4285,2.4844,2.514,2.473,2.4754,2.5298,2.5842,2.6358,2.6577,2.6698,2.7083,2.742,2.7525,2.745,2.7555,2.7525,2.754,2.7585,2.7585,2.7585,2.7585,2.7585,2.7585,2.7585,2.7638,2.7635,2.7968,2.8456,2.8952,2.959,3.0076,3.0322,3.0617,3.1075,3.1157,3.0852,3.048,3.0149,2.9997,2.9897,3.0016,3.0151,3.026,3.0429,3.0642,3.0768,3.0504,3.0209,2.9918,2.9557,2.915,2.8865,2.9042,2.9001,2.9027,2.9665,3.0157,3.0629,3.1024,3.119,3.119,3.119,3.119,3.119,3.119,3.119,3.1207,3.1321,3.1778,1.8008,1.8008,1.8008,1.8008,1.8066,1.8332,1.8963,1.9753,2.023,2.0849,2.165,2.2093,2.2639,2.3253,2.3368,2.3927,2.5203,2.5178,2.5357,2.605,2.5598,2.5753,2.5869,2.5284,2.4958,2.5103,2.5665,2.5741,2.5398,2.4904,2.4666,2.4625,2.376,2.3183,2.3283,2.3246,2.3095,2.3125,2.332,2.3335,2.32,2.3275,2.3335,2.3095,2.314,2.3531,2.4278,2.5021,2.5588,2.6072,2.6537,2.6792,2.7008,2.7189,2.7289,2.7345,2.745,2.7585,2.7585,2.7585,2.7585,2.7585,2.7585,2.7585,2.7585,2.7585,2.7585,2.7585,2.7585,2.76,2.77,2.8045,2.8351,2.8671,2.9064,2.9477,2.9717,3.042,3.0935,3.1085,3.1171,3.114,3.0963,3.0886,3.0768,3.071,3.076,3.0929,3.1004,3.1072,3.1123,3.119,3.1038,3.0666,3.0538,3.022,2.9893,2.9627,2.9779,2.9914,2.9958,3.011,3.061,3.0915,3.1116,3.119,3.119,3.119,3.119,3.119,3.122,3.1281,3.1346,3.1419,3.1944,1.8008,1.8008,1.8008,1.8008,1.8076,1.843,1.8869,1.9364,1.9993,2.0529,2.1048,2.1592,2.2221,2.2706,2.3006,2.3943,2.5111,2.5644,2.5978,2.6347,2.6147,2.6223,2.6373,2.6223,2.5837,2.5652,2.5841,2.5979,2.5829,2.5285,2.4917,2.5017,2.381,2.3358,2.3396,2.3258,2.3108,2.3095,2.3095,2.3095,2.3095,2.3095,2.3095,2.3215,2.3439,2.3899,2.4308,2.5384,2.6041,2.659,2.7203,2.7585,2.7585,2.7585,2.7585,2.7585,2.7585,2.7585,2.7585,2.7585,2.7585,2.7585,2.7585,2.7585,2.7585,2.7585,2.7585,2.7585,2.7615,2.7702,2.8062,2.8658,2.894,2.9014,2.9225,2.9518,2.9863,3.0404,3.0787,3.0848,3.1015,3.1124,3.119,3.119,3.1157,3.0937,3.0937,3.1072,3.1089,3.114,3.1157,3.119,3.119,3.1089,3.1038,3.0852,3.0606,3.0456,3.0473,3.0565,3.0642,3.0845,3.1106,3.119,3.119,3.119,3.119,3.119,3.121,3.1242,3.131,3.1401,3.158,3.1783,3.2561,1.8008,1.8008,1.8008,1.8008,1.8076,1.8422,1.8674,1.8877,1.9552,2.0062,2.021,2.1317,2.1778,2.2127,2.2581,2.3624,2.4702,2.544,2.5744,2.6427,2.6131,2.6235,2.6375,2.6424,2.6386,2.6436,2.6105,2.6092,2.608,2.554,2.5222,2.5272,2.4189,2.3672,2.38,2.3521,2.3221,2.3133,2.3095,2.3095,2.3095,2.3095,2.3095,2.3228,2.3796,2.4307,2.4752,2.5673,2.6522,2.6695,2.728,2.7534,2.7585,2.7585,2.7585,2.7585,2.7585,2.7585,2.7585,2.7585,2.7585,2.7585,2.775,2.7773,2.7798,2.7997,2.8109,2.8064,2.8124,2.8274,2.8727,2.9164,2.9444,2.945,2.9415,2.9677,3.0151,3.0288,3.0219,3.0601,3.0948,3.1171,3.119,3.119,3.119,3.119,3.119,3.119,3.119,3.119,3.119,3.119,3.119,3.119,3.114,3.1123,3.0929,3.0896,3.0954,3.0987,3.1072,3.1123,3.119,3.119,3.119,3.119,3.119,3.119,3.1213,3.1291,3.1439,3.1603,3.1863,3.2154,3.2961,1.8008,1.8008,1.8008,1.8008,1.8076,1.8422,1.883,1.9228,1.9688,2.0127,2.0488,2.075,2.1307,2.1678,2.1231,2.2124,2.3526,2.4325,2.5117,2.603,2.5856,2.5804,2.6418,2.6487,2.6487,2.6487,2.6336,2.6373,2.6323,2.5854,2.5448,2.5398,2.4804,2.439,2.3951,2.3853,2.3509,2.3158,2.3095,2.3095,2.3095,2.3095,2.317,2.3288,2.4016,2.4652,2.53,2.6041,2.6787,2.7357,2.7537,2.7587,2.7585,2.7585,2.7615,2.766,2.7615,2.7615,2.7705,2.7647,2.7615,2.772,2.8126,2.8407,2.8557,2.8869,2.8976,2.9112,2.9157,2.9307,2.9398,2.9683,2.9632,2.9509,2.9344,2.9386,3.0117,3.0226,3.0233,3.0934,3.1163,3.119,3.119,3.119,3.119,3.119,3.119,3.119,3.119,3.119,3.119,3.119,3.119,3.119,3.1173,3.1173,3.1106,3.1072,3.1089,3.1089,3.1157,3.1173,3.119,3.119,3.119,3.119,3.119,3.119,3.1361,3.1507,3.166,3.1825,3.2017,3.2243,3.2638,1.8008,1.8008,1.8008,1.8118,1.8305,1.852,1.8996,1.959,1.9805,2.0156,2.0488,2.0625,2.0818,2.1078,2.0857,2.1451,2.2601,2.3963,2.4797,2.5546,2.5751,2.5973,2.6482,2.6487,2.6487,2.6487,2.6487,2.6487,2.6424,2.5891,2.5523,2.5172,2.4892,2.439,2.38,2.3828,2.3625,2.3233,2.3095,2.3095,2.3095,2.3095,2.3245,2.3796,2.4437,2.5217,2.5946,2.6695,2.7216,2.7524,2.7585,2.7585,2.76,2.7645,2.7779,2.8004,2.7824,2.7809,2.8036,2.8111,2.8141,2.8188,2.8727,2.9077,2.9185,2.9389,2.9653,2.9698,2.9968,3.0072,3.0072,3.0356,3.0388,3.0074,2.9769,2.9926,3.0312,3.0442,3.0996,3.1583,3.1459,3.1367,3.119,3.119,3.119,3.119,3.119,3.119,3.119,3.119,3.119,3.119,3.119,3.119,3.119,3.119,3.119,3.119,3.119,3.119,3.119,3.119,3.119,3.119,3.119,3.119,3.12,3.121,3.1477,3.1743,3.2013,3.2179,3.2187,3.2354,3.2729,1.8008,1.8008,1.8008,1.8235,1.8559,1.8598,1.9103,1.9776,1.9883,2.0185,2.0566,2.0605,2.0605,2.0605,2.0731,2.1155,2.2103,2.3727,2.4409,2.5176,2.5699,2.6181,2.6452,2.6487,2.6487,2.6487,2.6487,2.6487,2.6386,2.5891,2.546,2.5281,2.5055,2.4412,2.3822,2.3913,2.3637,2.3283,2.3095,2.3095,2.3095,2.314,2.3367,2.4104,2.4908,2.566,2.6094,2.7034,2.7446,2.7587,2.7585,2.7585,2.7615,2.7735,2.8111,2.8547,2.8141,2.8246,2.8592,2.8815,2.8815,2.883,2.9413,2.9695,2.9871,2.9974,3.0088,3.0073,3.0372,3.0702,3.079,3.1293,3.1387,3.1165,3.101,3.1056,3.1431,3.17,3.2012,3.2194,3.185,3.1722,3.1708,3.1522,3.1589,3.1207,3.119,3.119,3.119,3.119,3.119,3.119,3.119,3.119,3.119,3.119,3.119,3.119,3.119,3.119,3.119,3.119,3.119,3.119,3.119,3.119,3.12,3.1349,3.1668,3.2004,3.2349,3.2501,3.2401,3.2455,3.2738,1.8008,1.8008,1.8008,1.8235,1.8568,1.8598,1.9103,1.9835,1.9912,2.0156,2.0605,2.0596,2.0596,2.0596,2.0596,2.1136,2.1905,2.2571,2.3672,2.488,2.5353,2.5891,2.6401,2.6487,2.6487,2.6487,2.6487,2.6487,2.6386,2.5929,2.5866,2.5891,2.5297,2.4653,2.4315,2.4177,2.3703,2.3221,2.3095,2.3095,2.3095,2.3095,2.32,2.3754,2.4625,2.5591,2.6013,2.6993,2.756,2.7585,2.7585,2.7585,2.769,2.8186,2.8785,2.9069,2.8981,2.8771,2.9325,2.9473,2.9473,2.9578,3.0043,3.0317,3.0495,3.0816,3.1061,3.1271,3.1359,3.1386,3.1511,3.2056,3.2297,3.2338,3.2193,3.2812,3.3316,3.2707,3.3065,3.3373,3.3212,3.2749,3.2496,3.2226,3.1962,3.1522,3.119,3.119,3.119,3.119,3.119,3.119,3.119,3.119,3.119,3.119,3.119,3.119,3.119,3.119,3.119,3.119,3.119,3.119,3.119,3.1259,3.1346,3.1555,3.1898,3.229,3.2705,3.2681,3.2526,3.2641,3.274,1.8008,1.8008,1.8008,1.8235,1.8568,1.8598,1.9095,1.9776,1.9893,2.0156,2.0527,2.0596,2.0596,2.0586,2.0596,2.1106,2.1962,2.2553,2.358,2.4933,2.5541,2.6047,2.6383,2.6487,2.6487,2.6487,2.6487,2.6487,2.6386,2.626,2.6155,2.5917,2.5753,2.5188,2.4556,2.4456,2.3913,2.3384,2.3095,2.3095,2.3095,2.3168,2.3514,2.4323,2.5049,2.5797,2.6604,2.7097,2.7572,2.7585,2.7585,2.7585,2.775,2.8231,2.8876,2.9517,2.9713,2.9819,3.0058,3.0088,3.0117,3.0267,3.0643,3.1059,3.1144,3.1282,3.1496,3.1481,3.1894,3.2078,3.2202,3.2774,3.3008,3.3147,3.3162,3.3375,3.3916,3.405,3.3957,3.4284,3.4515,3.3978,3.3315,3.2666,3.2327,3.1894,3.1454,3.119,3.119,3.119,3.119,3.119,3.119,3.119,3.119,3.119,3.119,3.119,3.119,3.119,3.119,3.119,3.119,3.12,3.121,3.1304,3.1461,3.1731,3.2031,3.2533,3.307,3.285,3.2624,3.2535,3.281,1.8008,1.8008,1.8008,1.8235,1.8598,1.8598,1.9035,1.9698,1.9873,2.0097,2.036,2.0409,2.0419,2.0439,2.0467,2.0905,2.1897,2.2999,2.4054,2.504,2.5921,2.6401,2.6487,2.6487,2.6487,2.6487,2.6487,2.6487,2.6487,2.6411,2.6143,2.5598,2.5234,2.4962,2.4368,2.4051,2.3747,2.3195,2.3095,2.3095,2.314,2.335,2.4032,2.4878,2.5689,2.6443,2.7402,2.8058,2.8156,2.7887,2.7902,2.7931,2.8049,2.8577,2.922,2.9877,3.0328,3.0687,3.0747,3.0762,3.0761,3.0912,3.1091,3.1405,3.1435,3.1496,3.1496,3.1496,3.2134,3.2465,3.2747,3.3287,3.3587,3.3733,3.386,3.3796,3.3857,3.4286,3.4617,3.4867,3.5071,3.5093,3.432,3.3264,3.2655,3.2276,3.1809,3.1309,3.119,3.119,3.119,3.119,3.119,3.119,3.119,3.119,3.119,3.119,3.119,3.119,3.119,3.119,3.119,3.12,3.1222,3.1442,3.1644,3.1908,3.2196,3.2729,3.3101,3.2897,3.2705,3.2567,3.2825,1.8008,1.8008,1.8008,1.8215,1.8578,1.8598,1.8888,1.9355,1.9727,1.9892,1.9997,1.9986,2.0008,2.0008,2.0188,2.0663,2.1568,2.2893,2.4123,2.5152,2.5943,2.6418,2.6487,2.6487,2.6487,2.6487,2.6487,2.6487,2.6449,2.6373,2.6067,2.5586,2.482,2.4117,2.3725,2.3647,2.3459,2.3095,2.3095,2.317,2.338,2.3738,2.4321,2.4887,2.6246,2.7429,2.7594,2.8613,2.9039,2.8575,2.8532,2.8517,2.865,2.916,2.9789,3.0268,3.0912,3.1212,3.1256,3.1271,3.1376,3.1421,3.1451,3.1496,3.1496,3.1496,3.1496,3.1582,3.2189,3.2532,3.296,3.3553,3.3861,3.4105,3.4279,3.4536,3.4628,3.4959,3.5284,3.5476,3.5515,3.5414,3.5103,3.4015,3.3383,3.3004,3.2022,3.1505,3.1241,3.119,3.119,3.119,3.119,3.119,3.119,3.119,3.119,3.119,3.119,3.119,3.119,3.119,3.119,3.1244,3.1307,3.1568,3.183,3.2082,3.2424,3.2919,3.3116,3.288,3.2599,3.2367,3.2803,1.8008,1.8008,1.8008,1.8088,1.8254,1.849,1.8713,1.8927,1.9346,1.9678,1.9911,1.9908,1.989,1.9955,2.0327,2.1078,2.234,2.3399,2.4654,2.5625,2.6332,2.6469,2.6487,2.6487,2.6487,2.6487,2.6487,2.6487,2.6474,2.626,2.5636,2.5017,2.4591,2.4356,2.4054,2.3409,2.3183,2.3145,2.318,2.3275,2.387,2.4118,2.4723,2.5784,2.6622,2.7731,2.8226,2.9073,2.9298,2.9309,2.922,2.9204,2.925,2.9804,3.0222,3.0582,3.1167,3.1436,3.1496,3.1496,3.1496,3.1496,3.1496,3.1496,3.1496,3.1496,3.1496,3.171,3.2176,3.2559,3.2761,3.3404,3.3933,3.4248,3.4543,3.4855,3.5097,3.525,3.5538,3.5538,3.5583,3.5566,3.5188,3.4692,3.4212,3.3715,3.2649,3.1752,3.1488,3.1207,3.119,3.119,3.119,3.119,3.119,3.119,3.119,3.119,3.119,3.119,3.119,3.119,3.1193,3.1266,3.135,3.1513,3.1803,3.221,3.2611,3.3045,3.3052,3.2856,3.2533,3.217,3.2747,1.8008,1.8008,1.8008,1.8008,1.8047,1.8303,1.8412,1.8537,1.9072,1.9638,2.0068,1.9899,1.9724,1.9887,2.0416,2.1324,2.2631,2.3857,2.5184,2.6005,2.6452,2.6487,2.6487,2.6487,2.6487,2.6487,2.6487,2.6487,2.6474,2.6067,2.5536,2.518,2.508,2.4607,2.3813,2.3371,2.323,2.3509,2.3281,2.347,2.409,2.4574,2.514,2.6463,2.7529,2.8543,2.9224,2.9911,3.0074,2.9967,2.9847,2.9861,3.0011,3.0252,3.0566,3.0881,3.1181,3.1481,3.1496,3.1496,3.1496,3.1496,3.1496,3.1496,3.1496,3.1496,3.1496,3.1568,3.2132,3.2586,3.2614,3.3274,3.3505,3.371,3.4025,3.4329,3.4622,3.4827,3.5238,3.5538,3.5583,3.5628,3.5475,3.507,3.4489,3.3874,3.2801,3.2056,3.1819,3.1505,3.119,3.119,3.119,3.119,3.119,3.1224,3.1251,3.119,3.119,3.119,3.119,3.121,3.122,3.1235,3.1331,3.1454,3.1816,3.231,3.2724,3.3142,3.3011,3.2832,3.2298,3.2038,3.2614,1.8008,1.8008,1.8008,1.8008,1.8025,1.8044,1.8081,1.8176,1.89,1.9658,2.0146,1.9628,1.9307,1.956,2.0324,2.1407,2.2546,2.4126,2.5519,2.6282,2.6487,2.6487,2.6487,2.6487,2.6487,2.6487,2.6487,2.6487,2.6487,2.6373,2.5778,2.4967,2.465,2.4239,2.3205,2.313,2.3656,2.4387,2.3544,2.3602,2.4339,2.506,2.5784,2.6802,2.8408,2.959,2.9897,3.0702,3.0822,3.0568,3.036,3.0373,3.0522,3.0462,3.0777,3.1331,3.1421,3.1496,3.1496,3.1496,3.1496,3.1496,3.1496,3.1496,3.1496,3.1496,3.1496,3.1553,3.2064,3.2437,3.2747,3.3026,3.2957,3.3222,3.3559,3.3996,3.432,3.4803,3.5289,3.5538,3.5583,3.5628,3.5628,3.5408,3.4748,3.3947,3.2903,3.2378,3.2242,3.2069,3.1817,3.1799,3.1833,3.1623,3.164,3.1386,3.1302,3.1241,3.1222,3.1274,3.1274,3.1293,3.1283,3.1252,3.1305,3.1411,3.191,3.2461,3.3054,3.3584,3.3096,3.2769,3.2188,3.2096,3.2805,1.8008,1.8008,1.8008,1.8008,1.8093,1.863,1.8563,1.8179,1.8576,1.901,1.9176,1.8904,1.8853,1.9298,2.0465,2.158,2.2514,2.4461,2.5874,2.6405,2.6487,2.6487,2.6474,2.6424,2.6436,2.6491,2.6504,2.6449,2.6487,2.6487,2.5829,2.4996,2.4274,2.3509,2.3209,2.3155,2.3547,2.3987,2.3667,2.3794,2.5274,2.5873,2.6441,2.7231,2.9157,3.0089,3.0163,3.1046,3.1286,3.1034,3.0841,3.0739,3.0901,3.0856,3.0859,3.1348,3.1496,3.1496,3.1496,3.1496,3.1496,3.1496,3.1496,3.1496,3.1496,3.1496,3.1496,3.151,3.1753,3.1951,3.1979,3.2034,3.2145,3.2801,3.3277,3.3912,3.4382,3.502,3.5509,3.5554,3.5628,3.5628,3.5628,3.5628,3.5103,3.4816,3.3975,3.3332,3.3085,3.3005,3.2832,3.2856,3.2797,3.2435,3.2148,3.2012,3.1742,3.1613,3.1536,3.1471,3.1479,3.153,3.1368,3.1325,3.1339,3.1433,3.2232,3.3004,3.3706,3.4009,3.3858,3.3427,3.288,3.2887,3.3308,1.8008,1.8042,1.8337,1.8269,1.811,1.863,1.8566,1.8262,1.8501,1.8673,1.8814,1.8715,1.8829,1.9461,2.0608,2.2001,2.2792,2.4624,2.5925,2.6436,2.6487,2.6348,2.6235,2.6185,2.5954,2.6059,2.6135,2.6172,2.6143,2.6386,2.5954,2.5121,2.4177,2.3988,2.3673,2.3551,2.3658,2.4106,2.4167,2.44,2.5796,2.6706,2.7188,2.8311,2.9538,3.0418,3.0538,3.0928,3.1496,3.1363,3.1187,3.101,3.1216,3.1216,3.1084,3.1392,3.1496,3.1496,3.1496,3.1496,3.1496,3.1496,3.1496,3.1496,3.1496,3.1496,3.1496,3.1496,3.1524,3.1739,3.1881,3.1839,3.2216,3.2882,3.3313,3.3975,3.4443,3.5081,3.5391,3.5475,3.5628,3.5628,3.5628,3.5628,3.5459,3.5306,3.512,3.4512,3.3886,3.372,3.3611,3.3576,3.3484,3.3088,3.2836,3.274,3.2435,3.2036,3.2013,3.207,3.1966,3.2056,3.1723,3.1465,3.1606,3.1947,3.2798,3.3576,3.4279,3.4875,3.5224,3.4613,3.374,3.3565,3.3643,1.8008,1.8117,1.8894,1.8721,1.8093,1.8093,1.8274,1.8607,1.8577,1.8782,1.9159,1.8661,1.8888,1.9863,2.0919,2.2083,2.3318,2.4839,2.564,2.6147,2.6118,2.5917,2.5716,2.5573,2.5423,2.5243,2.5385,2.5816,2.5716,2.6055,2.5984,2.5552,2.4829,2.4566,2.4239,2.4007,2.4154,2.4569,2.4804,2.5285,2.6534,2.7283,2.8067,2.9126,3.0092,3.0735,3.0987,3.1361,3.1481,3.1451,3.1392,3.1422,3.1466,3.1466,3.1466,3.1496,3.1496,3.1496,3.1496,3.1496,3.1496,3.1496,3.1496,3.1496,3.1496,3.151,3.1596,3.1682,3.1795,3.2174,3.2465,3.2654,3.2839,3.3261,3.3598,3.4066,3.4476,3.488,3.5165,3.5355,3.556,3.5628,3.5628,3.5628,3.5628,3.5543,3.5374,3.5171,3.4596,3.4207,3.4088,3.4011,3.388,3.3649,3.3495,3.3436,3.3119,3.2747,3.2973,3.3028,3.285,3.2371,3.1861,3.1652,3.1917,3.2443,3.3236,3.4028,3.4818,3.5341,3.5561,3.5111,3.4025,3.3614,3.3565,1.8008,1.8042,1.8259,1.8219,1.8025,1.8008,1.8417,1.8984,1.8474,1.8274,1.8359,1.824,1.8745,1.9542,2.0831,2.1949,2.3157,2.4234,2.4891,2.5297,2.5473,2.5234,2.5096,2.5005,2.4904,2.5017,2.5247,2.5565,2.5624,2.5891,2.5917,2.5536,2.5205,2.498,2.4791,2.4478,2.4799,2.5089,2.5297,2.6237,2.7268,2.818,2.9002,2.9747,3.0638,3.1062,3.1002,3.1361,3.1451,3.1496,3.104,3.0952,3.1496,3.1113,3.0878,3.1451,3.1496,3.1496,3.1496,3.1496,3.1496,3.1496,3.1496,3.1496,3.1496,3.1582,3.1725,3.1824,3.209,3.2491,3.296,3.3261,3.3508,3.3799,3.4112,3.4459,3.484,3.5073,3.5332,3.5424,3.5616,3.5628,3.5628,3.5628,3.5628,3.5628,3.556,3.5425,3.5256,3.485,3.4647,3.4563,3.4558,3.4398,3.4257,3.4184,3.3812,3.3537,3.3871,3.3813,3.3061,3.2525,3.1935,3.1837,3.2086,3.2764,3.3617,3.4314,3.4862,3.5062,3.5225,3.4857,3.4429,3.3929,3.3553,1.8838,1.858,1.8904,1.8838,1.8546,1.8502,1.8687,1.8687,1.8219,1.8008,1.8008,1.8008,1.867,1.9862,2.0774,2.1853,2.3339,2.4048,2.4644,2.4892,2.4754,2.4682,2.4591,2.4478,2.4453,2.4678,2.5021,2.536,2.5586,2.5879,2.5979,2.5967,2.5577,2.5498,2.5485,2.5506,2.5559,2.5833,2.6256,2.7167,2.8227,2.9257,2.9798,3.0383,3.1241,3.1107,3.0957,3.1376,3.1451,3.1496,3.0996,3.1069,3.1466,3.1128,3.0981,3.1481,3.1496,3.1496,3.1496,3.1496,3.1496,3.1496,3.151,3.1696,3.1725,3.1782,3.1824,3.1894,3.2353,3.2815,3.3352,3.3836,3.4112,3.4394,3.4676,3.4981,3.5196,3.5402,3.5509,3.5566,3.5628,3.5628,3.5628,3.5628,3.5628,3.5628,3.5628,3.5577,3.5509,3.5374,3.5256,3.5211,3.5261,3.5273,3.5081,3.4844,3.4641,3.464,3.5253,3.4907,3.3714,3.3181,3.3069,3.2662,3.2269,3.3099,3.4028,3.4233,3.4647,3.4814,3.4904,3.4643,3.4327,3.3978,3.3666,2.0004,1.9315,2.0074,1.9699,1.9243,1.9077,1.8687,1.8059,1.8025,1.8008,1.8008,1.8008,1.8938,2.021,2.0723,2.1917,2.3076,2.3857,2.4089,2.4653,2.4428,2.4227,2.4017,2.3985,2.4142,2.4249,2.4685,2.5431,2.5753,2.5984,2.6118,2.6424,2.6386,2.6197,2.6009,2.6409,2.6652,2.7096,2.7501,2.8238,2.9491,3.029,3.0733,3.1246,3.1481,3.1436,3.1451,3.1496,3.1496,3.1496,3.1496,3.1466,3.1466,3.1451,3.1466,3.1466,3.1496,3.1496,3.1496,3.1496,3.1496,3.1496,3.151,3.1739,3.1796,3.1965,3.2035,3.2448,3.2931,3.3378,3.3887,3.4423,3.4788,3.497,3.5184,3.5328,3.5424,3.5543,3.5566,3.5628,3.5628,3.5628,3.5628,3.5628,3.5628,3.5628,3.5628,3.5628,3.5628,3.5628,3.5628,3.5628,3.5594,3.556,3.5492,3.534,3.5442,3.5719,3.6122,3.59,3.4614,3.4345,3.4358,3.3546,3.2723,3.3576,3.4337,3.4399,3.4413,3.4566,3.4573,3.4416,3.4149,3.3825,3.3709,1.9497,1.926,1.8821,1.8496,1.8337,1.832,1.8219,1.8008,1.8008,1.8008,1.8008,1.8134,1.8961,2.043,2.0703,2.1761,2.3006,2.3461,2.3409,2.3572,2.3634,2.3712,2.3482,2.373,2.391,2.4309,2.4868,2.5589,2.6047,2.6055,2.5879,2.5929,2.618,2.6361,2.611,2.6688,2.7571,2.8182,2.8903,2.9148,2.9781,3.0764,3.1394,3.1496,3.1496,3.1496,3.1496,3.1496,3.1496,3.1496,3.1496,3.1496,3.1496,3.1496,3.1496,3.1496,3.1496,3.1496,3.1496,3.1496,3.1496,3.1496,3.151,3.1596,3.1782,3.212,3.2516,3.3037,3.3543,3.3962,3.4386,3.4906,3.535,3.5492,3.5628,3.5628,3.5628,3.5628,3.5628,3.5628,3.5628,3.5628,3.5628,3.5628,3.5628,3.5628,3.5628,3.5628,3.5628,3.5628,3.5628,3.5628,3.5628,3.5611,3.5628,3.5628,3.5628,3.5613,3.5828,3.5633,3.5364,3.5058,3.4666,3.3806,3.3312,3.3795,3.4083,3.4167,3.4225,3.4394,3.4524,3.4485,3.3874,3.3439,3.3495,2.0771,2.0365,1.9513,1.8687,1.8134,1.8395,1.8361,1.8042,1.8008,1.8008,1.81,1.8479,1.9359,2.0639,2.0974,2.1725,2.2929,2.3093,2.3183,2.3133,2.3095,2.3158,2.3288,2.3497,2.3747,2.4148,2.4815,2.5506,2.626,2.5992,2.5699,2.5954,2.6336,2.637,2.6169,2.7174,2.8182,2.8973,2.9904,3.0232,3.0178,3.104,3.1496,3.1496,3.1496,3.1496,3.1496,3.1496,3.1496,3.1496,3.1496,3.1496,3.1496,3.1496,3.1496,3.1496,3.1496,3.1496,3.1496,3.1524,3.1524,3.151,3.151,3.1596,3.265,3.2973,3.2747,3.3235,3.395,3.4423,3.4616,3.5052,3.5373,3.5577,3.5628,3.5628,3.5628,3.5628,3.5628,3.5628,3.5628,3.5628,3.5628,3.5628,3.5628,3.5628,3.5628,3.5628,3.5628,3.5628,3.5628,3.5628,3.5628,3.5628,3.5628,3.5628,3.5628,3.5606,3.5653,3.5621,3.5561,3.5292,3.4854,3.4264,3.3689,3.3333,3.3551,3.3964,3.4156,3.4317,3.4505,3.4635,3.396,3.3492,3.3852,2.2445,2.1815,2.0798,1.9568,1.8371,1.8794,1.867,1.8076,1.8008,1.8008,1.8134,1.8894,1.9781,2.0639,2.1337,2.2249,2.2869,2.305,2.3095,2.3095,2.3095,2.3095,2.315,2.3286,2.381,2.4246,2.4764,2.5607,2.6436,2.5979,2.5854,2.6361,2.6521,2.6543,2.685,2.7484,2.8441,2.9333,3.0148,3.0837,3.119,3.1496,3.1496,3.1496,3.1496,3.1496,3.1496,3.1496,3.1496,3.1496,3.1496,3.1496,3.1496,3.1496,3.1496,3.1496,3.1496,3.1496,3.1524,3.1697,3.1625,3.1553,3.1553,3.2062,3.309,3.3339,3.3106,3.3508,3.4207,3.4688,3.4894,3.5138,3.5436,3.5628,3.5628,3.5628,3.5628,3.5628,3.5628,3.5628,3.5628,3.5628,3.5628,3.5628,3.5628,3.5628,3.5628,3.5628,3.5628,3.5628,3.5628,3.5628,3.5628,3.5628,3.5628,3.5628,3.5628,3.5749,3.5771,3.5814,3.5915,3.6118,3.589,3.506,3.4496,3.4021,3.3798,3.4092,3.4253,3.4522,3.4953,3.523,3.4777,3.4453,3.4689,2.2048,2.1768,2.022,1.9315,1.8971,1.8496,1.8144,1.8025,1.8008,1.8008,1.8259,1.8927,1.9765,2.0623,2.0719,2.1589,2.299,2.3095,2.3095,2.3095,2.3095,2.3095,2.3178,2.3384,2.4353,2.4744,2.4951,2.5464,2.6248,2.5942,2.5891,2.6461,2.6487,2.682,2.7534,2.8214,2.9002,2.9781,3.0539,3.1307,3.1336,3.1496,3.1496,3.1496,3.1496,3.1496,3.1496,3.1496,3.1496,3.1496,3.1496,3.1496,3.1496,3.1496,3.1496,3.1496,3.1496,3.1496,3.1568,3.1853,3.1824,3.1568,3.1654,3.1964,3.2745,3.3169,3.3234,3.3712,3.435,3.4826,3.5075,3.5328,3.5588,3.56,3.5628,3.5628,3.5628,3.5628,3.5628,3.5628,3.5628,3.5628,3.5628,3.5628,3.5628,3.5628,3.5628,3.5628,3.5628,3.5628,3.5628,3.5628,3.5628,3.5628,3.5628,3.5628,3.5633,3.5794,3.6009,3.6248,3.6693,3.7408,3.704,3.6031,3.542,3.4968,3.4818,3.4605,3.4872,3.5239,3.5736,3.5926,3.5491,3.5321,3.5517]},{"header":{"parameterUnit":"m.s-1","parameterCategory":1,"la1":31.0,"la2":29.5877,"lo1":-88.7671,"lo2":-86.6584,"dy":0.0162,"dx":0.0185,"nx":115,"ny":88,"refTime":"2025-12-02T12:00:00:Z","depth":0,"parameterNumber":3,"parameterNumberName":"V-component_of_WINDS"},"data":[0.0,0.0,0.0,0.0,0.0,0.0,0.0,0.0,0.0,0.0,0.0,0.0,0.0,0.0,0.0,0.0,0.0,0.0,0.0,0.0,0.0,0.0,0.0,0.0,0.0,0.0,0.0,0.0,0.0,0.0,0.0,0.0,0.0,0.0,0.0,0.0,0.0,0.0,0.0,0.0,0.0,0.0,0.0,0.0,0.0,0.0,0.0,0.0,0.0,0.0,0.0,0.0,0.0,0.0,0.0,0.0,0.0,0.0,0.0,0.0,0.0,0.0,0.0,0.0,0.0,0.0,0.0,0.0,0.0,0.0,0.0,0.0,0.0,0.0,0.0,0.0,0.0,0.0,0.0,0.0,0.0,0.0,0.0,0.0,0.0,0.0,0.0,0.0,0.0,0.0,0.0,0.0,0.0,0.0,0.0,0.0,0.0,0.0,0.0,0.0,0.0,0.0,0.0,0.0,0.0,0.0,0.0,0.0,0.0,0.0,0.0,0.0,0.0,0.0,0.0,0.0,0.0,0.0,0.0,0.0,0.0,0.0,0.0,0.0,0.0,0.0,0.0,0.0,0.0,0.0,0.0,0.0,0.0,0.0,0.0,0.0,0.0,0.0,0.0,0.0,0.0,0.0,0.0,0.0,0.0,0.0,0.0,0.0,0.0,0.0,0.0,0.0,0.0,0.0,0.0,0.0,0.0,0.0,0.0,0.0,0.0,0.0,0.0,0.0,0.0,0.0,0.0,0.0,0.0,0.0,0.0,0.0,0.0,0.0,0.0,0.0,0.0,0.0,0.0,0.0,0.0,0.0,0.0,0.0,0.0,0.0,0.0,0.0,0.0,0.0,0.0,0.0,0.0,0.0,0.0,0.0,0.0,0.0,0.0,0.0,0.0,0.0,0.0,0.0,0.0,0.0,0.0,0.0,0.0,0.0,0.0,0.0,0.0,0.0,0.0,0.0,0.0,0.0,0.0,0.0,0.0,0.0,0.0,0.0,0.0,0.0,0.0,0.0,0.0,0.0,0.0,0.0,0.0,0.0,0.0,0.0,0.0,0.0,0.0,0.0,0.0,0.0,0.0,0.0,0.0,0.0,0.0,0.0,0.0,0.0,0.0,0.0,0.0,0.0,0.0,0.0,0.0,0.0,0.0,0.0,0.0,0.0,0.0,0.0,0.0,0.0,0.0,0.0,0.0,0.0,0.0,0.0,0.0,0.0,0.0,0.0,0.0,0.0,0.0,0.0,0.0,0.0,0.0,0.0,0.0,0.0,0.0,0.0,0.0,0.0,0.0,0.0,0.0,0.0,0.0,0.0,0.0,0.0,0.0,0.0,0.0,0.0,0.0,0.0,0.0,0.0,0.0,0.0,0.0,0.0,0.0,0.0,0.0,0.0,0.0,0.0,0.0,0.0,0.0,0.0,0.0,0.0,0.0,0.0,0.0,0.0,0.0,0.0,0.0,0.0,0.0,0.0,0.0,0.0,0.0,0.0,0.0,0.0,0.0,0.0,0.0,0.0,0.0,0.0,0.0,0.0,0.0,0.0,0.0,0.0,0.0,0.0,0.0,0.0,0.0,0.0,0.0,0.0,0.0,0.0,0.0,0.0,0.0,0.0,0.0,0.0,0.0,0.0,0.0,0.0,0.0,0.0,0.0,0.0,0.0,0.0,0.0,0.0,0.0,0.0,0.0,0.0,0.0,0.0,0.0,0.0,0.0,0.0,0.0,0.0,0.0,0.0,0.0,0.0,0.0,0.0,0.0,0.0,0.0,0.0,0.0,0.0,0.0,0.0,0.0,0.0,0.0,0.0,0.0,0.0,0.0,0.0,0.0,0.0,0.0,0.0,0.0,0.0,0.0,0.0,0.0,0.0,0.0,0.0,0.0,0.0,0.0,0.0,0.0,0.0,0.0,0.0,0.0,0.0,0.0,0.0,0.0,0.0,0.0,0.0,0.0,0.0,0.0,0.0,0.0,0.0,0.0,0.0,0.0,0.0,0.0,0.0,0.0,0.0,0.0,0.0,0.0,0.0,0.0,0.0,0.0,0.0,0.0,0.0,0.0,0.0,0.0,0.0,0.0,0.0,0.0,0.0,0.0,0.0,0.0,0.0,0.0,0.0,0.0,0.0,0.0,0.0,0.0,0.0,0.0,0.0,0.0,0.0,0.0,0.0,0.0,0.0,0.0,0.0,0.0,0.0,0.0,0.0,0.0,0.0,0.0,0.0,0.0,0.0,0.0,0.0,0.0,0.0,0.0,0.0,0.0,0.0,0.0,0.0,0.0,0.0,0.0,0.0,0.0,0.0,0.0,0.0,0.0,0.0,0.0,0.0,0.0,0.0,0.0,0.0,0.0,0.0,0.0,0.0,0.0,0.0,0.0,0.0,0.0,0.0,0.0,0.0,0.0,0.0,0.0,0.0,0.0,0.0,0.0,0.0,0.0,0.0,0.0,0.0,0.0,0.0,0.0,0.0,0.0,0.0,0.0,0.0,0.0,0.0,0.0,0.0,0.0,0.0,0.0,0.0,0.0,0.0,0.0,0.0,0.0,0.0,0.0,0.0,0.0,0.0,0.0,0.0,0.0,0.0,0.0,0.0,0.0,0.0,0.0,0.0,0.0,0.0,0.0,0.0,0.0,0.0,0.0,0.0,0.0,0.0,0.0,0.0,0.0,0.0,0.0,0.0,0.0,0.0,0.0,0.0,0.0,0.0,0.0,0.0,0.0,0.0,0.0,0.0,0.0,0.0,0.0,0.0,0.0,0.0,0.0,0.0,0.0,0.0,0.0,0.0,0.0,0.0,0.0,0.0,0.0,0.0,0.0,0.0,0.0,0.0,0.0,0.0,0.0,0.0,0.0,0.0,0.0,0.0,0.0,0.0,0.0,0.0,0.0,0.0,0.0,0.0,0.0,0.0,0.0,0.0,0.0,0.0,0.0,0.0,0.0,0.0,0.0,0.0,0.0,0.0,0.0,0.0,0.0,0.0,0.0,0.0,0.0,0.0,0.0,0.0,0.0,0.0,0.0,0.0,0.0,0.0,0.0,0.0,0.0,0.0,0.0,0.0,0.0,0.0,0.0,0.0,0.0,0.0,0.0,0.0,0.0,0.0,0.0,0.0,0.0,0.0,0.0,0.0,0.0,0.0,0.0,0.0,0.0,0.0,0.0,0.0,0.0,0.0,0.0,0.0,0.0,0.0,0.0,0.0,0.0,0.0,0.0,0.0,0.0,0.0,0.0,0.0,0.0,0.0,0.0,0.0,0.0,0.0,0.0,0.0,0.0,0.0,0.0,0.0,0.0,0.0,0.0,0.0,0.0,0.0,0.0,0.0,0.0,0.0,0.0,0.0,0.0,0.0,0.0,0.0,0.0,0.0,0.0,0.0,0.0,0.0,0.0,0.0,0.0,0.0,0.0,0.0,0.0,0.0,0.0,0.0,0.0,0.0,0.0,0.0,0.0,0.0,0.0,0.0,0.0,0.0,0.0,0.0,0.0,0.0,0.0,0.0,0.0,0.0,0.0,0.0,0.0,0.0,0.0,0.0,0.0,0.0,0.0,0.0,0.0,0.0,0.0,0.0,0.0,0.0,0.0,0.0,0.0,0.0,0.0,0.0,0.0,0.0,0.0,0.0,0.0,0.0,0.0,0.0,0.0,0.0,0.0,0.0,0.0,0.0,0.0,0.0,0.0,0.0,0.0,0.0,0.0,0.0,0.0,0.0,0.0,0.0,0.0,0.0,0.0,0.0,0.0,0.0,0.0,0.0,0.0,0.0,0.0,0.0,0.0,0.0,0.0,0.0,0.0,0.0,0.0,0.0,0.0,0.0,0.0,0.0,0.0,0.0,0.0,0.0,0.0,0.0,0.0,0.0,0.0,0.0,0.0,0.0,0.0,0.0,0.0,0.0,0.0,0.0,0.0,0.0,0.0,0.0,0.0,0.0,0.0,0.0,0.0,0.0,0.0,0.0,0.0,0.0,0.0,0.0,0.0,0.0,0.0,0.0,0.0,0.0,0.0,0.0,0.0,0.0,0.0,0.0,0.0,0.0,0.0,0.0,0.0,0.0,0.0,0.0,0.0,0.0,0.0,0.0,0.0,0.0,0.0,0.0,0.0,0.0,0.0,0.0,0.0,0.0,0.0,0.0,0.0,0.0,0.0,0.0,0.0,0.0,0.0,0.0,0.0,0.0,0.0,0.0,0.0,0.0,0.0,0.0,0.0,0.0,0.0,0.0,0.0,0.0,0.0,0.0,0.0,0.0,0.0,0.0,0.0,0.0,0.3534,0.0,0.0,0.0,0.0,0.0,0.0,0.0,0.0,0.0,0.0,0.0,0.0,0.0,0.0,0.0,0.0,0.0,0.0,0.0,0.0,0.0,0.0,0.0,0.0,0.0,0.0,0.0,0.0,0.0,0.0,0.0,0.0,0.0,0.0,0.0,0.0,0.0,0.0,0.0,0.0,0.0,0.0,0.0,0.0,0.0,0.0,0.0,0.0,0.0,0.0,0.0,0.0,0.0,0.0,0.0,0.0,0.0,0.0,0.0,0.0,0.0,0.0,0.0,0.0,0.0,0.0,0.0,0.0,0.0,0.0,0.0,0.0,0.0,0.0,0.0,0.0,0.0,0.0,0.0,0.0,0.0,0.0,0.0,0.0,0.0,0.0,0.0,0.0,0.0,0.0,0.0,0.0,0.0,0.0,0.0,0.0,0.0,0.0,0.0,0.0,0.0,0.0,0.0,0.0,0.0,0.0,0.0,0.0,0.0,0.0,0.5309,0.5301,0.485,0.4266,0.3522,0.0,0.0,0.0,0.0,0.0,0.0,0.0,0.0,0.0,0.0,0.0,0.0,0.0,0.0,0.0,0.0,0.0,0.0,0.0,0.0,0.0,0.0,0.0,0.0,0.0,0.0,0.0,0.0,0.0,0.0,0.0,0.0,0.0,0.0,0.0,0.0,0.0,0.0,0.0,0.0,0.0,0.0,0.0,0.0,0.0,0.0,0.0,0.0,0.0,0.0,0.0,0.0,0.0,0.0,0.0,0.0,0.0,0.0,0.0,0.0,0.0,0.0,0.0,0.0,0.0,0.0,0.0,0.0,0.0,0.0,0.0,0.0,0.0,0.0,0.0,0.0,0.0,0.0,0.0,0.0,0.0,0.0,0.0,0.0,0.0,0.0,0.0,0.0,0.0,0.0,0.0,0.0,0.0,0.0,0.0,0.0,0.0,0.0,0.0,0.0,0.0,0.0,0.0,0.0,0.0,0.0,0.0,0.0,0.0,0.0,0.0,0.0,0.4746,0.4075,0.3245,0.0,0.0,0.0,0.0,0.0,0.0,0.0,0.0,0.0,0.0,0.0,0.0,0.0,0.0,0.0,0.0,0.0,0.0,0.0,0.0,0.0,0.0,0.0,0.0,0.0,0.0,0.0,0.0,0.0,0.0,0.0,0.0,0.0,0.0,0.0,0.0,0.0,0.0,0.0,0.0,0.0,0.0,0.0,0.0,0.0,0.0,0.0,0.0,0.0,0.0,0.0,0.0,0.0,0.0,0.0,0.0,0.0,0.0,0.0,0.0,0.0,0.0,0.0,0.0,0.0,0.0,0.0,0.0,0.0,0.0,0.0,0.0,0.0,0.0,0.0,0.0,0.0,0.0,0.0,0.0,0.0,0.0,0.0,0.0,0.0,0.0,0.0,0.0,0.0,0.0,0.0,0.0,0.0,0.0,0.0,0.0,0.0,0.0,0.0,0.0,0.0,0.0,0.0,0.0,0.0,0.0,0.0,0.0,0.0,0.0,0.5309,0.5285,0.4481,0.0,0.2422,0.0,0.0,0.0,0.0,0.0,0.0,0.0,0.0,0.0,0.0,0.0,0.0,0.0,0.0,0.0,0.0,0.0,0.0,0.0,0.0,0.0,0.0,0.0,0.0,0.0,0.0,0.0,0.0,0.0,0.0,0.0,0.0,0.0,0.0,0.0,0.0,0.0,0.0,0.0,0.0,0.0,0.0,0.0,0.0,0.0,0.0,0.0,0.0,0.0,0.0,0.0,0.0,0.0,0.0,0.0,0.0,0.0,0.0,0.0,0.0,0.0,0.0,0.0,0.0,0.0,0.0,0.0,0.0,0.0,0.0,0.0,0.0,0.0,0.0,0.0,0.0,0.0,0.0,0.0,0.0,0.0,0.0,0.0,0.0,0.0,0.0,0.0,0.0,0.0,0.0,0.0,0.0,0.0,0.0,0.0,0.0,0.0,0.0,0.0,0.0,0.0,0.0,0.0,0.0,0.0,0.0,0.0,0.0,0.0,0.0,0.0,0.4896,0.3895,0.2981,0.0,0.0,0.0,0.0,0.0,0.0,0.0,0.0,0.0,0.0,0.0,0.0,0.0,0.0,0.0,0.0,0.0,0.0,0.0,0.0,0.0,0.0,0.0,0.0,0.0,0.0,0.0,0.0,0.0,0.0,0.0,0.0,0.0,0.0,0.0,0.0,0.0,0.0,0.0,0.0,0.0,0.0,0.0,0.0,0.0,0.0,0.0,0.0,0.0,0.0,0.0,0.0,0.0,0.0,0.0,0.0,0.0,0.0,0.0,0.0,0.0,0.0,0.0,0.0,0.0,0.0,0.0,0.0,0.0,0.0,0.0,0.0,0.0,0.0,0.0,0.0,0.0,0.0,0.0,0.0,0.0,0.0,0.0,0.0,0.0,0.0,0.0,0.0,0.0,0.0,0.0,0.0,0.0,0.0,0.0,0.0,0.0,0.0,0.0,0.0,0.0,0.0,0.0,0.0,0.0,0.0,0.0,0.0,0.0,0.0,0.5309,0.0,0.4424,0.3513,0.2762,0.2214,0.0,0.0,0.0,0.0,0.0,0.0,0.0,0.0,0.0,0.0,0.0,0.0,0.0,0.0,0.0,0.0,0.0,0.0,0.0,0.0,0.0,0.0,0.0,0.0,0.0,0.0,0.0,0.0,0.0,0.0,0.0,0.0,0.0,0.0,0.0,0.0,0.0,0.0,0.0,0.0,0.0,0.0,0.0,0.0,0.0,0.0,0.0,0.0,0.0,0.0,0.0,0.0,0.0,0.0,0.0,0.0,0.0,0.0,0.0,0.0,0.0,0.0,0.0,0.0,0.0,0.0,0.0,0.0,0.0,0.0,0.0,0.0,0.0,0.0,0.0,0.0,0.0,0.0,0.0,0.0,0.0,0.0,0.0,0.0,0.0,0.0,0.0,0.0,0.0,0.0,0.0,0.0,0.0,0.0,0.0,0.0,0.0,0.0,0.0,0.0,0.0,0.0,0.0,0.0,0.0,0.0,0.0,0.0,0.0,0.5277,0.488,0.4042,0.3542,0.2951,0.0,0.0,0.0,0.0,0.0,0.0,0.0,0.0,0.0,0.0,0.0,0.0,0.0,0.0,0.0,0.0,0.0,0.0,0.0,0.0,0.0,0.0,0.0,0.0,0.0,0.0,0.0,0.0,0.0,0.0,0.0,0.0,0.0,0.0,0.0,0.0,0.0,0.0,0.0,0.0,0.0,0.0,0.0,0.0,0.0,0.0,0.0,0.0,0.0,0.0,0.0,0.0,0.0,0.0,0.0,0.0,0.0,0.0,0.0,0.0,0.0,0.0,0.0,0.0,0.0,0.0,0.0,0.0,0.0,0.0,0.0,0.0,0.0,0.0,0.0,0.0,0.0,0.0,0.0,0.0,0.0,0.0,0.0,0.0,0.0,0.0,0.0,0.0,0.0,0.0,0.0,0.0,0.0,0.0,0.0,0.0,0.0,0.0,0.0,0.0,0.0,0.0,0.0,0.0,0.0,0.0,0.0,0.0,0.0,0.4501,0.417,0.391,0.3659,0.2973,0.2637,0.0,0.0,0.0,0.0,0.0,0.0,0.0,0.0,0.0,0.0,0.0,0.0,0.0,0.0,0.0,0.0,0.0,0.0,0.0,0.0,0.0,0.0,0.0,0.0,0.0,0.0,0.0,0.0,0.0,0.0,0.0,0.0,0.0,0.0,0.0,0.0,0.0,0.0,0.0,0.0,0.0,0.0,0.0,0.0,0.0,0.0,0.0,0.0,0.0,0.0,0.0,0.0,0.0,0.0,0.0,0.0,0.0,0.0,0.0,0.0,0.0,0.0,0.0,0.0,0.0,0.0,0.0,0.0,0.0,0.0,0.0,0.0,0.0,0.0,0.0,0.0,0.0,0.0,0.0,0.0,0.0,0.0,0.0,0.0,0.0,0.0,0.0,0.0,0.0,0.0,0.0,0.0,0.0,0.0,0.0,0.0,0.0,0.0,0.0,0.0,0.0,0.0,0.0,0.0,0.0,0.0,0.0,0.0,0.0,0.4323,0.0,0.3693,0.0,0.2804,0.2481,0.0,0.0,0.0,0.0,0.0,0.0,0.0,0.0,0.0,0.0,0.0,0.0,0.0,0.0,0.0,0.0,0.0,0.0,0.0,0.0,0.0,0.0,0.0,0.0,0.0,0.0,0.0,0.0,0.0,0.0,0.0,0.0,0.0,0.0,0.0,0.0,0.0,0.0,0.0,0.0,0.0,0.0,0.0,0.0,0.0,0.0,0.0,0.0,0.0,0.0,0.0,0.0,0.0,0.0,0.0,0.0,0.0,0.0,0.0,0.0,0.0,0.0,0.0,0.0,0.0,0.0,0.0,0.0,0.0,0.0,0.0,0.0,0.0,0.0,0.0,0.0,0.0,0.0,0.0,0.0,0.0,0.0,0.0,0.0,0.0,0.0,0.0,0.0,0.0,0.0,0.0,0.0,0.0,0.0,0.0,0.0,0.0,0.0,0.0,0.0,0.0,0.0,0.0,0.0,0.0,0.0,0.0,0.0,0.0,0.4932,0.4658,0.426,0.3796,0.302,0.2472,0.0,0.0,0.0,0.0,0.0,0.0,0.0,0.0,0.0,0.0,0.0,0.0,0.0,0.0,0.0,0.0,0.0,0.0,0.0,0.0,0.0,0.0,0.0,0.0,0.0,0.0,0.0,0.0,0.0,0.0,0.0,0.0,0.0,0.0,0.0,0.0,0.0,0.0,0.0,0.0,0.0,0.0,0.0,0.0,0.0,0.0,0.0,0.0,0.0,0.0,0.0,0.0,0.0,0.0,0.0,0.0,0.0,0.0,0.0,0.0,0.0,0.0,0.0,0.0,0.0,0.0,0.0,0.0,0.0,0.0,0.0,0.0,0.0,0.0,0.0,0.0,0.0,0.0,0.0,0.0,0.0,0.0,0.0,0.0,0.0,0.0,0.0,0.0,0.0,0.0,0.0,0.0,0.0,0.0,0.0,0.0,0.0,0.0,0.0,0.0,0.0,0.0,0.0,0.0,0.0,0.0,0.0,0.0,0.0,0.4456,0.4029,0.3673,0.3309,0.2294,0.1792,0.0,0.0,0.0,0.0,0.0,0.0,0.0,0.0,0.0,0.0,0.0,0.0,0.0,0.0,0.0,0.0,0.0,0.0,0.0,0.0,0.0,0.0,0.0,0.0,0.0,0.0,0.0,0.0,0.0,0.0,0.0,0.0,0.0,0.0,0.0,0.0,0.0,0.0,0.0,0.0,0.0,0.0,0.0,0.0,0.0,0.0,0.0,0.0,0.0,0.0,0.0,0.0,0.0,0.0,0.0,0.0,0.0,0.0,0.0,0.0,0.0,0.0,0.0,0.0,0.0,0.0,0.0,0.0,0.0,0.0,0.0,0.0,0.0,0.0,0.0,0.0,0.0,0.0,0.0,0.0,0.0,0.0,0.0,0.0,0.0,0.0,0.0,0.0,0.0,0.0,0.0,0.0,0.0,0.0,0.0,0.0,0.0,0.0,0.0,0.0,0.0,0.0,0.0,0.0,0.0,0.0,0.0,0.0,0.0,0.4714,0.4307,0.3617,0.2649,0.2087,0.1706,0.1473,0.0,0.0,0.0,0.0,0.0,0.0,0.0,0.0,0.0,0.0,0.0,0.0,0.0,0.0,0.0,0.0,0.0,0.0,0.0,0.0,0.0,0.0,0.0,0.0,0.0,0.0,0.0,0.0,0.0,0.0,0.0,0.0,0.0,0.0,0.0,0.0,0.0,0.0,0.0,0.0,0.0,0.0,0.0,0.0,0.0,0.0,0.0,0.0,0.0,0.0,0.0,0.0,0.0,0.0,0.0,0.0,0.0,0.0,0.0,0.0,0.0,0.0,0.0,0.0,0.0,0.0,0.0,0.0,0.0,0.0,0.0,0.0,0.0,0.0,0.0,0.0,0.0,0.0,0.0,0.0,0.0,0.0,0.0,0.0,0.0,0.0,0.0,0.0,0.0,0.0,0.0,0.0,0.0,0.0,0.0,0.0,0.0,0.0,0.0,0.0,0.0,0.0,0.0,0.0,0.0,0.0,0.0,0.0,0.5496,0.5207,0.4041,0.1986,0.2293,0.2012,0.0,0.0,0.0,0.0,0.0,0.0,0.0,0.0,0.0,0.0,0.0,0.0,0.0,0.0,0.0,0.0,0.0,0.0,0.0,0.0,0.0,0.0,0.0,0.0,0.0,0.0,0.0,0.0,0.0,0.0,0.0,0.0,0.0,0.0,0.0,0.0,0.0,0.0,0.0,0.0,0.0,0.0,0.0,0.0,0.0,0.0,0.0,0.0,0.0,0.0,0.0,0.0,0.0,0.0,0.0,0.0,0.0,0.0,0.0,0.0,0.0,0.0,0.0,0.0,0.0,0.0,0.0,0.0,0.0,0.0,0.0,0.0,0.0,0.0,0.0,0.0,0.0,0.0,0.0,0.0,0.0,0.0,0.0,0.0,0.0,0.0,0.0,0.0,0.0,0.0,0.0,0.0,0.0,0.0,0.0,0.0,0.0,0.0,0.0,0.0,0.0,0.0,0.0,0.0,0.0,0.0,0.0,0.0,0.0,0.5474,0.4876,0.399,0.2772,0.1429,0.055,0.0,0.0,0.0,0.0,0.0,0.0,0.0,0.0,0.0,0.0,0.0,0.0,0.0,0.0,0.0,0.0,0.0,0.0,0.0,0.0,0.0,0.0,0.0,0.0,0.0,0.0,0.0,0.0,0.0,0.0,0.0,0.0,0.0,0.0,0.0,0.0,0.0,0.0,0.0,0.0,0.0,0.0,0.0,0.0,0.0,0.0,0.0,0.0,0.0,0.0,0.0,0.0,0.0,0.0,0.0,0.0,0.0,0.0,0.0,0.0,0.0,0.0,0.0,0.0,0.0,0.0,0.0,0.0,0.0,0.0,0.0,0.0,0.0,0.0,0.0,0.0,0.0,0.0,0.0,0.0,0.0,0.0,0.0,0.0,0.0,0.0,0.0,0.0,0.0,0.0,0.0,0.0,0.0,0.0,0.0,0.0,0.0,0.0,0.0,0.0,0.0,0.0,0.0,0.0,0.0,0.0,0.0,0.0,0.6564,0.5257,0.4435,0.3681,0.2935,0.1379,0.0362,0.0,0.0,0.0,0.0,0.0,0.0,0.0,0.0,0.0,0.0,0.0,0.0,0.0,0.0,0.0,0.0,0.0,0.0,0.0,0.0,0.0,0.0,0.0,0.0,0.0,0.0,0.0,0.0,0.0,0.0,0.0,0.0,0.0,0.0,0.0,0.0,0.0,0.0,0.0,0.0,0.0,0.0,0.0,0.0,0.0,0.0,0.0,0.0,0.0,0.0,0.0,0.0,0.0,0.0,0.0,0.0,0.0,0.0,0.0,0.0,0.0,0.0,0.0,0.0,0.0,0.0,0.0,0.0,0.0,0.0,0.0,0.0,0.0,0.0,0.0,0.0,0.0,0.0,0.0,0.0,0.0,0.0,0.0,0.0,0.0,0.0,0.0,0.0,0.0,0.0,0.0,0.0,0.0,0.0,0.0,0.0,0.0,0.0,0.0,0.0,0.0,0.0,0.0,0.0,0.0,0.0,0.0,0.0,0.599,0.5021,0.4056,0.3254,0.2644,0.1783,0.0997,0.0,0.0,0.0,0.0,0.0,0.0,0.0,0.0,0.0,0.0,0.0,0.0,0.0,0.0,0.0,0.0,0.0,0.0,0.0,0.0,0.0,0.0,0.0,0.0,0.0,0.0,0.0,0.0,0.0,0.0,0.0,0.0,0.0,0.0,0.0,0.0,0.0,0.0,0.0,0.0,0.0,0.0,0.0,0.0,0.0,0.0,0.0,0.0,0.0,0.0,0.0,0.0,0.0,0.0,0.0,0.0,0.0,0.0,0.0,0.0,0.0,0.0,0.0,0.0,0.0,0.0,0.0,0.0,0.0,0.0,0.0,0.0,0.0,0.0,0.0,0.0,0.0,0.0,0.0,0.0,0.0,0.0,0.0,0.0,0.0,0.0,0.0,0.0,0.0,0.0,0.0,0.0,0.0,0.0,0.0,0.0,0.0,0.0,0.0,0.0,0.0,0.0,0.0,0.0,0.0,0.0,0.0,0.0,0.6208,0.502,0.4286,0.3374,0.2339,0.1651,0.1569,0.0,0.0,0.0,0.0,0.0,0.0,0.0,0.0,0.0,0.0,0.0,0.0,0.0,0.0,0.0,0.0,0.0,0.0,0.0,0.0,0.0,0.0,0.0,0.0,0.0,0.0,0.0,0.0,0.0,0.0,0.0,0.0,0.0,0.0,0.0,0.0,0.0,0.0,0.0,0.0,0.0,0.0,0.0,0.0,0.0,0.0,0.0,0.0,0.2157,0.0,0.0,0.0,0.0,0.0,0.0,0.0,0.0,0.0,0.0,0.0,0.0,0.0,0.0,0.0,0.0,0.0,0.0,0.0,0.0,0.0,0.0,0.0,0.0,0.0,0.0,0.0,0.0,0.0,0.0,0.0,0.0,0.0,0.0,0.0,0.0,0.0,0.0,0.0,0.0,0.0,0.0,0.0,0.0,0.0,0.0,0.0,0.0,0.0,0.0,0.0,0.0,0.0,0.0,0.0,0.0,0.0,0.0,0.0,0.6231,0.4486,0.4,0.3301,0.2331,0.1805,0.2295,0.0,0.0,0.0,0.0,0.0,0.0,0.0,0.0,0.0,0.0,0.0,0.0,0.0,0.0,0.0,0.0,0.0,0.0,0.0,0.0,0.0,0.0,0.0,0.0,0.0,0.0,0.0,0.0,0.0,0.0,0.0,0.0,0.0,0.0,0.0,0.0,0.0,0.0,0.0,0.0,0.0,0.0,0.0,0.0,0.0,0.0,0.0,0.0,0.0,0.0,0.0,0.0,0.0,0.0,0.0,0.0,0.0,0.0,0.0,0.0,0.0,0.0,0.0,0.0,0.0,0.0,0.0,0.0,0.0,0.0,0.0,0.0,0.0,0.0,0.0,0.0,0.0,0.0,0.0,0.0,0.0,0.0,0.0,0.0,0.0,0.0,0.0,0.0,0.0,0.0,0.0,0.0,0.0,0.0,0.0,0.0,0.0,0.0,0.0,0.0,0.0,0.0,0.0,0.0,0.0,0.0,0.0,0.7442,0.6146,0.3945,0.3673,0.3219,0.2483,0.2123,0.2905,0.4906,0.0,0.0,0.0,0.0,0.0,0.0,0.0,0.0,0.0,0.0,0.0,0.0,0.0,0.0,0.0,0.0,0.0,0.0,0.0,0.0,0.0,0.0,0.0,0.0,0.0,0.0,0.0,0.0,0.0,0.0,0.0,0.0,0.0,0.0,0.0,0.0,0.0,0.0,0.2569,0.2596,0.0,0.0,0.0,0.0,0.0,0.0,0.0,0.0,0.3344,0.0,0.0,0.0,0.0,0.0,0.0,0.0,0.0,0.0,0.0,0.0,0.0,0.0,0.0,0.0,0.0,0.0,0.0,0.0,0.0,0.0,0.0,0.0,0.0,0.0,0.0,0.0,0.0,0.0,0.0,0.0,0.0,0.0,0.0,0.0,0.0,0.0,0.0,0.0,0.0,0.0,0.0,0.0,0.0,0.0,0.0,0.0,0.0,0.0,0.0,0.0,0.0,0.0,0.0,0.0,0.0,0.7823,0.7299,0.6056,0.402,0.3925,0.3511,0.2684,0.2583,0.2946,0.3754,0.0,0.0,0.0,0.0,0.0,0.0,0.0,0.0,0.0,0.0,0.0,0.0,0.0,0.0,0.0,0.0,0.0,0.0,0.0,0.0,0.0,0.0,0.0,0.0,0.0,0.0,0.0,0.0,0.0,0.0,0.0,0.0,0.0,0.0,0.0,0.0,0.0,0.0,0.0,0.2522,0.2443,0.0,0.0,0.0,0.0,0.0,0.0,0.0,0.0,0.3897,0.0,0.0,0.0,0.0,0.0,0.0,0.0,0.0,0.0,0.0,0.0,0.0,0.0,0.0,0.0,0.0,0.0,0.0,0.0,0.0,0.0,0.0,0.0,0.0,0.0,0.0,0.0,0.0,0.0,0.0,0.0,0.0,0.0,0.0,0.0,0.0,0.0,0.0,0.0,0.0,0.0,0.0,0.0,0.0,0.0,0.0,0.0,0.0,0.0,0.0,0.0,0.0,0.0,0.0,0.0,0.7884,0.7549,0.6307,0.409,0.4002,0.3577,0.2736,0.2686,0.3034,0.0,0.0,0.0,0.0,0.0,0.0,0.0,0.0,0.0,0.0,0.0,0.0,0.0,0.0,0.0,0.0,0.0,0.0,0.0,0.0,0.0,0.0,0.0,0.0,0.0,0.0,0.0,0.0,0.0,0.0,0.0,0.0,0.0,0.0,0.0,0.0,0.0,0.0,0.0,0.0,0.2691,0.2497,0.2241,0.0,0.0,0.0,0.0,0.0,0.0,0.4063,0.4348,0.0,0.0,0.0,0.0,0.0,0.0,0.0,0.0,0.0,0.0,0.0,0.0,0.0,0.0,0.0,0.0,0.0,0.0,0.0,0.0,0.0,0.0,0.0,0.0,0.0,0.0,0.0,0.0,0.0,0.0,0.0,0.0,0.0,0.0,0.0,0.0,0.0,0.0,0.0,0.0,0.0,0.0,0.0,0.0,0.0,0.0,0.0,0.0,0.0,0.0,0.0,0.0,0.0,0.0,0.0,0.7867,0.77,0.6497,0.4237,0.4034,0.363,0.2853,0.2749,0.3068,0.0,0.0,0.0,0.0,0.0,0.0,0.0,0.0,0.0,0.0,0.0,0.0,0.0,0.0,0.0,0.0,0.0,0.0,0.0,0.0,0.0,0.0,0.0,0.0,0.0,0.0,0.0,0.0,0.0,0.0,0.0,0.0,0.0,0.0,0.0,0.0,0.0,0.0,0.0,0.0,0.0,0.2663,0.2516,0.2477,0.0,0.0,0.0,0.0,0.4277,0.4351,0.0,0.0,0.0,0.0,0.0,0.0,0.0,0.0,0.0,0.0,0.0,0.0,0.0,0.0,0.0,0.0,0.0,0.0,0.0,0.0,0.0,0.0,0.0,0.0,0.0,0.0,0.0,0.0,0.0,0.0,0.0,0.0,0.0,0.0,0.0,0.0,0.0,0.0,0.0,0.0,0.0,0.0,0.0,0.0,0.0,0.0,0.0,0.0,0.0,0.0,0.0,0.0,0.0,0.0,0.0,0.0,0.7823,0.7327,0.6248,0.4623,0.4183,0.374,0.3245,0.2891,0.2916,0.0,0.0,0.0,0.0,0.0,0.0,0.0,0.0,0.0,0.0,0.0,0.0,0.0,0.0,0.0,0.0,0.0,0.0,0.0,0.0,0.0,0.0,0.0,0.0,0.0,0.0,0.0,0.0,0.0,0.0,0.0,0.0,0.0,0.0,0.0,0.0,0.0,0.0,0.0,0.0,0.0,0.3011,0.3383,0.2999,0.2958,0.0,0.0,0.425,0.3765,0.3814,0.0,0.0,0.0,0.0,0.0,0.0,0.0,0.0,0.0,0.0,0.0,0.0,0.0,0.0,0.0,0.0,0.0,0.0,0.0,0.0,0.0,0.0,0.0,0.0,0.0,0.0,0.0,0.0,0.0,0.0,0.0,0.0,0.0,0.0,0.0,0.0,0.0,0.0,0.0,0.0,0.0,0.0,0.0,0.0,0.0,0.0,0.0,0.0,0.0,0.0,0.0,0.0,0.0,0.0,0.0,0.9554,0.8073,0.7343,0.6323,0.4922,0.4301,0.3772,0.3323,0.2904,0.3006,0.0,0.0,0.0,0.0,0.0,0.0,0.0,0.0,0.0,0.0,0.0,0.0,0.0,0.0,0.0,0.0,0.0,0.0,0.0,0.0,0.0,0.0,0.0,0.0,0.0,0.0,0.0,0.0,0.0,0.0,0.0,0.0,0.0,0.0,0.0,0.0,0.0,0.0,0.0,0.0,0.0,0.0,0.3712,0.3559,0.0,0.0,0.0,0.3543,0.3846,0.0,0.0,0.0,0.0,0.0,0.0,0.0,0.0,0.0,0.0,0.0,0.0,0.0,0.0,0.0,0.0,0.0,0.0,0.0,0.0,0.0,0.0,0.0,0.0,0.0,0.0,0.0,0.0,0.0,0.0,0.0,0.0,0.0,0.0,0.0,0.0,0.0,0.0,0.0,0.0,0.0,0.0,0.0,0.0,0.0,0.0,0.0,0.0,0.0,0.0,0.0,0.0,0.0,0.0,0.0,0.0,0.0,0.8398,0.7589,0.6572,0.529,0.4529,0.3983,0.3641,0.3225,0.0,0.0,0.0,0.0,0.0,0.0,0.0,0.0,0.0,0.0,0.0,0.0,0.0,0.0,0.0,0.0,0.0,0.0,0.0,0.0,0.0,0.0,0.0,0.0,0.0,0.0,0.0,0.3679,0.0,0.0,0.0,0.0,0.0,0.0,0.0,0.0,0.0,0.0,0.0,0.0,0.0,0.0,0.4375,0.4196,0.3883,0.3683,0.0,0.0,0.3025,0.3728,0.4071,0.4221,0.0,0.0,0.0,0.0,0.0,0.0,0.0,0.0,0.0,0.0,0.0,0.0,0.0,0.0,0.0,0.0,0.0,0.0,0.0,0.0,0.0,0.0,0.0,0.0,0.0,0.0,0.0,0.0,0.0,0.0,0.0,0.0,0.0,0.0,0.0,0.0,0.0,0.0,0.0,0.0,0.0,0.0,0.0,0.0,0.0,0.0,0.0,0.0,0.0,0.0,0.0,0.0,0.0,0.0,0.0,0.887,0.8125,0.7063,0.571,0.495,0.4562,0.4516,0.4132,0.4285,0.0,0.0,0.0,0.0,0.0,0.0,0.0,0.0,0.0,0.0,0.0,0.0,0.0,0.0,0.0,0.0,0.0,0.0,0.0,0.0,0.0,0.0,0.0,0.0,0.0,0.0,0.0,0.0,0.0,0.0,0.0,0.0,0.0,0.0,0.0,0.0,0.0,0.0,0.0,0.0,0.0,0.4747,0.5128,0.3819,0.3159,0.0,0.0,0.3078,0.3072,0.3825,0.4396,0.4392,0.0,0.0,0.0,0.0,0.0,0.0,0.0,0.0,0.0,0.0,0.0,0.0,0.0,0.0,0.0,0.0,0.0,0.0,0.0,0.0,0.0,0.0,0.0,0.0,0.0,0.0,0.0,0.0,0.0,0.0,0.0,0.0,0.0,0.0,0.0,0.0,0.0,0.0,0.0,0.0,0.0,0.0,0.0,0.0,0.0,0.0,0.0,0.0,0.0,0.0,0.0,0.0,0.0,1.0352,0.9157,0.8095,0.7048,0.6046,0.5295,0.4801,0.4616,0.4199,0.4387,0.0,0.0,0.0,0.0,0.0,0.0,0.0,0.0,0.0,0.0,0.0,0.0,0.0,0.0,0.0,0.0,0.0,0.0,0.0,0.0,0.0,0.0,0.0,0.0,0.0,0.0,0.0,0.0,0.466,0.4685,0.4784,0.0,0.0,0.0,0.0,0.0,0.0,0.0,0.0,0.0,0.0,0.5728,0.5464,0.4778,0.0,0.0,0.4213,0.4299,0.4406,0.4649,0.4853,0.4933,0.534,0.0,0.0,0.0,0.0,0.0,0.0,0.0,0.0,0.0,0.0,0.0,0.0,0.0,0.0,0.0,0.0,0.0,0.0,0.0,0.0,0.0,0.0,0.0,0.0,0.0,0.0,0.0,0.0,0.0,0.0,0.0,0.0,0.0,0.0,0.0,0.0,0.0,0.0,0.0,0.0,0.0,0.0,0.0,0.0,0.0,0.0,0.0,0.0,0.0,0.0,0.0,0.0,1.0865,0.9763,0.8515,0.7444,0.6579,0.5976,0.5435,0.4954,0.4899,0.5112,0.0,0.0,0.0,0.0,0.0,0.0,0.0,0.0,0.0,0.0,0.0,0.0,0.0,0.0,0.0,0.0,0.0,0.0,0.0,0.0,0.0,0.0,0.0,0.0,0.0,0.0,0.0,0.0,0.4997,0.4934,0.5274,0.0,0.0,0.0,0.0,0.0,0.0,0.0,0.0,0.0,0.0,0.6604,0.5927,0.5633,0.5237,0.4502,0.4892,0.5269,0.5291,0.5433,0.5477,0.5236,0.0,0.0,0.0,0.0,0.0,0.0,0.0,0.0,0.0,0.0,0.0,0.0,0.0,0.0,0.0,0.0,0.0,0.0,0.0,0.0,0.0,0.0,0.0,0.0,0.0,0.0,0.0,0.0,0.0,0.0,1.2286,0.0,0.0,0.0,0.0,0.0,0.0,0.0,0.0,0.0,0.0,0.0,0.0,0.0,0.0,0.0,0.0,0.0,0.0,0.0,0.0,0.0,0.0,0.0,1.0779,0.9538,0.8445,0.7404,0.7111,0.6547,0.5751,0.6498,0.6781,0.6482,0.0,0.0,0.0,0.0,0.0,0.0,0.0,0.0,0.0,0.0,0.0,0.0,0.0,0.0,0.0,0.0,0.0,0.0,0.0,0.0,0.0,0.0,0.0,0.0,0.0,0.0,0.5039,0.4899,0.4956,0.0,0.0,0.0,0.0,0.0,0.0,0.0,0.0,0.0,0.0,0.7604,0.7182,0.6652,0.618,0.5745,0.5326,0.5622,0.5752,0.5416,0.6035,0.6191,0.0,0.0,0.0,0.0,0.0,0.0,0.0,0.0,0.0,0.0,0.0,0.0,0.0,0.0,0.0,0.0,0.0,0.0,0.0,0.0,0.0,0.0,0.0,0.0,0.0,0.0,0.0,1.5936,1.565,0.0,0.0,0.0,0.0,0.0,0.0,0.0,0.0,0.0,0.0,0.0,1.5418,1.5802,0.0,0.0,0.0,0.0,0.0,0.0,0.0,0.0,0.0,0.0,0.0,0.0,1.2003,1.0829,0.9841,0.8876,0.7968,0.7839,0.7585,0.7115,0.737,0.7475,0.738,0.0,0.0,0.0,0.0,0.0,0.0,0.0,0.0,0.0,0.0,0.0,0.0,0.0,0.0,0.0,0.0,0.0,0.0,0.0,0.0,0.0,0.0,0.0,0.0,0.0,0.5887,0.0,0.0,0.0,0.0,0.0,0.0,0.0,0.0,0.0,0.0,0.0,0.851,0.7964,0.7804,0.7579,0.718,0.6697,0.6256,0.0,0.0,0.0,0.0,0.0,0.0,0.0,0.0,0.0,0.0,0.0,0.0,0.0,0.0,0.9733,0.9734,0.9279,0.9044,0.9489,0.0,0.0,0.0,0.0,0.0,0.0,0.0,0.0,0.0,0.0,0.0,0.0,0.0,0.0,1.7453,0.0,1.6412,0.0,0.0,0.0,0.0,0.0,0.0,0.0,0.0,1.7351,1.7245,1.6644,1.7268,1.7397,0.0,1.7055,1.6522,0.0,0.0,0.0,0.0,0.0,0.0,0.0,0.0,1.2285,1.1099,1.0224,0.9411,0.8697,0.8669,0.8422,0.7947,0.799,0.8068,0.82,0.8186,0.8014,0.0,0.0,0.0,0.0,0.0,0.0,0.0,0.0,0.0,0.0,0.0,0.0,0.0,0.0,0.0,0.0,0.0,0.0,0.0,0.0,0.0,0.0,0.0,0.6328,0.0,0.0,0.0,0.0,0.0,0.0,0.0,0.0,0.0,0.9129,0.9262,0.9154,0.8291,0.8172,0.7965,0.735,0.0,0.0,0.0,0.0,0.0,0.0,0.0,0.7638,0.7617,0.7921,0.8062,0.7818,0.8029,0.8559,0.9612,0.0,0.0,1.0857,1.0293,1.004,1.0477,1.0944,1.1133,1.0657,1.1314,1.178,0.0,0.0,0.0,0.0,0.0,0.0,0.0,0.0,1.8462,1.8416,0.0,1.7563,0.0,0.0,0.0,0.0,0.0,1.7357,0.0,0.0,1.8343,1.8401,1.8807,1.8343,1.8127,1.8112,1.8137,1.8133,1.8076,1.7626,0.0,0.0,0.0,0.0,0.0,0.0,1.2805,1.1642,1.0733,1.004,0.9539,0.9518,0.9142,0.8336,0.8397,0.8619,0.8961,0.8976,0.8595,0.7744,0.8135,0.0,0.0,0.0,0.0,0.0,0.0,0.0,0.0,0.0,0.0,0.0,0.0,0.0,0.0,0.0,0.0,0.0,0.0,0.0,0.0,0.7355,0.0,0.0,0.0,0.0,0.0,0.0,0.0,0.0,0.0,0.0,0.9795,1.0311,1.0364,0.892,0.0,0.0,0.0,0.0,0.7034,0.7063,0.7307,0.7785,0.8614,0.8259,0.7713,0.7224,0.0,0.0,0.825,0.8603,0.9101,1.0051,1.1613,1.288,1.2846,1.2172,1.1753,1.1815,1.2331,1.2608,1.2058,1.2307,1.2798,2.2563,0.0,0.0,0.0,0.0,2.0724,1.9917,1.9153,1.9571,1.9238,1.8423,1.8968,0.0,0.0,0.0,0.0,0.0,0.0,1.8617,1.8873,1.8642,1.8644,1.8883,1.8639,1.8589,1.8688,1.9043,1.9244,1.9229,1.9095,1.8352,1.7105,0.0,0.0,0.0,0.0,1.3024,1.2214,1.0955,1.0235,1.0088,1.0059,0.9953,0.9714,0.9411,0.9166,0.9005,0.9004,0.8605,0.7744,0.8145,0.0,0.0,0.0,0.0,0.0,0.0,0.0,0.0,0.0,0.0,0.0,0.0,0.0,0.0,0.0,0.0,0.0,0.0,0.0,0.717,0.7672,0.7624,0.0,0.0,0.0,0.0,0.0,0.0,0.0,0.0,0.0,1.0665,1.0728,1.0529,0.0,0.0,0.8733,0.8012,0.7616,0.7553,0.814,0.0,0.0,0.0,0.7861,0.7623,0.7664,0.7588,0.7899,0.9082,0.9174,0.9393,1.0326,1.1447,1.238,1.2768,1.2307,1.2021,1.2464,1.2752,1.2835,1.2666,1.2764,1.2915,2.2606,2.2682,2.251,2.2405,2.2269,2.1549,2.0638,1.9665,2.0119,1.9742,1.8851,1.9552,1.9854,1.9787,1.9766,0.0,0.0,0.0,1.9216,1.921,1.8856,1.874,1.8824,1.8728,1.874,1.8844,1.9429,1.9723,1.9723,1.9723,1.9099,1.7957,0.0,0.0,1.5913,1.4253,1.3192,1.2732,1.1135,1.0312,1.0312,1.0312,1.0312,1.0293,1.0039,0.9688,0.926,0.9415,0.9121,0.8266,0.8626,0.8613,0.0,0.0,0.0,0.0,0.0,0.0,0.0,0.0,0.0,0.0,0.0,0.7387,0.0,0.0,0.0,0.0,0.7851,0.7908,0.774,0.8426,0.0,0.0,0.0,0.0,0.0,0.0,0.0,1.2807,1.255,1.2034,1.1273,1.1005,1.0511,0.9444,0.8902,0.8422,0.7871,0.0,0.7756,0.7994,0.8076,0.7996,0.7614,0.7885,0.8158,0.8212,0.8286,0.8554,0.9393,0.9623,0.9906,1.0631,1.1254,1.1913,1.2751,1.2382,1.2154,1.2769,1.2915,1.2915,1.2915,1.2915,1.2915,2.246,2.2673,2.2656,2.2676,2.263,2.1883,2.0954,2.0038,2.0211,1.9966,1.9447,1.9689,2.0225,2.091,2.0491,0.0,1.9723,1.9723,1.966,1.9603,1.8927,1.8619,1.8619,1.8627,1.8649,1.8709,1.9369,1.9723,1.9723,1.9723,1.9424,1.8902,1.8361,1.7558,1.6424,1.4506,1.3457,1.3297,1.1417,1.039,1.0312,1.0341,1.0351,1.0361,1.0361,1.0164,0.9749,1.0087,0.993,0.9114,0.9404,0.925,0.8518,0.0,0.0,0.0,0.0,0.0,0.0,0.0,0.0,0.0,0.0,0.0,0.0,0.0,0.0,0.0,0.8244,0.0,0.9004,0.9402,0.0,0.0,0.0,1.1235,0.9949,1.1858,1.2683,1.1213,0.0,0.0,1.1622,0.0,1.0323,0.895,0.836,0.7845,0.7244,0.7682,0.7786,0.7342,0.8251,0.8608,0.7745,0.8332,0.8866,0.8696,0.9119,0.9356,0.9494,0.9822,1.037,1.0882,1.1031,1.1389,1.2579,1.2416,1.2361,1.2815,1.2915,1.2915,1.2903,1.2832,1.2737,2.2335,2.2385,2.2402,2.2514,2.2624,2.1586,2.07,2.0022,2.0211,1.9966,1.9449,2.0308,2.06,2.0458,2.0348,2.008,1.9723,1.9723,1.9438,1.8897,1.8245,1.7929,1.7938,1.7938,1.8207,1.8717,1.9375,1.9723,1.9723,1.9723,1.9424,1.8902,1.837,1.7753,1.7042,1.5452,1.4482,1.4184,1.2429,1.1122,1.0342,1.0649,1.084,1.0839,1.084,1.0808,1.0745,1.0443,1.0059,0.9551,0.9563,0.9387,0.8887,0.8877,0.0,0.0,0.0,0.0,0.0,0.0,0.0,0.0,0.0,0.9557,0.8609,0.0,0.9504,0.0,0.9408,0.9333,0.9386,0.9829,0.0,0.0,1.0614,1.148,1.2362,1.2205,1.1612,1.0617,1.1276,1.1609,1.1135,1.0623,1.0046,0.9411,0.9391,0.9228,0.8688,0.8725,0.8685,0.8382,0.8575,0.8962,0.9329,0.9058,0.8803,0.8702,0.8837,0.9029,0.942,0.948,0.9677,1.0331,1.0503,1.0867,1.1748,1.2036,1.2361,1.2785,1.2915,1.2915,1.2903,1.2476,1.2043,2.2313,2.2313,2.2313,2.2388,2.2443,2.1421,2.0614,2.0015,2.0018,1.9686,1.9162,2.0218,2.0433,2.0061,2.0212,2.0072,1.9717,1.9723,1.9339,1.8672,1.8012,1.7699,1.7699,1.7699,1.8057,1.8709,1.9384,1.9723,1.9723,1.9723,1.9433,1.8902,1.8361,1.7837,1.7255,1.5763,1.514,1.5354,1.2618,1.1005,1.0631,1.0878,1.1104,1.1358,1.16,1.1499,1.1059,1.1026,1.0781,1.0296,1.0043,0.9818,0.9639,0.9734,0.9708,0.0,0.0,0.0,0.0,0.0,0.0,0.0,0.0,0.0,0.0,0.0,1.0509,1.0473,0.9929,0.9733,1.0099,1.0377,1.0621,1.0751,1.1276,1.183,1.2332,1.212,1.154,1.0438,1.0726,1.0919,1.0644,1.0363,1.0116,0.9882,0.999,0.9793,0.9119,0.9119,0.9137,0.8779,0.9099,0.9603,1.0241,0.961,0.9158,0.935,0.9419,0.9528,0.9804,0.9756,0.9825,1.0235,1.0495,1.085,1.1465,1.1914,1.234,1.2756,1.2915,1.2915,1.2881,1.2581,1.219,2.2313,2.2313,2.2247,2.2209,2.2159,2.1291,2.0631,2.0111,1.9825,1.9369,1.8884,1.9818,2.0026,1.9735,2.0078,2.0035,1.9708,1.9723,1.9354,1.8687,1.8102,1.7788,1.7699,1.778,1.814,1.8717,1.9369,1.9723,1.9699,1.9621,1.9327,1.8798,1.8259,1.7727,1.7162,1.5871,1.5519,1.6145,1.2561,1.0865,1.1208,1.1336,1.1624,1.2097,1.2552,1.2351,1.1449,1.1853,1.1806,1.1199,1.086,1.0657,1.0584,1.0922,1.0957,0.0,1.0951,0.0,0.0,0.0,0.0,0.0,0.0,0.0,0.0,1.1539,1.1363,1.0869,1.0176,1.0079,1.0839,1.0898,1.1055,1.1469,1.194,1.1892,1.1144,1.1682,1.1675,1.0429,1.0312,1.0312,1.0332,1.0312,1.0312,1.0283,1.0273,0.996,0.9188,0.9337,0.9457,0.8948,0.9677,1.0205,1.0244,0.9922,0.9745,1.0176,1.0235,1.0312,1.0273,1.0352,1.041,1.0479,1.0863,1.1329,1.169,1.2028,1.2352,1.2805,1.2915,1.2915,1.2869,1.2618,1.2415,2.2313,2.2258,2.1875,2.1735,2.1658,2.0813,2.0578,2.0751,2.0039,1.9624,1.9528,1.9737,1.9773,1.9717,1.9782,1.9773,1.9723,1.9723,1.9339,1.8711,1.8559,1.8222,1.7758,1.826,1.8574,1.8747,1.9369,1.9723,1.9714,1.9262,1.8774,1.8249,1.7717,1.7178,1.6667,0.0,0.0,0.0,1.3403,1.2648,1.2334,1.3102,1.3564,1.3674,1.3747,0.0,1.3445,1.3245,1.2785,1.2131,1.2533,0.0,0.0,0.0,0.0,0.0,0.0,0.0,0.0,0.0,0.0,0.0,1.2345,1.1986,1.196,1.16,1.1097,1.0489,1.0548,1.0712,1.0868,1.0898,1.0937,1.1006,1.0834,1.0637,1.0469,1.0616,1.0576,1.0361,1.0312,1.0312,1.0312,1.0312,1.0312,1.0312,1.0312,1.0225,1.002,1.0049,1.0079,1.0049,1.0166,1.0312,1.0312,1.0215,1.0127,1.0303,1.0312,1.0332,1.0381,1.0685,1.0933,1.0952,1.1432,1.2009,1.2526,1.2419,1.2371,1.2817,1.2915,1.2915,1.2881,1.1987,1.1141,2.2313,0.0,2.2039,2.1825,0.0,2.091,2.0641,2.0608,1.998,1.9723,1.9723,1.9723,1.9723,1.9723,1.9723,1.9723,1.9723,1.9723,1.9339,1.8726,1.8711,1.8514,1.8198,1.8529,1.8867,1.9205,1.9549,1.9723,1.969,1.9424,1.8883,1.8102,1.7841,1.7291,1.6522,1.6513,1.5841,1.4545,1.3714,1.3198,1.2971,1.3196,1.3431,1.3637,0.0,0.0,0.0,0.0,0.0,0.0,0.0,0.0,0.0,0.0,0.0,1.252,1.2685,1.2906,1.3173,1.2943,1.2918,1.3173,1.2956,1.2751,1.266,1.1963,1.1415,1.1076,1.0803,1.0706,1.0924,1.0726,1.0696,1.0904,1.0771,1.0563,1.0351,1.0321,1.0321,1.0312,1.0312,1.0312,1.0312,1.0312,1.0312,1.0312,1.0312,1.0312,1.0312,1.0312,1.0312,1.0312,1.0312,1.0312,1.0312,1.0312,1.0391,1.0537,1.0606,1.0694,1.091,1.1033,1.1138,1.1354,1.1933,1.255,1.2786,1.2692,1.2629,1.2825,1.2915,1.2915,1.2893,1.2326,1.1708,2.2574,2.2661,2.25,2.2207,2.1821,2.1424,2.1027,2.062,0.0,0.0,0.0,1.9723,1.9723,1.9723,1.9723,1.9723,1.9723,1.9723,1.9399,1.8873,1.8882,1.8867,1.8882,1.8882,1.9175,1.9693,1.9723,1.9723,1.9699,1.9617,1.9052,1.8161,1.8007,1.7463,1.6575,1.6513,1.6102,1.5267,1.4291,1.3706,1.359,1.3251,1.3216,1.3507,1.3975,1.3781,1.2835,1.3713,1.3948,1.3294,1.3573,1.3603,1.33,1.3397,1.327,1.2839,1.3152,1.3366,1.3366,1.3353,1.3319,1.321,1.3294,1.3272,1.3086,1.2363,1.1847,1.1682,1.1064,1.0769,1.0868,1.0817,1.0788,1.0992,1.1094,1.0953,1.0505,1.0348,1.0318,1.0312,1.0312,1.0312,1.0312,1.0312,1.0312,1.0312,1.0312,1.0312,1.0312,1.0312,1.0312,1.0312,1.0312,1.0312,1.0322,1.04,1.0537,1.0831,1.0957,1.1163,1.1456,1.143,1.1415,1.1627,1.2369,1.2794,1.2898,1.2877,1.2917,1.2915,1.2915,1.2915,1.2915,1.2961,1.2701,2.362,2.4125,2.3333,2.2961,2.2858,2.24,2.2166,2.1972,2.04,1.9723,1.9723,1.9723,1.9723,1.9723,1.9723,1.9723,1.9723,1.9723,1.9648,1.9558,1.9573,1.9564,1.9549,1.9564,1.9618,1.9708,1.9723,1.9723,1.9663,1.9258,1.8688,1.8139,1.7636,1.7107,1.6554,1.6513,1.6418,1.6289,1.6106,1.5596,1.4712,1.5039,1.5056,1.4686,1.472,1.4473,1.3844,1.4428,1.4256,1.3159,1.4361,1.4522,1.3269,1.3779,1.407,1.389,1.3932,1.3981,1.3981,1.3972,1.3752,1.3286,1.3668,1.3588,1.2689,1.249,1.2036,1.1255,1.1793,1.1732,1.0702,1.1552,1.1907,1.1246,1.1452,1.1479,1.1024,1.0587,1.0396,1.042,1.0312,1.0351,1.0391,1.0371,1.0381,1.0342,1.0449,1.0351,1.0391,1.0312,1.0312,1.0312,1.0312,1.0312,1.042,1.0615,1.0839,1.0878,1.127,1.1536,1.1694,1.188,1.2008,1.1974,1.2494,1.285,1.2911,1.2914,1.2944,1.2964,1.2961,1.2983,1.3001,1.3216,1.3064,2.4203,2.4435,2.4031,2.356,2.3041,2.2315,2.2026,2.1941,2.1161,2.0791,2.0791,2.0791,2.0782,2.0791,2.0791,2.0786,2.0791,2.0767,2.0602,2.0288,2.0612,2.0582,2.0303,2.0612,2.0791,2.0786,2.0782,2.0791,2.0767,2.0532,1.9945,1.9062,1.8229,1.7508,1.701,1.6661,1.6514,1.6511,1.6515,1.612,1.5359,1.5286,1.5148,1.4896,1.4884,1.4765,1.4504,1.5047,1.5074,1.4489,1.5439,1.5422,1.4185,1.4218,1.4088,1.3659,1.3618,1.3618,1.3609,1.3912,1.4119,1.4124,1.4378,1.4344,1.3837,1.3527,1.304,1.2301,1.2711,1.2736,1.1956,1.257,1.2934,1.2714,1.2904,1.2829,1.233,1.1675,1.1336,1.144,1.1327,1.1171,1.1028,1.1018,1.0997,1.1008,1.1008,1.0998,1.0967,1.0591,1.0394,1.0604,1.0841,1.0998,1.1008,1.1155,1.1358,1.1572,1.1776,1.2023,1.223,1.2492,1.2513,1.2509,1.2742,1.2873,1.2925,1.3088,1.3196,1.3255,1.3415,1.3513,1.3594,1.3717,1.3454,2.4871,2.4998,2.4742,2.423,2.3492,2.2532,2.2255,2.2458,2.2245,2.2124,2.2134,2.2114,2.1964,2.1704,2.1704,2.169,2.1704,2.1704,2.141,2.1012,2.1455,2.1425,2.1012,2.147,2.1704,2.1704,2.1704,2.1704,2.1704,2.1704,2.1091,1.9904,1.8747,1.8002,1.7588,1.7032,1.6749,1.6701,1.6738,1.6403,1.5713,1.5299,1.5032,1.4906,1.4884,1.4884,1.4919,1.5299,1.5537,1.554,1.5929,1.5743,1.4962,1.4607,1.4172,1.3661,1.357,1.3579,1.3595,1.4016,1.4462,1.4878,1.5019,1.5063,1.5043,1.4823,1.4276,1.3594,1.3732,1.3756,1.3322,1.3692,1.3981,1.4112,1.4217,1.3931,1.3403,1.286,1.2435,1.2383,1.2122,1.1874,1.167,1.1596,1.1567,1.1547,1.1596,1.1596,1.151,1.0985,1.0795,1.1137,1.1585,1.1728,1.168,1.1693,1.1847,1.2184,1.2291,1.2469,1.2746,1.2886,1.2893,1.2888,1.2971,1.3125,1.3196,1.3405,1.361,1.3659,1.3844,1.4098,1.4205,1.4244,1.4017,2.5862,2.632,2.5502,2.5079,2.4876,2.386,2.3917,2.4579,2.3849,2.343,2.3327,2.3407,2.2751,2.1789,2.1749,2.1764,2.1764,2.1704,2.168,2.162,2.1675,2.1665,2.162,2.171,2.1704,2.1749,2.1764,2.1824,2.1809,2.1759,2.1105,1.989,1.876,1.8204,1.8081,1.7707,1.7447,1.7324,1.7425,1.6918,1.5779,1.5643,1.5412,1.4896,1.4906,1.4884,1.4959,1.4956,1.4994,1.4981,1.5082,1.5044,1.4931,1.4864,1.4824,1.4711,1.4708,1.4733,1.4755,1.4793,1.4878,1.4919,1.5387,1.5653,1.5678,1.6017,1.5624,1.4618,1.4972,1.4883,1.3683,1.4641,1.511,1.4412,1.4597,1.4411,1.3597,1.3687,1.3421,1.1813,1.2016,1.1914,1.1747,1.1703,1.1664,1.1732,1.1762,1.1763,1.1719,1.1626,1.1587,1.2008,1.2475,1.2381,1.1937,1.1934,1.2156,1.2272,1.2568,1.2805,1.2935,1.2959,1.291,1.2941,1.3246,1.3552,1.389,1.4032,1.4023,1.4075,1.4163,1.426,1.46,1.4717,1.4501,2.6429,2.6683,2.6246,2.5926,2.5533,2.4532,2.4318,2.4642,2.3917,2.3584,2.3586,2.3593,2.3301,2.2827,2.2832,2.2817,2.2832,2.2827,2.2633,2.2348,2.2652,2.2648,2.2343,2.2667,2.2832,2.2817,2.2832,2.2832,2.2779,2.249,2.1825,2.0978,2.0143,1.9374,1.8718,1.8522,1.8259,1.7877,1.7609,1.7359,1.7124,1.6522,1.6059,1.5881,1.5854,1.5856,1.5844,1.5854,1.5833,1.5844,1.5844,1.5693,1.5387,1.567,1.556,1.4976,1.4884,1.5044,1.5349,1.5364,1.5502,1.5819,1.6057,1.6321,1.6681,1.6922,1.6824,1.664,1.6649,1.6256,1.5425,1.6087,1.6395,1.5661,1.5412,1.5116,1.47,1.4215,1.3614,1.2971,1.268,1.2501,1.239,1.2367,1.2367,1.2367,1.2357,1.233,1.2344,1.2364,1.243,1.2598,1.2801,1.2756,1.2433,1.2471,1.2586,1.2646,1.2766,1.2944,1.3184,1.3252,1.3188,1.2956,1.3469,1.4106,1.4773,1.462,1.4512,1.4537,1.4757,1.4933,1.5113,1.5156,1.5055,2.6987,2.6962,2.6674,2.6314,2.5915,2.5018,2.4622,2.4546,2.4053,2.3851,2.3879,2.3879,2.3973,2.4088,2.3789,2.3584,2.3584,2.3584,2.3381,2.3022,2.3411,2.3445,2.3291,2.3655,2.3973,2.4133,2.4163,2.4148,2.4052,2.3319,2.2636,2.1945,2.1182,2.0252,1.9321,1.9221,1.8957,1.843,1.8016,1.7953,1.8042,1.7389,1.69,1.6738,1.6586,1.6513,1.6513,1.6513,1.6513,1.65,1.6513,1.6323,1.598,1.6288,1.6153,1.5454,1.5339,1.5502,1.5894,1.5919,1.6147,1.6661,1.6748,1.6999,1.7475,1.7613,1.7865,1.8255,1.8066,1.7567,1.7067,1.7324,1.7378,1.6992,1.6402,1.5981,1.5707,1.4771,1.4106,1.3877,1.3454,1.3164,1.3066,1.2942,1.2846,1.2846,1.2876,1.2971,1.2993,1.2966,1.2926,1.3193,1.3245,1.3199,1.3088,1.2903,1.2942,1.3047,1.3098,1.3193,1.3464,1.3532,1.3649,1.3549,1.3994,1.442,1.5004,1.5029,1.4985,1.5019,1.5191,1.5464,1.5566,1.5591,1.5522,2.7756,2.7577,2.6526,2.6159,2.5975,2.5482,2.5211,2.522,2.465,2.4476,2.4549,2.456,2.4903,2.5345,2.4227,2.364,2.364,2.3689,2.3699,2.365,2.367,2.3958,2.4515,2.456,2.4859,2.5315,2.5383,2.5402,2.5344,2.4271,2.3314,2.263,2.1551,2.051,1.9863,1.9786,1.9497,1.9008,1.8882,1.8694,1.8292,1.8142,1.7815,1.7388,1.6835,1.6586,1.6538,1.6525,1.6525,1.6513,1.6514,1.6477,1.6484,1.6552,1.6573,1.6436,1.6436,1.6448,1.6498,1.6513,1.6749,1.7248,1.736,1.7576,1.8079,1.8166,1.8417,1.892,1.8907,1.8645,1.8208,1.812,1.8081,1.791,1.7387,1.6784,1.6214,1.5425,1.4789,1.4278,1.4021,1.3796,1.3506,1.3137,1.303,1.3001,1.2952,1.3079,1.3338,1.3167,1.3266,1.3756,1.3952,1.3899,1.3532,1.3311,1.3235,1.334,1.3474,1.3522,1.363,1.3753,1.3924,1.4139,1.4496,1.4864,1.5225,1.5405,1.5434,1.5459,1.5493,1.5678,1.5986,1.6056,1.5998,2.8561,2.8552,2.8103,2.7905,2.785,2.7344,2.6896,2.6496,2.5963,2.554,2.5283,2.5244,2.5379,2.5558,2.5106,2.4881,2.4896,2.4881,2.487,2.4896,2.4881,2.5005,2.5187,2.4979,2.5121,2.557,2.5908,2.5882,2.5576,2.5123,2.4349,2.3394,2.2835,2.1875,2.0651,2.039,2.01,1.9535,1.9196,1.9058,1.9133,1.8555,1.8242,1.8405,1.789,1.7414,1.7087,1.74,1.7264,1.6538,1.6503,1.6864,1.7569,1.7982,1.7981,1.7634,1.7577,1.759,1.7578,1.7577,1.7677,1.7865,1.7903,1.8142,1.8594,1.8732,1.892,1.9371,1.9509,1.9371,1.9233,1.8932,1.8386,1.7642,1.7351,1.6995,1.6277,1.5605,1.5063,1.4778,1.4443,1.4036,1.3919,1.3756,1.3678,1.3678,1.3669,1.3714,1.3772,1.3625,1.3593,1.3992,1.4283,1.4396,1.4398,1.3961,1.3756,1.3815,1.3909,1.4088,1.4225,1.4342,1.4515,1.4738,1.5045,1.5147,1.5459,1.5767,1.5811,1.6079,1.6102,1.6108,1.6439,1.6475,1.643,2.9204,2.901,2.8993,2.8993,2.8965,2.8609,2.8128,2.7552,2.6994,2.6536,2.6217,2.6008,2.6022,2.6213,2.6255,2.6243,2.6183,2.5812,2.56,2.56,2.56,2.5722,2.5845,2.5566,2.5711,2.6213,2.6555,2.6528,2.6252,2.6033,2.5319,2.4303,2.3855,2.2866,2.1506,2.1078,2.0728,2.0339,1.9986,1.9999,2.02,1.9485,1.9183,1.9422,1.8995,1.838,1.7713,1.82,1.8062,1.7234,1.7192,1.7758,1.8748,1.8811,1.8633,1.825,1.818,1.8192,1.8192,1.8192,1.8267,1.8443,1.8468,1.8732,1.9434,1.9547,1.9823,2.02,2.0351,2.0338,2.0275,2.0024,1.9294,1.82,1.7844,1.7466,1.6725,1.6043,1.5562,1.5212,1.4715,1.4389,1.4313,1.4172,1.4081,1.41,1.41,1.412,1.4266,1.4047,1.4041,1.4447,1.4722,1.4887,1.4915,1.4678,1.4352,1.4371,1.4332,1.4547,1.4707,1.4853,1.5035,1.5298,1.5444,1.5483,1.5678,1.6025,1.6348,1.6658,1.6609,1.6537,1.6752,1.6918,1.6915,2.9702,2.9162,2.9027,2.9162,2.9204,2.9095,2.8728,2.825,2.7589,2.7363,2.7315,2.6862,2.6899,2.739,2.736,2.7495,2.7225,2.6315,2.5824,2.5812,2.5779,2.6078,2.6569,2.6409,2.6663,2.7363,2.7525,2.7537,2.739,2.6856,2.6201,2.5456,2.4405,2.3532,2.2604,2.2036,2.1609,2.1511,2.1422,2.1441,2.146,2.0884,2.0606,2.0645,2.0191,1.9409,1.8378,1.8851,1.8845,1.8314,1.8583,1.9229,1.9718,1.9091,1.835,1.845,1.8303,1.8255,1.828,1.8355,1.8719,1.9033,1.9083,1.9572,2.0311,2.0577,2.0817,2.1246,2.1345,2.138,2.1343,2.1267,2.0774,1.9907,1.8986,1.8352,1.7587,1.6893,1.6191,1.5518,1.5014,1.4805,1.4707,1.4508,1.4319,1.4299,1.428,1.44,1.4703,1.447,1.4567,1.5075,1.5244,1.5219,1.5317,1.5371,1.5107,1.4902,1.4834,1.4873,1.4951,1.5078,1.5201,1.543,1.5751,1.5829,1.6194,1.6521,1.6732,1.6976,1.6908,1.7005,1.7191,1.7402,1.7549,3.0726,3.0514,3.0497,3.0506,3.0458,3.0082,2.9777,2.9518,2.8585,2.8159,2.8076,2.7555,2.7433,2.7555,2.7585,2.7585,2.7555,2.7136,2.6986,2.6956,2.6944,2.7033,2.7213,2.7215,2.732,2.7555,2.7585,2.7585,2.7555,2.7363,2.6931,2.6242,2.5796,2.4996,2.3944,2.3676,2.342,2.2989,2.2511,2.2497,2.283,2.1867,2.1504,2.194,2.1798,2.1159,2.0027,2.0147,1.9801,1.8894,1.9265,2.0014,2.076,2.0421,2.0014,1.9941,1.9533,1.9296,1.9359,1.966,1.995,2.0188,2.0464,2.0696,2.085,2.1098,2.1424,2.1774,2.1654,2.1481,2.1481,2.1481,2.1014,1.982,1.9449,1.8899,1.7848,1.7004,1.6222,1.556,1.5278,1.5225,1.5205,1.5015,1.4966,1.4947,1.4957,1.5064,1.5128,1.5037,1.5032,1.5386,1.542,1.54,1.5415,1.541,1.5293,1.5156,1.5127,1.5088,1.518,1.5342,1.5439,1.5681,1.5994,1.6311,1.6685,1.6967,1.7184,1.7425,1.7542,1.7666,1.7773,1.7842,1.7881,3.119,3.119,3.119,3.119,3.1161,3.0771,3.0487,3.0187,2.9259,2.8724,2.8415,2.7872,2.7585,2.7585,2.7585,2.7585,2.7585,2.7585,2.7585,2.7585,2.7585,2.7585,2.7585,2.7585,2.7585,2.7585,2.7585,2.7585,2.7585,2.7572,2.7357,2.6941,2.6628,2.6096,2.5261,2.4966,2.4623,2.4266,2.3622,2.3595,2.3904,2.2946,2.2566,2.3152,2.3097,2.2617,2.1865,2.1819,2.1186,2.0157,2.043,2.099,2.1062,2.1196,2.1274,2.0785,2.0576,2.0439,2.049,2.0753,2.0993,2.1056,2.1306,2.1461,2.1384,2.1634,2.1966,2.2288,2.2256,2.2081,2.2121,2.2108,2.1619,2.0746,2.0458,1.9715,1.8515,1.7561,1.6711,1.6098,1.5848,1.5815,1.5703,1.5669,1.5576,1.5474,1.5557,1.5669,1.5629,1.5479,1.5468,1.5425,1.5411,1.5411,1.5408,1.541,1.5415,1.5381,1.5352,1.5322,1.5342,1.5601,1.5781,1.6158,1.65,1.6807,1.7168,1.7435,1.7676,1.791,1.8008,1.7969,1.792,1.7939,1.7971,3.119,3.119,3.119,3.119,3.1181,3.1075,3.074,3.0251,2.9551,2.8966,2.8439,2.7872,2.7585,2.76,2.7705,2.7764,2.769,2.7869,2.7914,2.7884,2.7854,2.7824,2.763,2.7705,2.772,2.76,2.7764,2.7779,2.7779,2.7764,2.7645,2.758,2.7016,2.659,2.6369,2.585,2.5603,2.5492,2.4815,2.4815,2.5424,2.4215,2.3864,2.454,2.4228,2.3857,2.3565,2.3362,2.2639,2.1375,2.1963,2.1741,2.0772,2.1668,2.1809,2.0995,2.1287,2.133,2.1444,2.1482,2.1531,2.1531,2.1681,2.1714,2.2054,2.2249,2.251,2.2912,2.296,2.2995,2.2982,2.297,2.266,2.2255,2.1278,2.0402,1.9559,1.8451,1.7349,1.6676,1.6591,1.6557,1.6158,1.6119,1.5943,1.5771,1.5923,1.6085,1.6062,1.5873,1.5572,1.5601,1.5787,1.581,1.5933,1.5672,1.5664,1.564,1.5591,1.5518,1.561,1.5887,1.6123,1.6518,1.6977,1.7301,1.7533,1.7771,1.7891,1.7969,1.8008,1.8008,1.8008,1.8008,1.8,3.119,3.119,3.119,3.119,3.1131,3.074,3.0466,3.0166,2.9203,2.883,2.8422,2.7872,2.7725,2.766,2.8154,2.8338,2.844,2.8815,2.9082,2.9054,2.9067,2.8453,2.7899,2.8096,2.8109,2.788,2.8526,2.8815,2.8368,2.8291,2.8321,2.8308,2.7633,2.728,2.724,2.7061,2.7019,2.6916,2.6283,2.6215,2.6625,2.556,2.5273,2.5878,2.58,2.5236,2.4383,2.3836,2.3429,2.287,2.2522,2.2523,2.2218,2.2057,2.194,2.1879,2.1641,2.1518,2.1594,2.1882,2.2069,2.2146,2.2397,2.2732,2.2787,2.2855,2.2972,2.3095,2.3095,2.3095,2.3095,2.3095,2.2769,2.1967,2.087,1.9817,1.9232,1.7998,1.7115,1.7403,1.7052,1.675,1.6611,1.6527,1.6469,1.6371,1.642,1.6553,1.6504,1.6544,1.6344,1.6465,1.6586,1.6541,1.6439,1.6108,1.5943,1.5899,1.5806,1.5693,1.5915,1.6258,1.6431,1.6678,1.7307,1.7712,1.781,1.7949,1.7998,1.8008,1.8008,1.8008,1.8018,1.8003,1.8016,3.119,3.119,3.119,3.119,3.1161,3.0828,3.0539,3.0274,2.9924,2.9562,2.9308,2.9021,2.8852,2.8888,2.8974,2.9024,2.9099,2.9428,2.9578,2.9593,2.9548,2.8817,2.7969,2.8046,2.8512,2.9221,2.9177,2.9099,2.8951,2.8742,2.8742,2.8771,2.8064,2.775,2.7968,2.7692,2.7585,2.7446,2.6917,2.6852,2.742,2.6468,2.6376,2.6813,2.6943,2.6411,2.5407,2.4714,2.3969,2.3203,2.3044,2.3125,2.2777,2.2803,2.2558,2.2475,2.2206,2.2194,2.2221,2.2495,2.2606,2.2684,2.297,2.3058,2.3083,2.3095,2.3095,2.3095,2.3095,2.3095,2.3095,2.3095,2.2705,2.1933,2.0603,1.9678,1.949,1.8573,1.7936,1.7883,1.7582,1.7145,1.7051,1.6996,1.6888,1.6791,1.6833,1.6937,1.698,1.7113,1.72,1.7226,1.7151,1.7028,1.6952,1.67,1.6328,1.6256,1.6275,1.6103,1.6261,1.6603,1.6834,1.7115,1.7656,1.8008,1.8008,1.8008,1.8008,1.8008,1.8008,1.8008,1.8018,1.8013,1.801,3.119,3.119,3.119,3.119,3.1217,3.1275,3.1012,3.063,3.1128,3.1097,3.0654,3.0637,3.0407,3.0589,3.0169,2.9899,2.971,3.0084,2.9989,2.9963,2.9791,2.9196,2.857,2.8403,2.9281,3.0485,2.9509,2.9425,2.946,2.9056,2.9069,2.9084,2.8229,2.7974,2.8096,2.7854,2.763,2.7511,2.706,2.7021,2.7435,2.6969,2.6943,2.7331,2.7458,2.7098,2.6358,2.5614,2.4463,2.2389,2.3568,2.336,2.2489,2.35,2.3488,2.2752,2.2751,2.2957,2.3045,2.2982,2.307,2.3045,2.3058,2.3095,2.3095,2.3095,2.3095,2.3095,2.3095,2.3095,2.3063,2.3035,2.2598,2.1885,2.1059,2.036,1.9883,1.9434,1.8854,1.8168,1.7988,1.7812,1.7598,1.7429,1.7341,1.724,1.7308,1.7386,1.7471,1.7568,1.7669,1.7764,1.7634,1.7441,1.736,1.7281,1.6893,1.6644,1.6768,1.6722,1.6716,1.6977,1.7258,1.7573,1.7867,1.8008,1.8008,1.8008,1.8008,1.8008,1.8008,1.8008,1.8018,1.8015,1.8002,3.119,3.119,3.119,3.119,3.1292,3.1792,3.1716,3.1231,3.1946,3.1989,3.15,3.1406,3.116,3.0753,3.1472,3.1394,3.0607,3.1232,3.1665,3.1046,3.0507,3.0556,3.0355,3.0032,3.0075,3.0588,3.0859,3.0643,3.0268,2.9713,2.9428,2.9412,2.8378,2.769,2.7809,2.7764,2.7585,2.756,2.7395,2.7382,2.7496,2.7433,2.7382,2.7585,2.7547,2.7188,2.6523,2.5797,2.4899,2.4048,2.3504,2.3213,2.2991,2.317,2.3204,2.3047,2.2982,2.3095,2.3095,2.3095,2.3095,2.3095,2.3095,2.3095,2.3095,2.3095,2.3095,2.3095,2.3095,2.3108,2.314,2.2534,2.2275,2.1926,2.1237,2.0592,2.021,1.9171,1.8405,1.8151,1.8042,1.7978,1.7854,1.7832,1.7764,1.7708,1.7737,1.7835,1.79,1.7939,1.7969,1.8008,1.792,1.7705,1.7653,1.7579,1.7324,1.7083,1.7171,1.7249,1.7252,1.734,1.7606,1.7781,1.7942,1.8008,1.8008,1.8008,1.8008,1.8008,1.7957,1.7811,1.7735,1.7844,1.7867,3.119,3.119,3.119,3.119,3.1309,3.1962,3.2113,3.2068,3.2988,3.3256,3.2999,3.2973,3.2789,3.2503,3.2817,3.2432,3.1711,3.181,3.1866,3.1434,3.1092,3.1182,3.1361,3.1182,3.0893,3.0844,3.0864,3.0927,3.0747,3.0133,2.9728,2.9847,2.8438,2.7899,2.7944,2.7779,2.76,2.7585,2.7585,2.7585,2.7585,2.7585,2.7585,2.7484,2.7293,2.6865,2.6469,2.5412,2.4766,2.4205,2.3543,2.3095,2.3095,2.3095,2.3095,2.3095,2.3095,2.3095,2.3095,2.3095,2.3095,2.3095,2.3095,2.3095,2.3095,2.3095,2.3095,2.3095,2.312,2.3168,2.3469,2.3545,2.3072,2.2313,2.1873,2.1176,2.0167,1.916,1.8613,1.8512,1.8269,1.8083,1.8008,1.8008,1.7988,1.7861,1.7861,1.7939,1.7949,1.7978,1.7988,1.8008,1.8008,1.7949,1.792,1.7812,1.7692,1.7561,1.7571,1.7646,1.7669,1.7786,1.7959,1.8008,1.8008,1.8008,1.8008,1.8008,1.7974,1.7879,1.7759,1.7518,1.7437,1.7595,1.7679,3.119,3.119,3.119,3.119,3.1309,3.1989,3.2385,3.2696,3.3907,3.4401,3.4655,3.4743,3.4433,3.4442,3.4076,3.3505,3.2743,3.2198,3.2005,3.1495,3.1664,3.1579,3.1538,3.1421,3.1376,3.1436,3.1076,3.1061,3.1046,3.0403,3.0058,3.0118,2.8859,2.8274,2.8395,2.8094,2.7735,2.763,2.7585,2.7585,2.7585,2.7585,2.7585,2.7499,2.6956,2.6497,2.6055,2.5119,2.425,2.4089,2.3454,2.3155,2.3095,2.3095,2.3095,2.3095,2.3095,2.3095,2.3095,2.3095,2.3095,2.3095,2.3233,2.3175,2.3145,2.3363,2.3534,2.3496,2.3547,2.3672,2.4104,2.4282,2.4003,2.3373,2.3007,2.1985,2.0577,1.981,1.9414,1.8844,1.8344,1.8042,1.8008,1.8008,1.8008,1.8008,1.8008,1.8008,1.8008,1.8008,1.8008,1.8008,1.8008,1.8008,1.7978,1.7969,1.7835,1.7815,1.7871,1.7891,1.7939,1.7969,1.8008,1.8008,1.8008,1.8008,1.8008,1.8008,1.793,1.7794,1.7449,1.707,1.7121,1.7322,1.7387,3.119,3.119,3.119,3.119,3.1309,3.1989,3.2655,3.3305,3.4144,3.4861,3.5352,3.5402,3.507,3.4819,3.5161,3.456,3.3598,3.3024,3.2475,3.1824,3.1965,3.2007,3.1553,3.1496,3.1496,3.1496,3.1316,3.1361,3.1301,3.0777,3.0328,3.0268,2.9593,2.9099,2.8575,2.8427,2.8079,2.766,2.7585,2.7585,2.7585,2.7585,2.7522,2.7448,2.6761,2.6149,2.5522,2.4766,2.3987,2.3365,2.3183,2.3123,2.3095,2.3095,2.312,2.3158,2.312,2.312,2.3195,2.3173,2.312,2.3208,2.3574,2.3573,2.3514,2.3903,2.4233,2.4374,2.4412,2.4537,2.4641,2.4879,2.4727,2.4325,2.4002,2.3453,2.2669,2.1461,1.9751,1.8748,1.8288,1.8008,1.8008,1.8008,1.8008,1.8008,1.8008,1.8008,1.8008,1.8008,1.8008,1.8008,1.8008,1.8008,1.7998,1.7998,1.7959,1.7939,1.7949,1.7949,1.7988,1.7998,1.8008,1.8008,1.8008,1.8008,1.8008,1.8008,1.763,1.7285,1.6922,1.6567,1.6578,1.6651,1.7035,3.119,3.119,3.119,3.142,3.1785,3.2158,3.2943,3.3931,3.4347,3.4912,3.5442,3.5588,3.543,3.5253,3.5407,3.5005,3.4227,3.3287,3.272,3.2188,3.2049,3.1895,3.1525,3.1496,3.1496,3.1496,3.1496,3.1496,3.1421,3.0822,3.0417,2.9998,2.9698,2.9099,2.8395,2.8397,2.8186,2.775,2.7585,2.7585,2.7585,2.7585,2.7458,2.6956,2.635,2.5605,2.4838,2.4089,2.3529,2.3198,2.3095,2.3095,2.3108,2.3145,2.3258,2.3446,2.3296,2.3283,2.3499,2.3562,2.3587,2.3653,2.4104,2.4264,2.4165,2.447,2.4854,2.4892,2.5146,2.5205,2.5205,2.5444,2.5162,2.4435,2.4377,2.3778,2.2506,2.1664,2.0298,1.8767,1.8323,1.8132,1.8008,1.8008,1.8008,1.8008,1.8008,1.8008,1.8008,1.8008,1.8008,1.8008,1.8008,1.8008,1.8008,1.8008,1.8008,1.8008,1.8008,1.8008,1.8008,1.8008,1.8008,1.8008,1.8008,1.8008,1.7991,1.7974,1.7381,1.6723,1.6201,1.5825,1.5851,1.5999,1.6385,3.119,3.119,3.119,3.1623,3.2226,3.2293,3.3129,3.4297,3.4483,3.4917,3.5532,3.56,3.56,3.56,3.5504,3.5207,3.4528,3.3456,3.2986,3.2479,3.2092,3.1725,3.1524,3.1496,3.1496,3.1496,3.1496,3.1496,3.1376,3.0822,3.0342,3.0162,2.9892,2.9157,2.8453,2.853,2.8201,2.7809,2.7585,2.7585,2.7585,2.7547,2.7329,2.6682,2.5878,2.5161,2.4682,2.3708,2.326,2.3123,2.3095,2.3095,2.312,2.3221,2.3562,2.3954,2.3587,2.3675,2.3991,2.4152,2.4152,2.4164,2.4653,2.4834,2.4898,2.4957,2.5247,2.5234,2.5485,2.5791,2.5808,2.5968,2.536,2.4541,2.4391,2.4237,2.2731,2.1634,2.0814,1.9608,1.8738,1.8338,1.8283,1.8176,1.8215,1.8018,1.8008,1.8008,1.8008,1.8008,1.8008,1.8008,1.8008,1.8008,1.8008,1.8008,1.8008,1.8008,1.8008,1.8008,1.8008,1.8008,1.8008,1.8008,1.8008,1.8008,1.7991,1.7691,1.6949,1.6219,1.5473,1.5199,1.5411,1.5524,1.5747,3.119,3.119,3.119,3.1623,3.2242,3.2293,3.3129,3.4398,3.4489,3.4912,3.56,3.5628,3.5628,3.5628,3.5628,3.5219,3.4676,3.4223,3.3495,3.2682,3.2341,3.1937,3.1568,3.1496,3.1496,3.1496,3.1496,3.1496,3.1376,3.0867,3.0792,3.0822,3.0148,2.9413,2.9009,2.8845,2.8248,2.7735,2.7585,2.7585,2.7585,2.7585,2.7496,2.6967,2.6148,2.5203,2.4767,2.3725,2.3125,2.3095,2.3095,2.3095,2.3183,2.3625,2.4126,2.4365,2.4318,2.4142,2.4607,2.4704,2.4704,2.4791,2.5209,2.5186,2.5278,2.5686,2.6092,2.6298,2.6284,2.6161,2.5918,2.5556,2.5092,2.4396,2.374,2.4446,2.3957,2.1958,2.109,2.0376,1.9466,1.8979,1.8715,1.8559,1.843,1.8176,1.8008,1.8008,1.8008,1.8008,1.8008,1.8008,1.8008,1.8008,1.8008,1.8008,1.8008,1.8008,1.8008,1.8008,1.8008,1.8008,1.8008,1.8008,1.8008,1.7731,1.7375,1.6911,1.6341,1.5597,1.4754,1.4807,1.5145,1.5221,1.5332,3.119,3.119,3.119,3.1623,3.2242,3.2293,3.3156,3.4297,3.45,3.4912,3.5509,3.5628,3.5628,3.5566,3.5628,3.5214,3.464,3.4235,3.3559,3.2641,3.2217,3.1809,3.1582,3.1496,3.1496,3.1496,3.1496,3.1496,3.1376,3.1227,3.1136,3.0852,3.0658,2.9985,2.9265,2.9146,2.853,2.7929,2.7585,2.7585,2.7585,2.7549,2.7229,2.6428,2.5742,2.5048,2.4218,2.3607,2.311,2.3095,2.3095,2.3095,2.3233,2.3662,2.423,2.4713,2.4904,2.5021,2.5222,2.5247,2.5243,2.5369,2.5741,2.6004,2.5902,2.6133,2.6487,2.6474,2.5943,2.5716,2.5529,2.4725,2.3817,2.3183,2.3059,2.2644,2.3065,2.2832,2.1581,2.0907,2.0255,1.9741,1.921,1.8812,1.8617,1.8391,1.8137,1.8008,1.8008,1.8008,1.8008,1.8008,1.8008,1.8008,1.8008,1.8008,1.8008,1.8008,1.8008,1.8008,1.8008,1.8008,1.8008,1.7991,1.7974,1.7531,1.6838,1.6408,1.6079,1.5084,1.4016,1.4476,1.4932,1.5171,1.5321,3.119,3.119,3.119,3.1623,3.2293,3.2293,3.3011,3.4161,3.4421,3.4765,3.5132,3.5217,3.5233,3.5312,3.5228,3.4879,3.4288,3.3819,3.3222,3.2559,3.1938,3.1568,3.1496,3.1496,3.1496,3.1496,3.1496,3.1496,3.1496,3.1406,3.1121,3.0507,3.0073,2.9715,2.9041,2.8695,2.8364,2.7705,2.7585,2.7585,2.7547,2.7369,2.672,2.6016,2.5354,2.4767,2.3821,2.3595,2.36,2.3374,2.3386,2.3411,2.3484,2.3979,2.4519,2.5042,2.5448,2.5778,2.5829,2.5841,2.5812,2.5967,2.6118,2.6381,2.6407,2.6487,2.6487,2.6487,2.5646,2.5194,2.4761,2.3963,2.3165,2.2673,2.2412,2.1324,2.0595,2.1165,2.1448,2.0924,2.0427,2.0389,1.9814,1.9181,1.883,1.8588,1.8342,1.8076,1.8008,1.8008,1.8008,1.8008,1.8008,1.8008,1.8008,1.8008,1.8008,1.8008,1.8008,1.8008,1.8008,1.8008,1.8008,1.7991,1.7913,1.7161,1.6364,1.6105,1.579,1.47,1.3944,1.4368,1.4754,1.5057,1.5241,3.119,3.119,3.119,3.1589,3.2259,3.2293,3.2757,3.3525,3.4167,3.441,3.4462,3.4356,3.4524,3.4568,3.4487,3.4135,3.3571,3.3584,3.3051,3.2448,3.1894,3.1553,3.1496,3.1496,3.1496,3.1496,3.1496,3.1496,3.1451,3.1361,3.1031,3.0492,2.9579,2.8742,2.8306,2.8244,2.8019,2.7585,2.7585,2.7522,2.7344,2.7008,2.6484,2.6168,2.5539,2.5024,2.49,2.46,2.434,2.3951,2.3941,2.3929,2.4014,2.4469,2.4996,2.5398,2.5967,2.6248,2.6285,2.6298,2.6386,2.6424,2.6479,2.6487,2.6487,2.6487,2.6487,2.6383,2.5576,2.5075,2.4445,2.3521,2.2867,2.2467,2.2128,2.1319,2.0678,2.0618,2.0836,2.0663,2.0556,2.0498,2.0293,1.9639,1.9249,1.9007,1.8442,1.8166,1.8037,1.8008,1.8008,1.8008,1.8008,1.8008,1.8008,1.8008,1.8008,1.8008,1.8008,1.8008,1.8008,1.8008,1.8008,1.7835,1.7645,1.6763,1.6,1.5756,1.527,1.4271,1.3908,1.436,1.4985,1.5482,1.5427,3.119,3.119,3.119,3.1369,3.1657,3.2107,3.2452,3.2824,3.3508,3.4083,3.4399,3.4265,3.4321,3.4261,3.354,3.3166,3.285,3.2466,3.2239,3.2,3.1625,3.151,3.1496,3.1496,3.1496,3.1496,3.1496,3.1496,3.1481,3.1227,3.0552,2.9847,2.9338,2.9026,2.8667,2.7959,2.769,2.7645,2.7564,2.7433,2.6891,2.6669,2.6082,2.5118,2.5346,2.4806,2.451,2.4694,2.4639,2.4566,2.4519,2.4478,2.4544,2.5008,2.5331,2.5661,2.621,2.6436,2.6487,2.6487,2.6487,2.6487,2.6487,2.6487,2.6487,2.6487,2.6487,2.6198,2.5594,2.504,2.4743,2.38,2.2969,2.2534,2.2006,2.1359,2.0959,2.0893,2.0595,2.0595,2.0595,2.0586,2.0341,2.0029,1.9727,1.9416,1.8802,1.8286,1.8157,1.8018,1.8008,1.8008,1.8008,1.8008,1.8008,1.8008,1.8008,1.8008,1.8008,1.8008,1.8008,1.8008,1.7964,1.7757,1.7489,1.6866,1.6226,1.5536,1.4819,1.4027,1.4009,1.4414,1.5084,1.5886,1.5862,3.119,3.119,3.119,3.119,3.1258,3.1742,3.1972,3.2148,3.3034,3.3971,3.4759,3.4293,3.4034,3.3803,3.3073,3.2332,3.2245,3.2058,3.1803,3.1617,3.1524,3.1496,3.1496,3.1496,3.1496,3.1496,3.1496,3.1496,3.1481,3.1031,3.0432,3.0042,2.9922,2.9325,2.841,2.7914,2.7777,2.8079,2.7684,2.7601,2.7139,2.641,2.6062,2.5003,2.5088,2.4949,2.4877,2.5154,2.5263,2.5118,2.5017,2.5001,2.5126,2.5356,2.5619,2.5912,2.6193,2.6474,2.6487,2.6487,2.6487,2.6487,2.6487,2.6487,2.6487,2.6487,2.6487,2.6401,2.5616,2.5004,2.4969,2.3981,2.3624,2.3331,2.2869,2.2267,2.1661,2.1368,2.0913,2.0595,2.0595,2.0596,2.0508,2.0273,1.9912,1.9532,1.889,1.8461,1.8325,1.8166,1.8008,1.8008,1.8008,1.8008,1.8008,1.8027,1.802,1.8008,1.8008,1.8008,1.8008,1.7974,1.7957,1.7852,1.7524,1.7056,1.6584,1.6087,1.5043,1.3897,1.4204,1.4661,1.5579,1.6324,1.6483,3.119,3.119,3.119,3.119,3.1181,3.1214,3.1238,3.1522,3.2818,3.4049,3.4895,3.3954,3.344,3.3247,3.2486,3.1925,3.1755,3.2052,3.201,3.1565,3.1496,3.1496,3.1496,3.1496,3.1496,3.1496,3.1496,3.1496,3.1496,3.1361,3.0687,2.9788,2.9442,2.8919,2.7747,2.7657,2.8287,2.9127,2.8152,2.8128,2.7571,2.6408,2.584,2.5213,2.5161,2.505,2.517,2.5791,2.5891,2.5678,2.5531,2.5515,2.5611,2.5561,2.5854,2.6348,2.6424,2.6487,2.6487,2.6487,2.6487,2.6487,2.6487,2.6487,2.6487,2.6487,2.6487,2.6418,2.5734,2.5229,2.4761,2.4355,2.4415,2.4054,2.358,2.2877,2.2208,2.1406,2.0865,2.0595,2.0595,2.0596,2.0596,2.0468,2.0087,1.96,1.8948,1.8646,1.8568,1.8282,1.8093,1.8359,1.8379,1.8235,1.8244,1.8098,1.8049,1.8037,1.7913,1.7784,1.7784,1.775,1.7767,1.7862,1.7689,1.7299,1.7034,1.6741,1.526,1.3954,1.4498,1.5085,1.6026,1.6597,1.6625,3.119,3.119,3.119,3.119,3.1141,3.0777,3.0818,3.1407,3.2666,3.343,3.3425,3.3243,3.307,3.2517,3.1703,3.1216,3.1418,3.1029,3.1041,3.1538,3.1496,3.1496,3.1481,3.1421,3.1436,3.1466,3.1481,3.1451,3.1496,3.1496,3.0747,2.9789,2.8992,2.8079,2.7999,2.8246,2.911,2.9002,2.871,2.8451,2.7252,2.6357,2.5478,2.4573,2.4985,2.5276,2.531,2.608,2.6311,2.6156,2.6051,2.608,2.6131,2.6064,2.6211,2.648,2.6487,2.6487,2.6487,2.6487,2.6487,2.6487,2.6487,2.6487,2.6487,2.6487,2.6487,2.6469,2.6146,2.5873,2.5838,2.5739,2.5569,2.4689,2.4011,2.3036,2.2221,2.1277,2.0605,2.0605,2.0596,2.0596,2.0596,2.0596,2.0293,2.0126,1.9591,1.922,1.9102,1.8531,1.8199,1.8755,1.8936,1.8703,1.8537,1.8459,1.8303,1.8252,1.7797,1.731,1.7337,1.7567,1.7657,1.7813,1.7708,1.7581,1.7342,1.6794,1.5051,1.4152,1.4459,1.5101,1.5992,1.6375,1.6448,3.119,3.1171,3.0975,3.1015,3.1131,3.0777,3.0975,3.163,3.2371,3.2588,3.271,3.2744,3.2408,3.1757,3.1025,3.0561,3.1048,3.075,3.0896,3.1436,3.1496,3.1331,3.1197,3.1137,3.0897,3.0987,3.1077,3.1122,3.1121,3.1376,3.0897,2.9939,2.8845,2.862,2.8527,2.8729,2.902,2.9081,2.9284,2.8759,2.7754,2.6852,2.5913,2.5213,2.5172,2.5552,2.5653,2.6009,2.6487,2.6492,2.6489,2.6485,2.6485,2.6485,2.6489,2.6488,2.6487,2.6487,2.6487,2.6487,2.6487,2.6487,2.6487,2.6487,2.6487,2.6487,2.6487,2.6487,2.6452,2.6164,2.599,2.6042,2.5511,2.4582,2.3927,2.2943,2.2234,2.1288,2.0847,2.0818,2.0596,2.0596,2.0596,2.0596,2.0498,2.041,2.0302,1.995,1.9589,1.9053,1.8607,1.9069,1.9503,1.9369,1.9102,1.8879,1.8703,1.8496,1.7905,1.7232,1.7424,1.7746,1.7743,1.7802,1.795,1.7983,1.7692,1.6832,1.5397,1.4357,1.3964,1.4781,1.5868,1.5965,1.5845,3.119,3.1105,3.057,3.0699,3.1141,3.1141,3.1533,3.2107,3.1537,3.2005,3.3142,3.1759,3.1397,3.1253,3.0651,3.0429,3.0458,3.0401,3.0727,3.1092,3.1091,3.0852,3.0613,3.0477,3.0298,3.0117,3.0253,3.0732,3.0613,3.1017,3.0898,3.0418,2.9623,2.9309,2.9047,2.8833,2.9042,2.9509,2.9235,2.8768,2.8052,2.7462,2.6547,2.5882,2.5786,2.5904,2.6059,2.6373,2.6474,2.6479,2.6488,2.6483,2.6491,2.6491,2.6491,2.6487,2.6487,2.6487,2.6487,2.6487,2.6487,2.6487,2.6487,2.6487,2.6487,2.6469,2.6366,2.6233,2.6065,2.5564,2.5194,2.4915,2.4606,2.4,2.3526,2.2843,2.2255,2.169,2.1339,2.106,2.0712,2.0596,2.0596,2.0596,2.0596,2.0547,2.0449,2.0332,1.9999,1.9774,1.9433,1.9488,1.9832,1.9994,1.9755,1.9353,1.9121,1.8906,1.8066,1.7469,1.772,1.7782,1.7615,1.7749,1.8311,1.8216,1.7325,1.6712,1.6051,1.5115,1.412,1.4141,1.5104,1.4922,1.4791,3.119,3.1171,3.0998,3.1045,3.1181,3.119,3.111,3.0904,3.1053,3.1533,3.1799,3.1394,3.1004,3.0601,3.0451,3.014,2.9941,2.986,2.9928,3.0148,3.0357,3.0073,2.9909,2.9832,2.9713,2.9847,3.0088,3.0433,3.0537,3.0822,3.0852,3.0432,3.0072,2.9803,2.9578,2.9204,2.9521,2.9506,2.9069,2.857,2.8052,2.7332,2.6517,2.5887,2.6109,2.6122,2.6072,2.6373,2.6449,2.6487,2.6481,2.6494,2.6487,2.6485,2.6489,2.6479,2.6487,2.6487,2.6487,2.6487,2.6487,2.6487,2.6487,2.6487,2.6487,2.6383,2.6181,2.606,2.5669,2.5129,2.4445,2.4,2.3654,2.3202,2.2739,2.2245,2.1718,2.1414,2.1099,2.0944,2.0615,2.0596,2.0596,2.0596,2.0596,2.0596,2.0556,2.0478,2.0381,2.0146,2.0029,2.0056,2.0103,2.0262,2.0078,1.9736,1.9521,1.9216,1.8295,1.7696,1.7904,1.7867,1.752,1.7738,1.8409,1.7674,1.6396,1.6161,1.6512,1.5268,1.4276,1.4194,1.4107,1.3989,1.4027,3.0628,3.0808,3.0586,3.0628,3.0828,3.0831,3.072,3.072,3.1045,3.119,3.119,3.119,3.073,3.0044,2.9945,2.9702,2.9177,2.9205,2.937,2.9698,2.9533,2.9415,2.9338,2.9204,2.9174,2.9443,2.9819,3.0223,3.0492,3.0807,3.0927,3.0912,3.0448,3.0387,3.0372,3.033,2.9926,2.9587,2.9001,2.8286,2.7648,2.7134,2.6421,2.5806,2.6273,2.616,2.6034,2.6386,2.6449,2.6487,2.6502,2.6477,2.6491,2.6498,2.6489,2.6504,2.6487,2.6487,2.6487,2.6487,2.6487,2.6487,2.6469,2.6216,2.6181,2.6112,2.606,2.5943,2.5305,2.4671,2.3872,2.3147,2.2739,2.2309,2.1905,2.1489,2.1174,2.0905,2.076,2.0663,2.0596,2.0596,2.0596,2.0596,2.0596,2.0596,2.0596,2.0566,2.0527,2.0449,2.0381,2.038,2.041,2.0468,2.0254,2.0117,2.0,1.9449,1.823,1.7834,1.8092,1.7805,1.7307,1.778,1.856,1.7668,1.6712,1.7045,1.7133,1.5637,1.4391,1.4305,1.3891,1.3235,1.3389,2.9832,3.0282,2.9761,3.0011,3.0351,3.0456,3.072,3.1161,3.1181,3.119,3.119,3.119,3.0566,2.9717,2.9528,2.9118,2.8687,2.8526,2.874,2.9413,2.9144,2.8904,2.8622,2.8521,2.8644,2.8835,2.9386,3.024,3.0658,3.0898,3.1091,3.1421,3.1376,3.1152,3.0928,3.0921,3.0323,2.9345,2.8885,2.833,2.7712,2.7423,2.728,2.6569,2.6474,2.6436,2.6449,2.6487,2.6487,2.6487,2.6487,2.6491,2.6491,2.6479,2.6491,2.6491,2.6487,2.6487,2.6487,2.6487,2.6487,2.6487,2.6469,2.6164,2.6094,2.5856,2.5769,2.5152,2.4451,2.3836,2.3073,2.2301,2.1764,2.1508,2.1193,2.0992,2.0867,2.0702,2.0663,2.0596,2.0596,2.0596,2.0596,2.0596,2.0596,2.0596,2.0596,2.0596,2.0596,2.0596,2.0596,2.0596,2.0576,2.0556,2.0517,2.0429,2.0488,1.98,1.8504,1.7948,1.8187,1.7689,1.7013,1.7743,1.8514,1.8183,1.7661,1.7669,1.6947,1.5232,1.4321,1.4343,1.3862,1.3196,1.2792,3.0166,3.0341,3.0638,3.0858,3.0975,3.0985,3.1045,3.119,3.119,3.119,3.119,3.1095,3.0528,2.9518,2.9327,2.8845,2.8064,2.7991,2.7959,2.8154,2.8229,2.8291,2.7923,2.7969,2.815,2.881,2.9539,3.0362,3.0972,3.1017,3.0807,3.0867,3.1166,3.1346,3.0945,3.0836,3.0155,2.9152,2.8465,2.7904,2.717,2.686,2.6607,2.6487,2.6487,2.6487,2.6487,2.6487,2.6487,2.6487,2.6487,2.6487,2.6487,2.6487,2.6487,2.6487,2.6487,2.6487,2.6487,2.6487,2.6487,2.6487,2.6469,2.6366,2.6112,2.5664,2.5063,2.4307,2.3569,2.2962,2.2357,2.1574,2.0953,2.075,2.0596,2.0596,2.0596,2.0596,2.0596,2.0596,2.0596,2.0596,2.0596,2.0596,2.0596,2.0596,2.0596,2.0596,2.0596,2.0596,2.0596,2.0596,2.0596,2.0586,2.0596,2.0596,2.0596,2.0149,1.9025,1.8599,1.8312,1.736,1.6604,1.7668,1.8299,1.8064,1.7813,1.748,1.6485,1.4844,1.4389,1.4483,1.4422,1.3894,1.3131,2.9255,2.9563,3.0155,3.072,3.1095,3.0918,3.0938,3.1171,3.119,3.119,3.1114,3.0868,3.0278,2.9372,2.9134,2.8603,2.7723,2.7612,2.769,2.763,2.7585,2.766,2.7601,2.7603,2.8083,2.8715,2.9507,3.033,3.1227,3.0942,3.0627,3.0897,3.1316,3.1287,3.0844,3.0513,2.9827,2.9004,2.81,2.7341,2.6699,2.654,2.6487,2.6487,2.6487,2.6487,2.6487,2.6487,2.6487,2.6487,2.6487,2.6487,2.6487,2.6487,2.6487,2.6487,2.6487,2.6487,2.6487,2.6452,2.6452,2.6469,2.6469,2.6366,2.4856,2.4427,2.4761,2.4036,2.298,2.2301,2.2,2.1375,2.0915,2.0644,2.0596,2.0596,2.0596,2.0596,2.0596,2.0596,2.0596,2.0596,2.0596,2.0596,2.0596,2.0596,2.0596,2.0596,2.0596,2.0596,2.0596,2.0596,2.0596,2.0596,2.0596,2.0596,2.0596,2.0042,1.9434,1.8791,1.8144,1.6881,1.6299,1.7505,1.822,1.8098,1.7816,1.7189,1.6177,1.4677,1.4535,1.4679,1.4568,1.4519,1.4173,2.8091,2.8559,2.9259,3.0096,3.0955,3.0631,3.073,3.1151,3.119,3.119,3.1095,3.057,2.9957,2.9372,2.8869,2.8222,2.7773,2.7623,2.7585,2.7585,2.7585,2.7585,2.759,2.7629,2.8157,2.8735,2.9448,3.0449,3.1436,3.0927,3.0777,3.1346,3.1467,3.1423,3.1161,3.0524,2.958,2.8668,2.7838,2.7162,2.6756,2.6487,2.6487,2.6487,2.6487,2.6487,2.6487,2.6487,2.6487,2.6487,2.6487,2.6487,2.6487,2.6487,2.6487,2.6487,2.6487,2.6487,2.6452,2.6245,2.6332,2.6418,2.6418,2.5704,2.4235,2.3891,2.4246,2.3517,2.2454,2.1886,2.1593,2.127,2.0847,2.0596,2.0596,2.0596,2.0596,2.0596,2.0596,2.0596,2.0596,2.0596,2.0596,2.0596,2.0596,2.0596,2.0596,2.0596,2.0596,2.0596,2.0596,2.0596,2.0596,2.0596,2.0596,2.0596,2.0596,2.0226,1.9625,1.8843,1.8005,1.6962,1.6712,1.7576,1.8077,1.7593,1.7128,1.649,1.5407,1.4343,1.4166,1.4211,1.4695,1.4758,1.5196,2.8379,2.8594,2.9662,3.0282,3.0545,3.0858,3.1112,3.1181,3.119,3.119,3.0998,3.0549,2.9968,2.9384,2.9316,2.8681,2.7673,2.7585,2.7585,2.7585,2.7585,2.7585,2.7592,2.7622,2.8388,2.9004,2.9571,3.0314,3.1212,3.0882,3.0822,3.1466,3.1496,3.1161,3.0479,2.9797,2.9002,2.823,2.7438,2.6679,2.6645,2.6487,2.6487,2.6487,2.6487,2.6487,2.6487,2.6487,2.6487,2.6487,2.6487,2.6487,2.6487,2.6487,2.6487,2.6487,2.6487,2.6487,2.6401,2.6025,2.603,2.6401,2.6297,2.5826,2.4731,2.4126,2.387,2.2739,2.1909,2.163,2.1336,2.0992,2.0625,2.0605,2.0596,2.0596,2.0596,2.0596,2.0596,2.0596,2.0596,2.0596,2.0596,2.0596,2.0596,2.0596,2.0596,2.0596,2.0596,2.0596,2.0596,2.0596,2.0596,2.0596,2.0596,2.0596,2.0547,2.0226,1.9679,1.8644,1.7797,1.7245,1.7248,1.7549,1.7109,1.6515,1.6051,1.5953,1.487,1.3925,1.3561,1.3611,1.4294,1.4811,1.5099]}]]